<?xml version="1.0" encoding="UTF-8" standalone="no" ?>
<gpx xmlns="http://www.topografix.com/GPX/1/1" xmlns:xsi="http://www.w3.org/2001/XMLSchema-instance" xsi:schemaLocation="http://www.topografix.com/GPX/1/1 http://www.topografix.com/GPX/1/1/gpx.xsd" version="1.1" creator="VisuGPX - https://www.visugpx.com">
  <metadata>
    <name>sidobre</name>
    <desc><![CDATA[sortie depuis lacrouzette. circuit très sympa]]></desc>
  </metadata>
  <trk>
    <name><![CDATA[31-AOU-13 10:58:13]]></name>
    <trkseg>
      <trkpt lat="43.66359" lon="2.3496">
        <ele>488.01</ele>
        <time>2013-08-31T07:01:51Z</time>
      </trkpt>
      <trkpt lat="43.66359" lon="2.3496">
        <ele>492.81</ele>
        <time>2013-08-31T07:01:52Z</time>
      </trkpt>
      <trkpt lat="43.66359" lon="2.3496">
        <ele>496.18</ele>
        <time>2013-08-31T07:01:53Z</time>
      </trkpt>
      <trkpt lat="43.66359" lon="2.3496">
        <ele>495.7</ele>
        <time>2013-08-31T07:01:54Z</time>
      </trkpt>
      <trkpt lat="43.66359" lon="2.3496">
        <ele>499.54</ele>
        <time>2013-08-31T07:01:55Z</time>
      </trkpt>
      <trkpt lat="43.66359" lon="2.3496">
        <ele>494.74</ele>
        <time>2013-08-31T07:01:56Z</time>
      </trkpt>
      <trkpt lat="43.66359" lon="2.34959">
        <ele>494.74</ele>
        <time>2013-08-31T07:02:15Z</time>
      </trkpt>
      <trkpt lat="43.66359" lon="2.34959">
        <ele>495.7</ele>
        <time>2013-08-31T07:02:33Z</time>
      </trkpt>
      <trkpt lat="43.6636" lon="2.34958">
        <ele>491.37</ele>
        <time>2013-08-31T07:02:59Z</time>
      </trkpt>
      <trkpt lat="43.66359" lon="2.34958">
        <ele>496.18</ele>
        <time>2013-08-31T07:03:00Z</time>
      </trkpt>
      <trkpt lat="43.66358" lon="2.34959">
        <ele>495.7</ele>
        <time>2013-08-31T07:03:19Z</time>
      </trkpt>
      <trkpt lat="43.66357" lon="2.34957">
        <ele>500.5</ele>
        <time>2013-08-31T07:03:47Z</time>
      </trkpt>
      <trkpt lat="43.66357" lon="2.34957">
        <ele>496.18</ele>
        <time>2013-08-31T07:03:48Z</time>
      </trkpt>
      <trkpt lat="43.66357" lon="2.34957">
        <ele>491.37</ele>
        <time>2013-08-31T07:03:52Z</time>
      </trkpt>
      <trkpt lat="43.66357" lon="2.34957">
        <ele>497.14</ele>
        <time>2013-08-31T07:03:53Z</time>
      </trkpt>
      <trkpt lat="43.66357" lon="2.34958">
        <ele>496.18</ele>
        <time>2013-08-31T07:04:04Z</time>
      </trkpt>
      <trkpt lat="43.66361" lon="2.34967">
        <ele>495.7</ele>
        <time>2013-08-31T07:04:12Z</time>
      </trkpt>
      <trkpt lat="43.66376" lon="2.35019">
        <ele>495.7</ele>
        <time>2013-08-31T07:04:27Z</time>
      </trkpt>
      <trkpt lat="43.66374" lon="2.35076">
        <ele>495.7</ele>
        <time>2013-08-31T07:04:40Z</time>
      </trkpt>
      <trkpt lat="43.66381" lon="2.35136">
        <ele>496.18</ele>
        <time>2013-08-31T07:04:53Z</time>
      </trkpt>
      <trkpt lat="43.66397" lon="2.35168">
        <ele>496.66</ele>
        <time>2013-08-31T07:05:04Z</time>
      </trkpt>
      <trkpt lat="43.66397" lon="2.35172">
        <ele>497.14</ele>
        <time>2013-08-31T07:05:18Z</time>
      </trkpt>
      <trkpt lat="43.66396" lon="2.3517">
        <ele>496.66</ele>
        <time>2013-08-31T07:05:34Z</time>
      </trkpt>
      <trkpt lat="43.66396" lon="2.35169">
        <ele>496.66</ele>
        <time>2013-08-31T07:05:40Z</time>
      </trkpt>
      <trkpt lat="43.66404" lon="2.35177">
        <ele>496.66</ele>
        <time>2013-08-31T07:05:46Z</time>
      </trkpt>
      <trkpt lat="43.66432" lon="2.35217">
        <ele>499.54</ele>
        <time>2013-08-31T07:06:02Z</time>
      </trkpt>
      <trkpt lat="43.66451" lon="2.35267">
        <ele>500.5</ele>
        <time>2013-08-31T07:06:16Z</time>
      </trkpt>
      <trkpt lat="43.66475" lon="2.35291">
        <ele>501.95</ele>
        <time>2013-08-31T07:06:27Z</time>
      </trkpt>
      <trkpt lat="43.66489" lon="2.35295">
        <ele>502.91</ele>
        <time>2013-08-31T07:06:34Z</time>
      </trkpt>
      <trkpt lat="43.66515" lon="2.35296">
        <ele>504.83</ele>
        <time>2013-08-31T07:06:46Z</time>
      </trkpt>
      <trkpt lat="43.66553" lon="2.35306">
        <ele>506.75</ele>
        <time>2013-08-31T07:07:01Z</time>
      </trkpt>
      <trkpt lat="43.66575" lon="2.35339">
        <ele>508.67</ele>
        <time>2013-08-31T07:07:14Z</time>
      </trkpt>
      <trkpt lat="43.66573" lon="2.35383">
        <ele>509.64</ele>
        <time>2013-08-31T07:07:27Z</time>
      </trkpt>
      <trkpt lat="43.66559" lon="2.35415">
        <ele>510.6</ele>
        <time>2013-08-31T07:07:39Z</time>
      </trkpt>
      <trkpt lat="43.66558" lon="2.35419">
        <ele>510.6</ele>
        <time>2013-08-31T07:07:41Z</time>
      </trkpt>
      <trkpt lat="43.66569" lon="2.35407">
        <ele>510.6</ele>
        <time>2013-08-31T07:07:49Z</time>
      </trkpt>
      <trkpt lat="43.66579" lon="2.35373">
        <ele>509.16</ele>
        <time>2013-08-31T07:07:57Z</time>
      </trkpt>
      <trkpt lat="43.66579" lon="2.35358">
        <ele>508.67</ele>
        <time>2013-08-31T07:08:00Z</time>
      </trkpt>
      <trkpt lat="43.66582" lon="2.35357">
        <ele>508.19</ele>
        <time>2013-08-31T07:08:01Z</time>
      </trkpt>
      <trkpt lat="43.66584" lon="2.35359">
        <ele>508.67</ele>
        <time>2013-08-31T07:08:02Z</time>
      </trkpt>
      <trkpt lat="43.66585" lon="2.35363">
        <ele>508.67</ele>
        <time>2013-08-31T07:08:03Z</time>
      </trkpt>
      <trkpt lat="43.66585" lon="2.35367">
        <ele>508.19</ele>
        <time>2013-08-31T07:08:04Z</time>
      </trkpt>
      <trkpt lat="43.66585" lon="2.35371">
        <ele>508.19</ele>
        <time>2013-08-31T07:08:05Z</time>
      </trkpt>
      <trkpt lat="43.66585" lon="2.35375">
        <ele>508.19</ele>
        <time>2013-08-31T07:08:06Z</time>
      </trkpt>
      <trkpt lat="43.66574" lon="2.35416">
        <ele>506.27</ele>
        <time>2013-08-31T07:08:15Z</time>
      </trkpt>
      <trkpt lat="43.66571" lon="2.35422">
        <ele>505.31</ele>
        <time>2013-08-31T07:08:16Z</time>
      </trkpt>
      <trkpt lat="43.66564" lon="2.35438">
        <ele>502.91</ele>
        <time>2013-08-31T07:08:19Z</time>
      </trkpt>
      <trkpt lat="43.66558" lon="2.35472">
        <ele>499.06</ele>
        <time>2013-08-31T07:08:25Z</time>
      </trkpt>
      <trkpt lat="43.66556" lon="2.35499">
        <ele>495.22</ele>
        <time>2013-08-31T07:08:30Z</time>
      </trkpt>
      <trkpt lat="43.66555" lon="2.35506">
        <ele>494.74</ele>
        <time>2013-08-31T07:08:31Z</time>
      </trkpt>
      <trkpt lat="43.6655" lon="2.35532">
        <ele>491.37</ele>
        <time>2013-08-31T07:08:35Z</time>
      </trkpt>
      <trkpt lat="43.6655" lon="2.35534">
        <ele>490.89</ele>
        <time>2013-08-31T07:08:36Z</time>
      </trkpt>
      <trkpt lat="43.66543" lon="2.35567">
        <ele>488.49</ele>
        <time>2013-08-31T07:08:40Z</time>
      </trkpt>
      <trkpt lat="43.66538" lon="2.35585">
        <ele>487.53</ele>
        <time>2013-08-31T07:08:43Z</time>
      </trkpt>
      <trkpt lat="43.66536" lon="2.3559">
        <ele>487.53</ele>
        <time>2013-08-31T07:08:44Z</time>
      </trkpt>
      <trkpt lat="43.66537" lon="2.35603">
        <ele>487.05</ele>
        <time>2013-08-31T07:08:47Z</time>
      </trkpt>
      <trkpt lat="43.66537" lon="2.35613">
        <ele>486.08</ele>
        <time>2013-08-31T07:08:49Z</time>
      </trkpt>
      <trkpt lat="43.66539" lon="2.35611">
        <ele>486.08</ele>
        <time>2013-08-31T07:08:50Z</time>
      </trkpt>
      <trkpt lat="43.66542" lon="2.35608">
        <ele>484.64</ele>
        <time>2013-08-31T07:08:51Z</time>
      </trkpt>
      <trkpt lat="43.66546" lon="2.35602">
        <ele>484.64</ele>
        <time>2013-08-31T07:08:53Z</time>
      </trkpt>
      <trkpt lat="43.66547" lon="2.35589">
        <ele>484.16</ele>
        <time>2013-08-31T07:08:58Z</time>
      </trkpt>
      <trkpt lat="43.6655" lon="2.35596">
        <ele>483.68</ele>
        <time>2013-08-31T07:09:01Z</time>
      </trkpt>
      <trkpt lat="43.6655" lon="2.35606">
        <ele>482.24</ele>
        <time>2013-08-31T07:09:04Z</time>
      </trkpt>
      <trkpt lat="43.6654" lon="2.35626">
        <ele>480.32</ele>
        <time>2013-08-31T07:09:07Z</time>
      </trkpt>
      <trkpt lat="43.66538" lon="2.35633">
        <ele>479.35</ele>
        <time>2013-08-31T07:09:08Z</time>
      </trkpt>
      <trkpt lat="43.66536" lon="2.35641">
        <ele>478.39</ele>
        <time>2013-08-31T07:09:09Z</time>
      </trkpt>
      <trkpt lat="43.66534" lon="2.35647">
        <ele>478.39</ele>
        <time>2013-08-31T07:09:10Z</time>
      </trkpt>
      <trkpt lat="43.66534" lon="2.35653">
        <ele>477.43</ele>
        <time>2013-08-31T07:09:11Z</time>
      </trkpt>
      <trkpt lat="43.66533" lon="2.35658">
        <ele>476.95</ele>
        <time>2013-08-31T07:09:12Z</time>
      </trkpt>
      <trkpt lat="43.66531" lon="2.35665">
        <ele>476.47</ele>
        <time>2013-08-31T07:09:13Z</time>
      </trkpt>
      <trkpt lat="43.66531" lon="2.35671">
        <ele>475.99</ele>
        <time>2013-08-31T07:09:14Z</time>
      </trkpt>
      <trkpt lat="43.66528" lon="2.35693">
        <ele>474.55</ele>
        <time>2013-08-31T07:09:17Z</time>
      </trkpt>
      <trkpt lat="43.66527" lon="2.35701">
        <ele>473.11</ele>
        <time>2013-08-31T07:09:18Z</time>
      </trkpt>
      <trkpt lat="43.66526" lon="2.35711">
        <ele>473.11</ele>
        <time>2013-08-31T07:09:19Z</time>
      </trkpt>
      <trkpt lat="43.66524" lon="2.35719">
        <ele>473.11</ele>
        <time>2013-08-31T07:09:20Z</time>
      </trkpt>
      <trkpt lat="43.66522" lon="2.35727">
        <ele>473.59</ele>
        <time>2013-08-31T07:09:21Z</time>
      </trkpt>
      <trkpt lat="43.66519" lon="2.35743">
        <ele>474.07</ele>
        <time>2013-08-31T07:09:23Z</time>
      </trkpt>
      <trkpt lat="43.66517" lon="2.3575">
        <ele>473.59</ele>
        <time>2013-08-31T07:09:24Z</time>
      </trkpt>
      <trkpt lat="43.66515" lon="2.35755">
        <ele>474.55</ele>
        <time>2013-08-31T07:09:25Z</time>
      </trkpt>
      <trkpt lat="43.66507" lon="2.35799">
        <ele>475.51</ele>
        <time>2013-08-31T07:09:36Z</time>
      </trkpt>
      <trkpt lat="43.66519" lon="2.35809">
        <ele>476.47</ele>
        <time>2013-08-31T07:09:46Z</time>
      </trkpt>
      <trkpt lat="43.6653" lon="2.35806">
        <ele>477.91</ele>
        <time>2013-08-31T07:10:03Z</time>
      </trkpt>
      <trkpt lat="43.6653" lon="2.35806">
        <ele>475.51</ele>
        <time>2013-08-31T07:10:06Z</time>
      </trkpt>
      <trkpt lat="43.66531" lon="2.35804">
        <ele>475.51</ele>
        <time>2013-08-31T07:10:13Z</time>
      </trkpt>
      <trkpt lat="43.66537" lon="2.35777">
        <ele>475.03</ele>
        <time>2013-08-31T07:10:21Z</time>
      </trkpt>
      <trkpt lat="43.66573" lon="2.35721">
        <ele>474.55</ele>
        <time>2013-08-31T07:10:36Z</time>
      </trkpt>
      <trkpt lat="43.66613" lon="2.35686">
        <ele>473.11</ele>
        <time>2013-08-31T07:10:48Z</time>
      </trkpt>
      <trkpt lat="43.66645" lon="2.35645">
        <ele>472.63</ele>
        <time>2013-08-31T07:11:00Z</time>
      </trkpt>
      <trkpt lat="43.66682" lon="2.35602">
        <ele>472.14</ele>
        <time>2013-08-31T07:11:15Z</time>
      </trkpt>
      <trkpt lat="43.66733" lon="2.35577">
        <ele>470.7</ele>
        <time>2013-08-31T07:11:29Z</time>
      </trkpt>
      <trkpt lat="43.66741" lon="2.35575">
        <ele>470.7</ele>
        <time>2013-08-31T07:11:31Z</time>
      </trkpt>
      <trkpt lat="43.66767" lon="2.35585">
        <ele>471.66</ele>
        <time>2013-08-31T07:11:38Z</time>
      </trkpt>
      <trkpt lat="43.66798" lon="2.35584">
        <ele>474.55</ele>
        <time>2013-08-31T07:11:51Z</time>
      </trkpt>
      <trkpt lat="43.66825" lon="2.35557">
        <ele>477.43</ele>
        <time>2013-08-31T07:12:07Z</time>
      </trkpt>
      <trkpt lat="43.66849" lon="2.35541">
        <ele>479.35</ele>
        <time>2013-08-31T07:12:20Z</time>
      </trkpt>
      <trkpt lat="43.66872" lon="2.35516">
        <ele>482.24</ele>
        <time>2013-08-31T07:12:34Z</time>
      </trkpt>
      <trkpt lat="43.66889" lon="2.35489">
        <ele>483.68</ele>
        <time>2013-08-31T07:12:48Z</time>
      </trkpt>
      <trkpt lat="43.66894" lon="2.35481">
        <ele>484.64</ele>
        <time>2013-08-31T07:12:52Z</time>
      </trkpt>
      <trkpt lat="43.6691" lon="2.35452">
        <ele>487.05</ele>
        <time>2013-08-31T07:13:07Z</time>
      </trkpt>
      <trkpt lat="43.66911" lon="2.35451">
        <ele>486.56</ele>
        <time>2013-08-31T07:13:08Z</time>
      </trkpt>
      <trkpt lat="43.66921" lon="2.35433">
        <ele>488.49</ele>
        <time>2013-08-31T07:13:18Z</time>
      </trkpt>
      <trkpt lat="43.66932" lon="2.35418">
        <ele>489.45</ele>
        <time>2013-08-31T07:13:27Z</time>
      </trkpt>
      <trkpt lat="43.66952" lon="2.35396">
        <ele>491.37</ele>
        <time>2013-08-31T07:13:43Z</time>
      </trkpt>
      <trkpt lat="43.66959" lon="2.35389">
        <ele>492.81</ele>
        <time>2013-08-31T07:13:48Z</time>
      </trkpt>
      <trkpt lat="43.66964" lon="2.35386">
        <ele>493.29</ele>
        <time>2013-08-31T07:13:52Z</time>
      </trkpt>
      <trkpt lat="43.66969" lon="2.35385">
        <ele>493.77</ele>
        <time>2013-08-31T07:13:55Z</time>
      </trkpt>
      <trkpt lat="43.66976" lon="2.35386">
        <ele>494.26</ele>
        <time>2013-08-31T07:13:59Z</time>
      </trkpt>
      <trkpt lat="43.66991" lon="2.35391">
        <ele>496.18</ele>
        <time>2013-08-31T07:14:07Z</time>
      </trkpt>
      <trkpt lat="43.66998" lon="2.35394">
        <ele>496.66</ele>
        <time>2013-08-31T07:14:11Z</time>
      </trkpt>
      <trkpt lat="43.67001" lon="2.35396">
        <ele>496.66</ele>
        <time>2013-08-31T07:14:13Z</time>
      </trkpt>
      <trkpt lat="43.67015" lon="2.35409">
        <ele>498.1</ele>
        <time>2013-08-31T07:14:24Z</time>
      </trkpt>
      <trkpt lat="43.67022" lon="2.35413">
        <ele>499.06</ele>
        <time>2013-08-31T07:14:28Z</time>
      </trkpt>
      <trkpt lat="43.67036" lon="2.35421">
        <ele>500.5</ele>
        <time>2013-08-31T07:14:38Z</time>
      </trkpt>
      <trkpt lat="43.67057" lon="2.35434">
        <ele>501.95</ele>
        <time>2013-08-31T07:14:51Z</time>
      </trkpt>
      <trkpt lat="43.67076" lon="2.35442">
        <ele>503.87</ele>
        <time>2013-08-31T07:15:02Z</time>
      </trkpt>
      <trkpt lat="43.67091" lon="2.35457">
        <ele>505.31</ele>
        <time>2013-08-31T07:15:17Z</time>
      </trkpt>
      <trkpt lat="43.67119" lon="2.35471">
        <ele>507.71</ele>
        <time>2013-08-31T07:15:32Z</time>
      </trkpt>
      <trkpt lat="43.67138" lon="2.35477">
        <ele>509.64</ele>
        <time>2013-08-31T07:15:40Z</time>
      </trkpt>
      <trkpt lat="43.67163" lon="2.355">
        <ele>511.56</ele>
        <time>2013-08-31T07:15:57Z</time>
      </trkpt>
      <trkpt lat="43.67166" lon="2.35503">
        <ele>512.52</ele>
        <time>2013-08-31T07:15:59Z</time>
      </trkpt>
      <trkpt lat="43.6718" lon="2.35528">
        <ele>513.96</ele>
        <time>2013-08-31T07:16:12Z</time>
      </trkpt>
      <trkpt lat="43.67183" lon="2.3556">
        <ele>515.4</ele>
        <time>2013-08-31T07:16:25Z</time>
      </trkpt>
      <trkpt lat="43.67177" lon="2.35588">
        <ele>516.85</ele>
        <time>2013-08-31T07:16:37Z</time>
      </trkpt>
      <trkpt lat="43.67174" lon="2.35624">
        <ele>518.77</ele>
        <time>2013-08-31T07:16:53Z</time>
      </trkpt>
      <trkpt lat="43.67165" lon="2.35653">
        <ele>520.69</ele>
        <time>2013-08-31T07:17:07Z</time>
      </trkpt>
      <trkpt lat="43.67159" lon="2.3567">
        <ele>522.13</ele>
        <time>2013-08-31T07:17:16Z</time>
      </trkpt>
      <trkpt lat="43.67152" lon="2.35678">
        <ele>523.58</ele>
        <time>2013-08-31T07:17:21Z</time>
      </trkpt>
      <trkpt lat="43.67136" lon="2.35704">
        <ele>525.5</ele>
        <time>2013-08-31T07:17:37Z</time>
      </trkpt>
      <trkpt lat="43.67118" lon="2.35724">
        <ele>526.94</ele>
        <time>2013-08-31T07:17:47Z</time>
      </trkpt>
      <trkpt lat="43.67096" lon="2.35745">
        <ele>528.86</ele>
        <time>2013-08-31T07:18:00Z</time>
      </trkpt>
      <trkpt lat="43.67078" lon="2.35774">
        <ele>530.79</ele>
        <time>2013-08-31T07:18:15Z</time>
      </trkpt>
      <trkpt lat="43.67064" lon="2.358">
        <ele>532.71</ele>
        <time>2013-08-31T07:18:29Z</time>
      </trkpt>
      <trkpt lat="43.67047" lon="2.35837">
        <ele>535.59</ele>
        <time>2013-08-31T07:18:47Z</time>
      </trkpt>
      <trkpt lat="43.67034" lon="2.35865">
        <ele>537.51</ele>
        <time>2013-08-31T07:19:01Z</time>
      </trkpt>
      <trkpt lat="43.67018" lon="2.35894">
        <ele>539.92</ele>
        <time>2013-08-31T07:19:17Z</time>
      </trkpt>
      <trkpt lat="43.67014" lon="2.35902">
        <ele>540.4</ele>
        <time>2013-08-31T07:19:23Z</time>
      </trkpt>
      <trkpt lat="43.67018" lon="2.35911">
        <ele>539.44</ele>
        <time>2013-08-31T07:19:28Z</time>
      </trkpt>
      <trkpt lat="43.67022" lon="2.35928">
        <ele>536.55</ele>
        <time>2013-08-31T07:19:32Z</time>
      </trkpt>
      <trkpt lat="43.67028" lon="2.35956">
        <ele>532.71</ele>
        <time>2013-08-31T07:19:37Z</time>
      </trkpt>
      <trkpt lat="43.67033" lon="2.35975">
        <ele>529.82</ele>
        <time>2013-08-31T07:19:40Z</time>
      </trkpt>
      <trkpt lat="43.67039" lon="2.3601">
        <ele>525.5</ele>
        <time>2013-08-31T07:19:44Z</time>
      </trkpt>
      <trkpt lat="43.67045" lon="2.36042">
        <ele>522.13</ele>
        <time>2013-08-31T07:19:47Z</time>
      </trkpt>
      <trkpt lat="43.67057" lon="2.36103">
        <ele>520.21</ele>
        <time>2013-08-31T07:19:55Z</time>
      </trkpt>
      <trkpt lat="43.67058" lon="2.36108">
        <ele>519.25</ele>
        <time>2013-08-31T07:19:56Z</time>
      </trkpt>
      <trkpt lat="43.67078" lon="2.36109">
        <ele>515.4</ele>
        <time>2013-08-31T07:20:01Z</time>
      </trkpt>
      <trkpt lat="43.67089" lon="2.361">
        <ele>513.96</ele>
        <time>2013-08-31T07:20:04Z</time>
      </trkpt>
      <trkpt lat="43.67094" lon="2.36098">
        <ele>513</ele>
        <time>2013-08-31T07:20:06Z</time>
      </trkpt>
      <trkpt lat="43.67097" lon="2.361">
        <ele>512.52</ele>
        <time>2013-08-31T07:20:08Z</time>
      </trkpt>
      <trkpt lat="43.67087" lon="2.3612">
        <ele>511.56</ele>
        <time>2013-08-31T07:20:19Z</time>
      </trkpt>
      <trkpt lat="43.6706" lon="2.3613">
        <ele>508.19</ele>
        <time>2013-08-31T07:20:31Z</time>
      </trkpt>
      <trkpt lat="43.67051" lon="2.36135">
        <ele>506.75</ele>
        <time>2013-08-31T07:20:34Z</time>
      </trkpt>
      <trkpt lat="43.67045" lon="2.36147">
        <ele>505.79</ele>
        <time>2013-08-31T07:20:36Z</time>
      </trkpt>
      <trkpt lat="43.67044" lon="2.36215">
        <ele>504.83</ele>
        <time>2013-08-31T07:20:44Z</time>
      </trkpt>
      <trkpt lat="43.6707" lon="2.3626">
        <ele>504.83</ele>
        <time>2013-08-31T07:20:56Z</time>
      </trkpt>
      <trkpt lat="43.67063" lon="2.36305">
        <ele>506.75</ele>
        <time>2013-08-31T07:21:09Z</time>
      </trkpt>
      <trkpt lat="43.67051" lon="2.36341">
        <ele>509.64</ele>
        <time>2013-08-31T07:21:23Z</time>
      </trkpt>
      <trkpt lat="43.67044" lon="2.36361">
        <ele>510.6</ele>
        <time>2013-08-31T07:21:33Z</time>
      </trkpt>
      <trkpt lat="43.67025" lon="2.36381">
        <ele>513.48</ele>
        <time>2013-08-31T07:21:45Z</time>
      </trkpt>
      <trkpt lat="43.6702" lon="2.36383">
        <ele>513.48</ele>
        <time>2013-08-31T07:21:48Z</time>
      </trkpt>
      <trkpt lat="43.67011" lon="2.36386">
        <ele>514.92</ele>
        <time>2013-08-31T07:21:55Z</time>
      </trkpt>
      <trkpt lat="43.66997" lon="2.36392">
        <ele>516.85</ele>
        <time>2013-08-31T07:22:06Z</time>
      </trkpt>
      <trkpt lat="43.66986" lon="2.364">
        <ele>518.29</ele>
        <time>2013-08-31T07:22:17Z</time>
      </trkpt>
      <trkpt lat="43.66975" lon="2.3641">
        <ele>520.21</ele>
        <time>2013-08-31T07:22:26Z</time>
      </trkpt>
      <trkpt lat="43.66965" lon="2.36427">
        <ele>521.65</ele>
        <time>2013-08-31T07:22:34Z</time>
      </trkpt>
      <trkpt lat="43.66955" lon="2.36447">
        <ele>523.09</ele>
        <time>2013-08-31T07:22:45Z</time>
      </trkpt>
      <trkpt lat="43.66945" lon="2.36468">
        <ele>525.5</ele>
        <time>2013-08-31T07:22:56Z</time>
      </trkpt>
      <trkpt lat="43.66941" lon="2.3648">
        <ele>526.46</ele>
        <time>2013-08-31T07:23:04Z</time>
      </trkpt>
      <trkpt lat="43.66937" lon="2.3649">
        <ele>527.42</ele>
        <time>2013-08-31T07:23:08Z</time>
      </trkpt>
      <trkpt lat="43.66934" lon="2.36495">
        <ele>527.9</ele>
        <time>2013-08-31T07:23:11Z</time>
      </trkpt>
      <trkpt lat="43.66928" lon="2.36509">
        <ele>529.34</ele>
        <time>2013-08-31T07:23:21Z</time>
      </trkpt>
      <trkpt lat="43.6692" lon="2.36527">
        <ele>531.27</ele>
        <time>2013-08-31T07:23:31Z</time>
      </trkpt>
      <trkpt lat="43.66919" lon="2.36531">
        <ele>531.75</ele>
        <time>2013-08-31T07:23:33Z</time>
      </trkpt>
      <trkpt lat="43.6691" lon="2.36546">
        <ele>533.19</ele>
        <time>2013-08-31T07:23:44Z</time>
      </trkpt>
      <trkpt lat="43.66908" lon="2.36548">
        <ele>533.67</ele>
        <time>2013-08-31T07:23:46Z</time>
      </trkpt>
      <trkpt lat="43.66907" lon="2.36552">
        <ele>534.15</ele>
        <time>2013-08-31T07:23:48Z</time>
      </trkpt>
      <trkpt lat="43.66902" lon="2.36562">
        <ele>535.11</ele>
        <time>2013-08-31T07:23:55Z</time>
      </trkpt>
      <trkpt lat="43.66895" lon="2.36578">
        <ele>536.55</ele>
        <time>2013-08-31T07:24:02Z</time>
      </trkpt>
      <trkpt lat="43.66886" lon="2.36597">
        <ele>537.99</ele>
        <time>2013-08-31T07:24:14Z</time>
      </trkpt>
      <trkpt lat="43.66875" lon="2.3662">
        <ele>539.44</ele>
        <time>2013-08-31T07:24:24Z</time>
      </trkpt>
      <trkpt lat="43.66865" lon="2.36639">
        <ele>540.88</ele>
        <time>2013-08-31T07:24:33Z</time>
      </trkpt>
      <trkpt lat="43.66865" lon="2.36641">
        <ele>540.4</ele>
        <time>2013-08-31T07:24:34Z</time>
      </trkpt>
      <trkpt lat="43.66862" lon="2.3665">
        <ele>541.36</ele>
        <time>2013-08-31T07:24:37Z</time>
      </trkpt>
      <trkpt lat="43.66858" lon="2.36667">
        <ele>542.32</ele>
        <time>2013-08-31T07:24:48Z</time>
      </trkpt>
      <trkpt lat="43.66846" lon="2.36697">
        <ele>543.28</ele>
        <time>2013-08-31T07:25:00Z</time>
      </trkpt>
      <trkpt lat="43.66845" lon="2.36704">
        <ele>543.76</ele>
        <time>2013-08-31T07:25:03Z</time>
      </trkpt>
      <trkpt lat="43.66836" lon="2.36736">
        <ele>545.69</ele>
        <time>2013-08-31T07:25:16Z</time>
      </trkpt>
      <trkpt lat="43.66831" lon="2.3676">
        <ele>547.13</ele>
        <time>2013-08-31T07:25:26Z</time>
      </trkpt>
      <trkpt lat="43.66823" lon="2.36793">
        <ele>549.05</ele>
        <time>2013-08-31T07:25:39Z</time>
      </trkpt>
      <trkpt lat="43.66815" lon="2.36827">
        <ele>551.93</ele>
        <time>2013-08-31T07:25:51Z</time>
      </trkpt>
      <trkpt lat="43.66811" lon="2.36833">
        <ele>552.41</ele>
        <time>2013-08-31T07:25:55Z</time>
      </trkpt>
      <trkpt lat="43.6681" lon="2.36825">
        <ele>553.38</ele>
        <time>2013-08-31T07:26:08Z</time>
      </trkpt>
      <trkpt lat="43.66809" lon="2.36824">
        <ele>552.9</ele>
        <time>2013-08-31T07:26:18Z</time>
      </trkpt>
      <trkpt lat="43.66807" lon="2.36824">
        <ele>552.9</ele>
        <time>2013-08-31T07:26:51Z</time>
      </trkpt>
      <trkpt lat="43.66807" lon="2.36824">
        <ele>552.41</ele>
        <time>2013-08-31T07:27:24Z</time>
      </trkpt>
      <trkpt lat="43.66808" lon="2.36825">
        <ele>553.38</ele>
        <time>2013-08-31T07:27:36Z</time>
      </trkpt>
      <trkpt lat="43.66808" lon="2.36825">
        <ele>553.38</ele>
        <time>2013-08-31T07:27:52Z</time>
      </trkpt>
      <trkpt lat="43.66807" lon="2.36815">
        <ele>553.86</ele>
        <time>2013-08-31T07:27:58Z</time>
      </trkpt>
      <trkpt lat="43.66805" lon="2.36812">
        <ele>553.86</ele>
        <time>2013-08-31T07:28:00Z</time>
      </trkpt>
      <trkpt lat="43.66804" lon="2.36802">
        <ele>556.74</ele>
        <time>2013-08-31T07:28:05Z</time>
      </trkpt>
      <trkpt lat="43.66804" lon="2.36795">
        <ele>557.7</ele>
        <time>2013-08-31T07:28:09Z</time>
      </trkpt>
      <trkpt lat="43.66804" lon="2.36776">
        <ele>558.66</ele>
        <time>2013-08-31T07:28:20Z</time>
      </trkpt>
      <trkpt lat="43.66802" lon="2.36762">
        <ele>560.11</ele>
        <time>2013-08-31T07:28:31Z</time>
      </trkpt>
      <trkpt lat="43.66804" lon="2.36744">
        <ele>562.03</ele>
        <time>2013-08-31T07:28:42Z</time>
      </trkpt>
      <trkpt lat="43.66802" lon="2.36725">
        <ele>563.95</ele>
        <time>2013-08-31T07:28:53Z</time>
      </trkpt>
      <trkpt lat="43.668" lon="2.36709">
        <ele>565.39</ele>
        <time>2013-08-31T07:29:02Z</time>
      </trkpt>
      <trkpt lat="43.66802" lon="2.36703">
        <ele>565.87</ele>
        <time>2013-08-31T07:29:04Z</time>
      </trkpt>
      <trkpt lat="43.66804" lon="2.36681">
        <ele>567.8</ele>
        <time>2013-08-31T07:29:15Z</time>
      </trkpt>
      <trkpt lat="43.66802" lon="2.36676">
        <ele>567.8</ele>
        <time>2013-08-31T07:29:17Z</time>
      </trkpt>
      <trkpt lat="43.66788" lon="2.36654">
        <ele>569.72</ele>
        <time>2013-08-31T07:29:28Z</time>
      </trkpt>
      <trkpt lat="43.66783" lon="2.3665">
        <ele>570.2</ele>
        <time>2013-08-31T07:29:31Z</time>
      </trkpt>
      <trkpt lat="43.66778" lon="2.36652">
        <ele>570.68</ele>
        <time>2013-08-31T07:29:35Z</time>
      </trkpt>
      <trkpt lat="43.66768" lon="2.36667">
        <ele>571.16</ele>
        <time>2013-08-31T07:29:44Z</time>
      </trkpt>
      <trkpt lat="43.66758" lon="2.36687">
        <ele>572.6</ele>
        <time>2013-08-31T07:29:56Z</time>
      </trkpt>
      <trkpt lat="43.66751" lon="2.36707">
        <ele>573.56</ele>
        <time>2013-08-31T07:30:06Z</time>
      </trkpt>
      <trkpt lat="43.66747" lon="2.36717">
        <ele>575.01</ele>
        <time>2013-08-31T07:30:12Z</time>
      </trkpt>
      <trkpt lat="43.66733" lon="2.36739">
        <ele>577.41</ele>
        <time>2013-08-31T07:30:26Z</time>
      </trkpt>
      <trkpt lat="43.66721" lon="2.36763">
        <ele>578.85</ele>
        <time>2013-08-31T07:30:39Z</time>
      </trkpt>
      <trkpt lat="43.66708" lon="2.36787">
        <ele>581.25</ele>
        <time>2013-08-31T07:30:53Z</time>
      </trkpt>
      <trkpt lat="43.667" lon="2.36802">
        <ele>582.7</ele>
        <time>2013-08-31T07:31:01Z</time>
      </trkpt>
      <trkpt lat="43.66688" lon="2.36825">
        <ele>584.62</ele>
        <time>2013-08-31T07:31:14Z</time>
      </trkpt>
      <trkpt lat="43.66678" lon="2.36841">
        <ele>586.54</ele>
        <time>2013-08-31T07:31:26Z</time>
      </trkpt>
      <trkpt lat="43.66675" lon="2.36844">
        <ele>587.02</ele>
        <time>2013-08-31T07:31:30Z</time>
      </trkpt>
      <trkpt lat="43.66667" lon="2.3685">
        <ele>587.98</ele>
        <time>2013-08-31T07:31:36Z</time>
      </trkpt>
      <trkpt lat="43.66641" lon="2.36868">
        <ele>589.43</ele>
        <time>2013-08-31T07:31:50Z</time>
      </trkpt>
      <trkpt lat="43.66623" lon="2.36876">
        <ele>592.31</ele>
        <time>2013-08-31T07:32:02Z</time>
      </trkpt>
      <trkpt lat="43.66614" lon="2.36877">
        <ele>591.83</ele>
        <time>2013-08-31T07:32:07Z</time>
      </trkpt>
      <trkpt lat="43.66613" lon="2.36878">
        <ele>592.31</ele>
        <time>2013-08-31T07:32:08Z</time>
      </trkpt>
      <trkpt lat="43.66584" lon="2.36885">
        <ele>594.23</ele>
        <time>2013-08-31T07:32:23Z</time>
      </trkpt>
      <trkpt lat="43.66549" lon="2.3689">
        <ele>595.19</ele>
        <time>2013-08-31T07:32:37Z</time>
      </trkpt>
      <trkpt lat="43.66518" lon="2.36893">
        <ele>594.23</ele>
        <time>2013-08-31T07:32:48Z</time>
      </trkpt>
      <trkpt lat="43.66476" lon="2.36901">
        <ele>591.35</ele>
        <time>2013-08-31T07:32:58Z</time>
      </trkpt>
      <trkpt lat="43.6646" lon="2.36908">
        <ele>589.91</ele>
        <time>2013-08-31T07:33:01Z</time>
      </trkpt>
      <trkpt lat="43.66444" lon="2.36912">
        <ele>588.95</ele>
        <time>2013-08-31T07:33:04Z</time>
      </trkpt>
      <trkpt lat="43.66405" lon="2.36906">
        <ele>588.46</ele>
        <time>2013-08-31T07:33:14Z</time>
      </trkpt>
      <trkpt lat="43.66393" lon="2.36907">
        <ele>588.46</ele>
        <time>2013-08-31T07:33:21Z</time>
      </trkpt>
      <trkpt lat="43.66387" lon="2.36911">
        <ele>588.46</ele>
        <time>2013-08-31T07:33:31Z</time>
      </trkpt>
      <trkpt lat="43.66371" lon="2.3692">
        <ele>588.46</ele>
        <time>2013-08-31T07:33:39Z</time>
      </trkpt>
      <trkpt lat="43.66368" lon="2.36922">
        <ele>588.46</ele>
        <time>2013-08-31T07:33:41Z</time>
      </trkpt>
      <trkpt lat="43.66366" lon="2.36921">
        <ele>588.46</ele>
        <time>2013-08-31T07:33:43Z</time>
      </trkpt>
      <trkpt lat="43.66364" lon="2.36918">
        <ele>588.46</ele>
        <time>2013-08-31T07:33:46Z</time>
      </trkpt>
      <trkpt lat="43.6636" lon="2.36909">
        <ele>587.5</ele>
        <time>2013-08-31T07:33:51Z</time>
      </trkpt>
      <trkpt lat="43.66354" lon="2.36904">
        <ele>587.02</ele>
        <time>2013-08-31T07:33:54Z</time>
      </trkpt>
      <trkpt lat="43.66329" lon="2.36916">
        <ele>587.5</ele>
        <time>2013-08-31T07:34:05Z</time>
      </trkpt>
      <trkpt lat="43.6632" lon="2.36924">
        <ele>586.54</ele>
        <time>2013-08-31T07:34:10Z</time>
      </trkpt>
      <trkpt lat="43.66314" lon="2.36932">
        <ele>586.06</ele>
        <time>2013-08-31T07:34:15Z</time>
      </trkpt>
      <trkpt lat="43.66305" lon="2.3694">
        <ele>585.1</ele>
        <time>2013-08-31T07:34:19Z</time>
      </trkpt>
      <trkpt lat="43.663" lon="2.36939">
        <ele>585.58</ele>
        <time>2013-08-31T07:34:23Z</time>
      </trkpt>
      <trkpt lat="43.66283" lon="2.36923">
        <ele>586.54</ele>
        <time>2013-08-31T07:34:33Z</time>
      </trkpt>
      <trkpt lat="43.66275" lon="2.36922">
        <ele>586.54</ele>
        <time>2013-08-31T07:34:39Z</time>
      </trkpt>
      <trkpt lat="43.66264" lon="2.36903">
        <ele>589.43</ele>
        <time>2013-08-31T07:34:51Z</time>
      </trkpt>
      <trkpt lat="43.66257" lon="2.36888">
        <ele>589.43</ele>
        <time>2013-08-31T07:35:01Z</time>
      </trkpt>
      <trkpt lat="43.66256" lon="2.36887">
        <ele>589.43</ele>
        <time>2013-08-31T07:35:02Z</time>
      </trkpt>
      <trkpt lat="43.6625" lon="2.36858">
        <ele>588.46</ele>
        <time>2013-08-31T07:35:12Z</time>
      </trkpt>
      <trkpt lat="43.66244" lon="2.36845">
        <ele>586.54</ele>
        <time>2013-08-31T07:35:16Z</time>
      </trkpt>
      <trkpt lat="43.66245" lon="2.36818">
        <ele>586.54</ele>
        <time>2013-08-31T07:35:25Z</time>
      </trkpt>
      <trkpt lat="43.66246" lon="2.36811">
        <ele>586.06</ele>
        <time>2013-08-31T07:35:27Z</time>
      </trkpt>
      <trkpt lat="43.66249" lon="2.36803">
        <ele>585.58</ele>
        <time>2013-08-31T07:35:30Z</time>
      </trkpt>
      <trkpt lat="43.6625" lon="2.36796">
        <ele>585.58</ele>
        <time>2013-08-31T07:35:32Z</time>
      </trkpt>
      <trkpt lat="43.66246" lon="2.36789">
        <ele>585.58</ele>
        <time>2013-08-31T07:35:35Z</time>
      </trkpt>
      <trkpt lat="43.6624" lon="2.36786">
        <ele>585.1</ele>
        <time>2013-08-31T07:35:42Z</time>
      </trkpt>
      <trkpt lat="43.66244" lon="2.36789">
        <ele>585.58</ele>
        <time>2013-08-31T07:35:49Z</time>
      </trkpt>
      <trkpt lat="43.66256" lon="2.36783">
        <ele>586.06</ele>
        <time>2013-08-31T07:35:57Z</time>
      </trkpt>
      <trkpt lat="43.66257" lon="2.3677">
        <ele>585.1</ele>
        <time>2013-08-31T07:36:02Z</time>
      </trkpt>
      <trkpt lat="43.66254" lon="2.36734">
        <ele>581.25</ele>
        <time>2013-08-31T07:36:13Z</time>
      </trkpt>
      <trkpt lat="43.6625" lon="2.3673">
        <ele>581.25</ele>
        <time>2013-08-31T07:36:16Z</time>
      </trkpt>
      <trkpt lat="43.66244" lon="2.36698">
        <ele>580.29</ele>
        <time>2013-08-31T07:36:26Z</time>
      </trkpt>
      <trkpt lat="43.66238" lon="2.36682">
        <ele>580.77</ele>
        <time>2013-08-31T07:36:35Z</time>
      </trkpt>
      <trkpt lat="43.66236" lon="2.36679">
        <ele>580.77</ele>
        <time>2013-08-31T07:36:47Z</time>
      </trkpt>
      <trkpt lat="43.66243" lon="2.36688">
        <ele>580.77</ele>
        <time>2013-08-31T07:36:58Z</time>
      </trkpt>
      <trkpt lat="43.66243" lon="2.36687">
        <ele>580.29</ele>
        <time>2013-08-31T07:36:59Z</time>
      </trkpt>
      <trkpt lat="43.66251" lon="2.36683">
        <ele>579.81</ele>
        <time>2013-08-31T07:37:04Z</time>
      </trkpt>
      <trkpt lat="43.66258" lon="2.36668">
        <ele>577.41</ele>
        <time>2013-08-31T07:37:15Z</time>
      </trkpt>
      <trkpt lat="43.66262" lon="2.36672">
        <ele>577.41</ele>
        <time>2013-08-31T07:37:27Z</time>
      </trkpt>
      <trkpt lat="43.66269" lon="2.36677">
        <ele>578.85</ele>
        <time>2013-08-31T07:37:37Z</time>
      </trkpt>
      <trkpt lat="43.66274" lon="2.36677">
        <ele>578.85</ele>
        <time>2013-08-31T07:37:54Z</time>
      </trkpt>
      <trkpt lat="43.66277" lon="2.3668">
        <ele>579.33</ele>
        <time>2013-08-31T07:38:11Z</time>
      </trkpt>
      <trkpt lat="43.66269" lon="2.36684">
        <ele>580.29</ele>
        <time>2013-08-31T07:38:23Z</time>
      </trkpt>
      <trkpt lat="43.66259" lon="2.36685">
        <ele>580.77</ele>
        <time>2013-08-31T07:38:35Z</time>
      </trkpt>
      <trkpt lat="43.66252" lon="2.36687">
        <ele>582.7</ele>
        <time>2013-08-31T07:38:45Z</time>
      </trkpt>
      <trkpt lat="43.66251" lon="2.36687">
        <ele>582.7</ele>
        <time>2013-08-31T07:38:47Z</time>
      </trkpt>
      <trkpt lat="43.66252" lon="2.36693">
        <ele>582.7</ele>
        <time>2013-08-31T07:38:57Z</time>
      </trkpt>
      <trkpt lat="43.66254" lon="2.36706">
        <ele>583.18</ele>
        <time>2013-08-31T07:39:10Z</time>
      </trkpt>
      <trkpt lat="43.66258" lon="2.36717">
        <ele>584.14</ele>
        <time>2013-08-31T07:39:23Z</time>
      </trkpt>
      <trkpt lat="43.66259" lon="2.36718">
        <ele>582.22</ele>
        <time>2013-08-31T07:39:47Z</time>
      </trkpt>
      <trkpt lat="43.66259" lon="2.36718">
        <ele>584.14</ele>
        <time>2013-08-31T07:39:48Z</time>
      </trkpt>
      <trkpt lat="43.66259" lon="2.36717">
        <ele>582.7</ele>
        <time>2013-08-31T07:39:53Z</time>
      </trkpt>
      <trkpt lat="43.66259" lon="2.36717">
        <ele>584.14</ele>
        <time>2013-08-31T07:39:54Z</time>
      </trkpt>
      <trkpt lat="43.66259" lon="2.36717">
        <ele>586.54</ele>
        <time>2013-08-31T07:39:55Z</time>
      </trkpt>
      <trkpt lat="43.66259" lon="2.36717">
        <ele>584.62</ele>
        <time>2013-08-31T07:39:56Z</time>
      </trkpt>
      <trkpt lat="43.6626" lon="2.36718">
        <ele>583.66</ele>
        <time>2013-08-31T07:40:17Z</time>
      </trkpt>
      <trkpt lat="43.66251" lon="2.36709">
        <ele>582.7</ele>
        <time>2013-08-31T07:40:28Z</time>
      </trkpt>
      <trkpt lat="43.66241" lon="2.36684">
        <ele>582.7</ele>
        <time>2013-08-31T07:40:36Z</time>
      </trkpt>
      <trkpt lat="43.66228" lon="2.36642">
        <ele>582.22</ele>
        <time>2013-08-31T07:40:48Z</time>
      </trkpt>
      <trkpt lat="43.66227" lon="2.36594">
        <ele>582.7</ele>
        <time>2013-08-31T07:40:58Z</time>
      </trkpt>
      <trkpt lat="43.66226" lon="2.36558">
        <ele>582.7</ele>
        <time>2013-08-31T07:41:05Z</time>
      </trkpt>
      <trkpt lat="43.66225" lon="2.36522">
        <ele>583.18</ele>
        <time>2013-08-31T07:41:12Z</time>
      </trkpt>
      <trkpt lat="43.66219" lon="2.3651">
        <ele>583.18</ele>
        <time>2013-08-31T07:41:16Z</time>
      </trkpt>
      <trkpt lat="43.66215" lon="2.36506">
        <ele>583.66</ele>
        <time>2013-08-31T07:41:18Z</time>
      </trkpt>
      <trkpt lat="43.66197" lon="2.36501">
        <ele>582.7</ele>
        <time>2013-08-31T07:41:23Z</time>
      </trkpt>
      <trkpt lat="43.66177" lon="2.36497">
        <ele>585.1</ele>
        <time>2013-08-31T07:41:29Z</time>
      </trkpt>
      <trkpt lat="43.66147" lon="2.36486">
        <ele>588.46</ele>
        <time>2013-08-31T07:41:43Z</time>
      </trkpt>
      <trkpt lat="43.66121" lon="2.36455">
        <ele>587.98</ele>
        <time>2013-08-31T07:41:55Z</time>
      </trkpt>
      <trkpt lat="43.66116" lon="2.36418">
        <ele>589.91</ele>
        <time>2013-08-31T07:42:06Z</time>
      </trkpt>
      <trkpt lat="43.66111" lon="2.36405">
        <ele>591.35</ele>
        <time>2013-08-31T07:42:12Z</time>
      </trkpt>
      <trkpt lat="43.66101" lon="2.36381">
        <ele>594.23</ele>
        <time>2013-08-31T07:42:24Z</time>
      </trkpt>
      <trkpt lat="43.66099" lon="2.36372">
        <ele>594.71</ele>
        <time>2013-08-31T07:42:28Z</time>
      </trkpt>
      <trkpt lat="43.66097" lon="2.3637">
        <ele>594.23</ele>
        <time>2013-08-31T07:42:29Z</time>
      </trkpt>
      <trkpt lat="43.66098" lon="2.36357">
        <ele>594.71</ele>
        <time>2013-08-31T07:42:34Z</time>
      </trkpt>
      <trkpt lat="43.66092" lon="2.36353">
        <ele>595.67</ele>
        <time>2013-08-31T07:42:38Z</time>
      </trkpt>
      <trkpt lat="43.66071" lon="2.36362">
        <ele>597.12</ele>
        <time>2013-08-31T07:42:51Z</time>
      </trkpt>
      <trkpt lat="43.66048" lon="2.36369">
        <ele>598.56</ele>
        <time>2013-08-31T07:43:03Z</time>
      </trkpt>
      <trkpt lat="43.66029" lon="2.36377">
        <ele>601.92</ele>
        <time>2013-08-31T07:43:15Z</time>
      </trkpt>
      <trkpt lat="43.66028" lon="2.36378">
        <ele>601.92</ele>
        <time>2013-08-31T07:43:16Z</time>
      </trkpt>
      <trkpt lat="43.66016" lon="2.36387">
        <ele>603.36</ele>
        <time>2013-08-31T07:43:26Z</time>
      </trkpt>
      <trkpt lat="43.66009" lon="2.36393">
        <ele>602.4</ele>
        <time>2013-08-31T07:43:40Z</time>
      </trkpt>
      <trkpt lat="43.66001" lon="2.3639">
        <ele>602.4</ele>
        <time>2013-08-31T07:44:12Z</time>
      </trkpt>
      <trkpt lat="43.66003" lon="2.36392">
        <ele>602.4</ele>
        <time>2013-08-31T07:44:56Z</time>
      </trkpt>
      <trkpt lat="43.66002" lon="2.36391">
        <ele>601.92</ele>
        <time>2013-08-31T07:45:34Z</time>
      </trkpt>
      <trkpt lat="43.66001" lon="2.36392">
        <ele>602.4</ele>
        <time>2013-08-31T07:46:12Z</time>
      </trkpt>
      <trkpt lat="43.66001" lon="2.36393">
        <ele>602.4</ele>
        <time>2013-08-31T07:46:48Z</time>
      </trkpt>
      <trkpt lat="43.66002" lon="2.36395">
        <ele>603.36</ele>
        <time>2013-08-31T07:47:28Z</time>
      </trkpt>
      <trkpt lat="43.66002" lon="2.36394">
        <ele>602.88</ele>
        <time>2013-08-31T07:48:04Z</time>
      </trkpt>
      <trkpt lat="43.66002" lon="2.36396">
        <ele>602.88</ele>
        <time>2013-08-31T07:48:34Z</time>
      </trkpt>
      <trkpt lat="43.66002" lon="2.36395">
        <ele>603.36</ele>
        <time>2013-08-31T07:49:17Z</time>
      </trkpt>
      <trkpt lat="43.66001" lon="2.36397">
        <ele>603.36</ele>
        <time>2013-08-31T07:49:57Z</time>
      </trkpt>
      <trkpt lat="43.66001" lon="2.36397">
        <ele>603.85</ele>
        <time>2013-08-31T07:50:33Z</time>
      </trkpt>
      <trkpt lat="43.66" lon="2.36394">
        <ele>604.81</ele>
        <time>2013-08-31T07:50:48Z</time>
      </trkpt>
      <trkpt lat="43.66002" lon="2.36395">
        <ele>604.33</ele>
        <time>2013-08-31T07:51:00Z</time>
      </trkpt>
      <trkpt lat="43.66009" lon="2.36409">
        <ele>602.4</ele>
        <time>2013-08-31T07:51:09Z</time>
      </trkpt>
      <trkpt lat="43.66007" lon="2.36411">
        <ele>601.92</ele>
        <time>2013-08-31T07:51:11Z</time>
      </trkpt>
      <trkpt lat="43.65991" lon="2.36419">
        <ele>599.04</ele>
        <time>2013-08-31T07:51:19Z</time>
      </trkpt>
      <trkpt lat="43.65993" lon="2.36423">
        <ele>598.08</ele>
        <time>2013-08-31T07:51:27Z</time>
      </trkpt>
      <trkpt lat="43.65994" lon="2.36427">
        <ele>597.6</ele>
        <time>2013-08-31T07:51:33Z</time>
      </trkpt>
      <trkpt lat="43.65991" lon="2.36446">
        <ele>594.23</ele>
        <time>2013-08-31T07:51:43Z</time>
      </trkpt>
      <trkpt lat="43.65988" lon="2.36452">
        <ele>593.27</ele>
        <time>2013-08-31T07:51:47Z</time>
      </trkpt>
      <trkpt lat="43.65994" lon="2.3646">
        <ele>592.79</ele>
        <time>2013-08-31T07:51:52Z</time>
      </trkpt>
      <trkpt lat="43.6601" lon="2.3647">
        <ele>591.35</ele>
        <time>2013-08-31T07:52:02Z</time>
      </trkpt>
      <trkpt lat="43.6601" lon="2.36472">
        <ele>590.87</ele>
        <time>2013-08-31T07:52:17Z</time>
      </trkpt>
      <trkpt lat="43.6601" lon="2.36472">
        <ele>591.35</ele>
        <time>2013-08-31T07:52:18Z</time>
      </trkpt>
      <trkpt lat="43.66022" lon="2.36491">
        <ele>590.87</ele>
        <time>2013-08-31T07:52:29Z</time>
      </trkpt>
      <trkpt lat="43.66014" lon="2.36502">
        <ele>589.43</ele>
        <time>2013-08-31T07:52:34Z</time>
      </trkpt>
      <trkpt lat="43.65987" lon="2.36518">
        <ele>586.06</ele>
        <time>2013-08-31T07:52:44Z</time>
      </trkpt>
      <trkpt lat="43.65983" lon="2.3652">
        <ele>586.06</ele>
        <time>2013-08-31T07:52:45Z</time>
      </trkpt>
      <trkpt lat="43.65973" lon="2.36525">
        <ele>585.1</ele>
        <time>2013-08-31T07:52:48Z</time>
      </trkpt>
      <trkpt lat="43.65958" lon="2.36534">
        <ele>583.18</ele>
        <time>2013-08-31T07:52:52Z</time>
      </trkpt>
      <trkpt lat="43.65954" lon="2.36536">
        <ele>582.7</ele>
        <time>2013-08-31T07:52:53Z</time>
      </trkpt>
      <trkpt lat="43.65947" lon="2.3654">
        <ele>581.73</ele>
        <time>2013-08-31T07:52:55Z</time>
      </trkpt>
      <trkpt lat="43.65943" lon="2.36542">
        <ele>582.22</ele>
        <time>2013-08-31T07:52:56Z</time>
      </trkpt>
      <trkpt lat="43.65928" lon="2.36547">
        <ele>580.77</ele>
        <time>2013-08-31T07:53:01Z</time>
      </trkpt>
      <trkpt lat="43.65928" lon="2.36548">
        <ele>581.25</ele>
        <time>2013-08-31T07:53:04Z</time>
      </trkpt>
      <trkpt lat="43.6593" lon="2.36548">
        <ele>581.25</ele>
        <time>2013-08-31T07:53:05Z</time>
      </trkpt>
      <trkpt lat="43.65931" lon="2.3655">
        <ele>581.25</ele>
        <time>2013-08-31T07:53:07Z</time>
      </trkpt>
      <trkpt lat="43.65932" lon="2.36552">
        <ele>580.77</ele>
        <time>2013-08-31T07:53:08Z</time>
      </trkpt>
      <trkpt lat="43.65932" lon="2.36556">
        <ele>579.33</ele>
        <time>2013-08-31T07:53:09Z</time>
      </trkpt>
      <trkpt lat="43.65933" lon="2.36559">
        <ele>579.33</ele>
        <time>2013-08-31T07:53:10Z</time>
      </trkpt>
      <trkpt lat="43.65933" lon="2.36562">
        <ele>579.81</ele>
        <time>2013-08-31T07:53:11Z</time>
      </trkpt>
      <trkpt lat="43.65935" lon="2.36564">
        <ele>579.81</ele>
        <time>2013-08-31T07:53:12Z</time>
      </trkpt>
      <trkpt lat="43.65937" lon="2.36567">
        <ele>579.81</ele>
        <time>2013-08-31T07:53:13Z</time>
      </trkpt>
      <trkpt lat="43.6594" lon="2.36577">
        <ele>581.25</ele>
        <time>2013-08-31T07:53:19Z</time>
      </trkpt>
      <trkpt lat="43.65943" lon="2.36582">
        <ele>581.73</ele>
        <time>2013-08-31T07:53:21Z</time>
      </trkpt>
      <trkpt lat="43.65944" lon="2.36591">
        <ele>581.73</ele>
        <time>2013-08-31T07:53:25Z</time>
      </trkpt>
      <trkpt lat="43.65929" lon="2.36593">
        <ele>580.29</ele>
        <time>2013-08-31T07:53:34Z</time>
      </trkpt>
      <trkpt lat="43.65923" lon="2.36597">
        <ele>578.85</ele>
        <time>2013-08-31T07:53:37Z</time>
      </trkpt>
      <trkpt lat="43.65924" lon="2.36624">
        <ele>578.85</ele>
        <time>2013-08-31T07:53:45Z</time>
      </trkpt>
      <trkpt lat="43.65926" lon="2.36631">
        <ele>579.33</ele>
        <time>2013-08-31T07:53:47Z</time>
      </trkpt>
      <trkpt lat="43.65933" lon="2.3664">
        <ele>579.81</ele>
        <time>2013-08-31T07:53:51Z</time>
      </trkpt>
      <trkpt lat="43.65934" lon="2.3665">
        <ele>579.81</ele>
        <time>2013-08-31T07:53:55Z</time>
      </trkpt>
      <trkpt lat="43.65932" lon="2.36673">
        <ele>577.41</ele>
        <time>2013-08-31T07:54:04Z</time>
      </trkpt>
      <trkpt lat="43.65952" lon="2.36696">
        <ele>576.93</ele>
        <time>2013-08-31T07:54:12Z</time>
      </trkpt>
      <trkpt lat="43.65971" lon="2.36725">
        <ele>576.45</ele>
        <time>2013-08-31T07:54:18Z</time>
      </trkpt>
      <trkpt lat="43.65987" lon="2.36752">
        <ele>578.37</ele>
        <time>2013-08-31T07:54:29Z</time>
      </trkpt>
      <trkpt lat="43.66014" lon="2.36782">
        <ele>577.89</ele>
        <time>2013-08-31T07:54:41Z</time>
      </trkpt>
      <trkpt lat="43.66017" lon="2.36791">
        <ele>577.41</ele>
        <time>2013-08-31T07:54:43Z</time>
      </trkpt>
      <trkpt lat="43.66045" lon="2.36823">
        <ele>579.33</ele>
        <time>2013-08-31T07:54:55Z</time>
      </trkpt>
      <trkpt lat="43.66059" lon="2.36839">
        <ele>579.33</ele>
        <time>2013-08-31T07:55:01Z</time>
      </trkpt>
      <trkpt lat="43.66067" lon="2.36853">
        <ele>579.81</ele>
        <time>2013-08-31T07:55:05Z</time>
      </trkpt>
      <trkpt lat="43.66097" lon="2.3688">
        <ele>580.77</ele>
        <time>2013-08-31T07:55:19Z</time>
      </trkpt>
      <trkpt lat="43.6613" lon="2.3691">
        <ele>582.7</ele>
        <time>2013-08-31T07:55:35Z</time>
      </trkpt>
      <trkpt lat="43.66142" lon="2.36918">
        <ele>583.18</ele>
        <time>2013-08-31T07:55:43Z</time>
      </trkpt>
      <trkpt lat="43.66146" lon="2.36947">
        <ele>581.25</ele>
        <time>2013-08-31T07:55:52Z</time>
      </trkpt>
      <trkpt lat="43.66127" lon="2.36974">
        <ele>581.25</ele>
        <time>2013-08-31T07:56:03Z</time>
      </trkpt>
      <trkpt lat="43.66121" lon="2.36971">
        <ele>580.77</ele>
        <time>2013-08-31T07:56:07Z</time>
      </trkpt>
      <trkpt lat="43.66108" lon="2.36945">
        <ele>580.29</ele>
        <time>2013-08-31T07:56:18Z</time>
      </trkpt>
      <trkpt lat="43.66112" lon="2.36936">
        <ele>580.77</ele>
        <time>2013-08-31T07:56:23Z</time>
      </trkpt>
      <trkpt lat="43.66116" lon="2.36928">
        <ele>581.73</ele>
        <time>2013-08-31T07:56:27Z</time>
      </trkpt>
      <trkpt lat="43.6612" lon="2.36924">
        <ele>582.7</ele>
        <time>2013-08-31T07:56:34Z</time>
      </trkpt>
      <trkpt lat="43.66127" lon="2.36914">
        <ele>582.7</ele>
        <time>2013-08-31T07:56:47Z</time>
      </trkpt>
      <trkpt lat="43.66129" lon="2.36914">
        <ele>582.7</ele>
        <time>2013-08-31T07:56:50Z</time>
      </trkpt>
      <trkpt lat="43.66145" lon="2.36911">
        <ele>583.18</ele>
        <time>2013-08-31T07:57:00Z</time>
      </trkpt>
      <trkpt lat="43.66149" lon="2.3691">
        <ele>583.18</ele>
        <time>2013-08-31T07:57:03Z</time>
      </trkpt>
      <trkpt lat="43.66153" lon="2.36901">
        <ele>580.77</ele>
        <time>2013-08-31T07:57:19Z</time>
      </trkpt>
      <trkpt lat="43.66153" lon="2.36901">
        <ele>584.14</ele>
        <time>2013-08-31T07:57:21Z</time>
      </trkpt>
      <trkpt lat="43.66153" lon="2.36901">
        <ele>583.66</ele>
        <time>2013-08-31T07:57:32Z</time>
      </trkpt>
      <trkpt lat="43.66147" lon="2.36918">
        <ele>582.7</ele>
        <time>2013-08-31T07:57:39Z</time>
      </trkpt>
      <trkpt lat="43.66143" lon="2.36954">
        <ele>581.25</ele>
        <time>2013-08-31T07:57:52Z</time>
      </trkpt>
      <trkpt lat="43.66142" lon="2.36959">
        <ele>580.77</ele>
        <time>2013-08-31T07:57:57Z</time>
      </trkpt>
      <trkpt lat="43.66153" lon="2.36968">
        <ele>581.25</ele>
        <time>2013-08-31T07:58:08Z</time>
      </trkpt>
      <trkpt lat="43.66161" lon="2.36974">
        <ele>582.22</ele>
        <time>2013-08-31T07:58:19Z</time>
      </trkpt>
      <trkpt lat="43.66185" lon="2.3699">
        <ele>584.14</ele>
        <time>2013-08-31T07:58:35Z</time>
      </trkpt>
      <trkpt lat="43.66196" lon="2.36995">
        <ele>585.1</ele>
        <time>2013-08-31T07:58:42Z</time>
      </trkpt>
      <trkpt lat="43.66213" lon="2.37003">
        <ele>585.58</ele>
        <time>2013-08-31T07:58:57Z</time>
      </trkpt>
      <trkpt lat="43.66213" lon="2.37004">
        <ele>585.58</ele>
        <time>2013-08-31T07:58:58Z</time>
      </trkpt>
      <trkpt lat="43.66216" lon="2.37018">
        <ele>585.58</ele>
        <time>2013-08-31T07:59:09Z</time>
      </trkpt>
      <trkpt lat="43.66213" lon="2.37034">
        <ele>584.14</ele>
        <time>2013-08-31T07:59:15Z</time>
      </trkpt>
      <trkpt lat="43.66211" lon="2.3705">
        <ele>584.62</ele>
        <time>2013-08-31T07:59:24Z</time>
      </trkpt>
      <trkpt lat="43.66223" lon="2.37079">
        <ele>586.06</ele>
        <time>2013-08-31T07:59:37Z</time>
      </trkpt>
      <trkpt lat="43.66235" lon="2.371">
        <ele>586.06</ele>
        <time>2013-08-31T07:59:49Z</time>
      </trkpt>
      <trkpt lat="43.66245" lon="2.37122">
        <ele>587.5</ele>
        <time>2013-08-31T08:00:02Z</time>
      </trkpt>
      <trkpt lat="43.66249" lon="2.37136">
        <ele>587.98</ele>
        <time>2013-08-31T08:00:12Z</time>
      </trkpt>
      <trkpt lat="43.66248" lon="2.37149">
        <ele>588.95</ele>
        <time>2013-08-31T08:00:21Z</time>
      </trkpt>
      <trkpt lat="43.66252" lon="2.37153">
        <ele>588.95</ele>
        <time>2013-08-31T08:00:25Z</time>
      </trkpt>
      <trkpt lat="43.66267" lon="2.37167">
        <ele>590.39</ele>
        <time>2013-08-31T08:00:38Z</time>
      </trkpt>
      <trkpt lat="43.66267" lon="2.37198">
        <ele>591.35</ele>
        <time>2013-08-31T08:00:50Z</time>
      </trkpt>
      <trkpt lat="43.66265" lon="2.37206">
        <ele>591.83</ele>
        <time>2013-08-31T08:00:53Z</time>
      </trkpt>
      <trkpt lat="43.66265" lon="2.37212">
        <ele>591.83</ele>
        <time>2013-08-31T08:00:56Z</time>
      </trkpt>
      <trkpt lat="43.66258" lon="2.37229">
        <ele>593.27</ele>
        <time>2013-08-31T08:01:07Z</time>
      </trkpt>
      <trkpt lat="43.66249" lon="2.37261">
        <ele>594.23</ele>
        <time>2013-08-31T08:01:20Z</time>
      </trkpt>
      <trkpt lat="43.66245" lon="2.37277">
        <ele>594.71</ele>
        <time>2013-08-31T08:01:31Z</time>
      </trkpt>
      <trkpt lat="43.66245" lon="2.37281">
        <ele>595.67</ele>
        <time>2013-08-31T08:01:33Z</time>
      </trkpt>
      <trkpt lat="43.66234" lon="2.37326">
        <ele>597.12</ele>
        <time>2013-08-31T08:01:48Z</time>
      </trkpt>
      <trkpt lat="43.6623" lon="2.37334">
        <ele>597.12</ele>
        <time>2013-08-31T08:01:52Z</time>
      </trkpt>
      <trkpt lat="43.66225" lon="2.37342">
        <ele>597.6</ele>
        <time>2013-08-31T08:01:56Z</time>
      </trkpt>
      <trkpt lat="43.66224" lon="2.37349">
        <ele>597.6</ele>
        <time>2013-08-31T08:01:59Z</time>
      </trkpt>
      <trkpt lat="43.66215" lon="2.37378">
        <ele>598.56</ele>
        <time>2013-08-31T08:02:08Z</time>
      </trkpt>
      <trkpt lat="43.66209" lon="2.3739">
        <ele>599.52</ele>
        <time>2013-08-31T08:02:14Z</time>
      </trkpt>
      <trkpt lat="43.66195" lon="2.37417">
        <ele>600.48</ele>
        <time>2013-08-31T08:02:29Z</time>
      </trkpt>
      <trkpt lat="43.66183" lon="2.37448">
        <ele>600.48</ele>
        <time>2013-08-31T08:02:42Z</time>
      </trkpt>
      <trkpt lat="43.66163" lon="2.3748">
        <ele>599.04</ele>
        <time>2013-08-31T08:02:53Z</time>
      </trkpt>
      <trkpt lat="43.6616" lon="2.37482">
        <ele>598.56</ele>
        <time>2013-08-31T08:02:54Z</time>
      </trkpt>
      <trkpt lat="43.66137" lon="2.37524">
        <ele>596.64</ele>
        <time>2013-08-31T08:03:04Z</time>
      </trkpt>
      <trkpt lat="43.66131" lon="2.37537">
        <ele>596.64</ele>
        <time>2013-08-31T08:03:07Z</time>
      </trkpt>
      <trkpt lat="43.66126" lon="2.37555">
        <ele>597.12</ele>
        <time>2013-08-31T08:03:12Z</time>
      </trkpt>
      <trkpt lat="43.66127" lon="2.37564">
        <ele>596.15</ele>
        <time>2013-08-31T08:03:15Z</time>
      </trkpt>
      <trkpt lat="43.66114" lon="2.37578">
        <ele>595.19</ele>
        <time>2013-08-31T08:03:18Z</time>
      </trkpt>
      <trkpt lat="43.66099" lon="2.37587">
        <ele>595.19</ele>
        <time>2013-08-31T08:03:22Z</time>
      </trkpt>
      <trkpt lat="43.66093" lon="2.37597">
        <ele>592.79</ele>
        <time>2013-08-31T08:03:27Z</time>
      </trkpt>
      <trkpt lat="43.66093" lon="2.37598">
        <ele>591.83</ele>
        <time>2013-08-31T08:03:28Z</time>
      </trkpt>
      <trkpt lat="43.66092" lon="2.376">
        <ele>589.91</ele>
        <time>2013-08-31T08:03:31Z</time>
      </trkpt>
      <trkpt lat="43.66105" lon="2.37613">
        <ele>589.43</ele>
        <time>2013-08-31T08:03:36Z</time>
      </trkpt>
      <trkpt lat="43.66114" lon="2.37624">
        <ele>588.46</ele>
        <time>2013-08-31T08:03:39Z</time>
      </trkpt>
      <trkpt lat="43.66139" lon="2.3767">
        <ele>584.14</ele>
        <time>2013-08-31T08:03:46Z</time>
      </trkpt>
      <trkpt lat="43.66156" lon="2.37684">
        <ele>584.14</ele>
        <time>2013-08-31T08:03:59Z</time>
      </trkpt>
      <trkpt lat="43.66159" lon="2.37687">
        <ele>584.62</ele>
        <time>2013-08-31T08:04:07Z</time>
      </trkpt>
      <trkpt lat="43.66158" lon="2.3769">
        <ele>585.1</ele>
        <time>2013-08-31T08:04:21Z</time>
      </trkpt>
      <trkpt lat="43.66153" lon="2.37686">
        <ele>587.02</ele>
        <time>2013-08-31T08:04:33Z</time>
      </trkpt>
      <trkpt lat="43.66152" lon="2.37684">
        <ele>587.98</ele>
        <time>2013-08-31T08:04:37Z</time>
      </trkpt>
      <trkpt lat="43.66146" lon="2.37672">
        <ele>589.43</ele>
        <time>2013-08-31T08:04:46Z</time>
      </trkpt>
      <trkpt lat="43.66143" lon="2.3767">
        <ele>590.39</ele>
        <time>2013-08-31T08:04:48Z</time>
      </trkpt>
      <trkpt lat="43.6613" lon="2.37656">
        <ele>590.87</ele>
        <time>2013-08-31T08:04:59Z</time>
      </trkpt>
      <trkpt lat="43.66123" lon="2.37647">
        <ele>590.87</ele>
        <time>2013-08-31T08:05:05Z</time>
      </trkpt>
      <trkpt lat="43.66121" lon="2.37638">
        <ele>593.75</ele>
        <time>2013-08-31T08:05:09Z</time>
      </trkpt>
      <trkpt lat="43.66114" lon="2.37639">
        <ele>594.23</ele>
        <time>2013-08-31T08:05:13Z</time>
      </trkpt>
      <trkpt lat="43.66105" lon="2.37636">
        <ele>595.19</ele>
        <time>2013-08-31T08:05:23Z</time>
      </trkpt>
      <trkpt lat="43.66096" lon="2.3764">
        <ele>594.71</ele>
        <time>2013-08-31T08:05:30Z</time>
      </trkpt>
      <trkpt lat="43.66093" lon="2.37642">
        <ele>595.19</ele>
        <time>2013-08-31T08:05:33Z</time>
      </trkpt>
      <trkpt lat="43.66086" lon="2.37647">
        <ele>594.71</ele>
        <time>2013-08-31T08:05:37Z</time>
      </trkpt>
      <trkpt lat="43.66068" lon="2.37675">
        <ele>594.71</ele>
        <time>2013-08-31T08:05:48Z</time>
      </trkpt>
      <trkpt lat="43.66062" lon="2.37722">
        <ele>594.23</ele>
        <time>2013-08-31T08:05:58Z</time>
      </trkpt>
      <trkpt lat="43.66059" lon="2.37736">
        <ele>593.75</ele>
        <time>2013-08-31T08:06:02Z</time>
      </trkpt>
      <trkpt lat="43.66051" lon="2.37763">
        <ele>593.27</ele>
        <time>2013-08-31T08:06:09Z</time>
      </trkpt>
      <trkpt lat="43.66052" lon="2.37779">
        <ele>593.75</ele>
        <time>2013-08-31T08:06:14Z</time>
      </trkpt>
      <trkpt lat="43.66051" lon="2.37794">
        <ele>593.75</ele>
        <time>2013-08-31T08:06:17Z</time>
      </trkpt>
      <trkpt lat="43.66034" lon="2.37814">
        <ele>594.71</ele>
        <time>2013-08-31T08:06:26Z</time>
      </trkpt>
      <trkpt lat="43.66031" lon="2.3782">
        <ele>595.19</ele>
        <time>2013-08-31T08:06:30Z</time>
      </trkpt>
      <trkpt lat="43.66033" lon="2.37831">
        <ele>595.19</ele>
        <time>2013-08-31T08:06:32Z</time>
      </trkpt>
      <trkpt lat="43.66035" lon="2.37856">
        <ele>595.67</ele>
        <time>2013-08-31T08:06:37Z</time>
      </trkpt>
      <trkpt lat="43.66037" lon="2.37867">
        <ele>595.67</ele>
        <time>2013-08-31T08:06:39Z</time>
      </trkpt>
      <trkpt lat="43.66039" lon="2.37877">
        <ele>596.15</ele>
        <time>2013-08-31T08:06:41Z</time>
      </trkpt>
      <trkpt lat="43.66036" lon="2.3791">
        <ele>597.12</ele>
        <time>2013-08-31T08:06:46Z</time>
      </trkpt>
      <trkpt lat="43.66035" lon="2.37918">
        <ele>597.6</ele>
        <time>2013-08-31T08:06:48Z</time>
      </trkpt>
      <trkpt lat="43.66038" lon="2.3795">
        <ele>598.56</ele>
        <time>2013-08-31T08:06:56Z</time>
      </trkpt>
      <trkpt lat="43.66037" lon="2.37977">
        <ele>599.04</ele>
        <time>2013-08-31T08:07:03Z</time>
      </trkpt>
      <trkpt lat="43.6604" lon="2.37992">
        <ele>598.56</ele>
        <time>2013-08-31T08:07:08Z</time>
      </trkpt>
      <trkpt lat="43.66044" lon="2.38003">
        <ele>598.56</ele>
        <time>2013-08-31T08:07:12Z</time>
      </trkpt>
      <trkpt lat="43.66038" lon="2.38015">
        <ele>598.56</ele>
        <time>2013-08-31T08:07:16Z</time>
      </trkpt>
      <trkpt lat="43.66037" lon="2.38029">
        <ele>598.08</ele>
        <time>2013-08-31T08:07:21Z</time>
      </trkpt>
      <trkpt lat="43.66042" lon="2.38043">
        <ele>597.12</ele>
        <time>2013-08-31T08:07:25Z</time>
      </trkpt>
      <trkpt lat="43.66043" lon="2.38048">
        <ele>597.12</ele>
        <time>2013-08-31T08:07:27Z</time>
      </trkpt>
      <trkpt lat="43.66062" lon="2.3808">
        <ele>597.6</ele>
        <time>2013-08-31T08:07:37Z</time>
      </trkpt>
      <trkpt lat="43.66066" lon="2.381">
        <ele>599.52</ele>
        <time>2013-08-31T08:07:46Z</time>
      </trkpt>
      <trkpt lat="43.66064" lon="2.38109">
        <ele>600.48</ele>
        <time>2013-08-31T08:07:49Z</time>
      </trkpt>
      <trkpt lat="43.66062" lon="2.38113">
        <ele>600.96</ele>
        <time>2013-08-31T08:07:51Z</time>
      </trkpt>
      <trkpt lat="43.66058" lon="2.38139">
        <ele>603.85</ele>
        <time>2013-08-31T08:08:01Z</time>
      </trkpt>
      <trkpt lat="43.66069" lon="2.38166">
        <ele>605.29</ele>
        <time>2013-08-31T08:08:13Z</time>
      </trkpt>
      <trkpt lat="43.66074" lon="2.38176">
        <ele>606.25</ele>
        <time>2013-08-31T08:08:28Z</time>
      </trkpt>
      <trkpt lat="43.66075" lon="2.38181">
        <ele>606.25</ele>
        <time>2013-08-31T08:08:36Z</time>
      </trkpt>
      <trkpt lat="43.66074" lon="2.38186">
        <ele>606.73</ele>
        <time>2013-08-31T08:08:40Z</time>
      </trkpt>
      <trkpt lat="43.66075" lon="2.38191">
        <ele>606.73</ele>
        <time>2013-08-31T08:08:42Z</time>
      </trkpt>
      <trkpt lat="43.66077" lon="2.38198">
        <ele>608.17</ele>
        <time>2013-08-31T08:08:45Z</time>
      </trkpt>
      <trkpt lat="43.66087" lon="2.38211">
        <ele>609.61</ele>
        <time>2013-08-31T08:08:56Z</time>
      </trkpt>
      <trkpt lat="43.66096" lon="2.38226">
        <ele>612.02</ele>
        <time>2013-08-31T08:09:07Z</time>
      </trkpt>
      <trkpt lat="43.66097" lon="2.3823">
        <ele>612.02</ele>
        <time>2013-08-31T08:09:09Z</time>
      </trkpt>
      <trkpt lat="43.66088" lon="2.38244">
        <ele>613.46</ele>
        <time>2013-08-31T08:09:18Z</time>
      </trkpt>
      <trkpt lat="43.66086" lon="2.38251">
        <ele>613.94</ele>
        <time>2013-08-31T08:09:20Z</time>
      </trkpt>
      <trkpt lat="43.66087" lon="2.38278">
        <ele>614.9</ele>
        <time>2013-08-31T08:09:30Z</time>
      </trkpt>
      <trkpt lat="43.66088" lon="2.38287">
        <ele>615.38</ele>
        <time>2013-08-31T08:09:33Z</time>
      </trkpt>
      <trkpt lat="43.66088" lon="2.38291">
        <ele>615.86</ele>
        <time>2013-08-31T08:09:35Z</time>
      </trkpt>
      <trkpt lat="43.66079" lon="2.38322">
        <ele>618.26</ele>
        <time>2013-08-31T08:09:49Z</time>
      </trkpt>
      <trkpt lat="43.66079" lon="2.38325">
        <ele>617.78</ele>
        <time>2013-08-31T08:09:50Z</time>
      </trkpt>
      <trkpt lat="43.6608" lon="2.38336">
        <ele>618.26</ele>
        <time>2013-08-31T08:09:54Z</time>
      </trkpt>
      <trkpt lat="43.66078" lon="2.38358">
        <ele>619.71</ele>
        <time>2013-08-31T08:10:06Z</time>
      </trkpt>
      <trkpt lat="43.66078" lon="2.3836">
        <ele>620.19</ele>
        <time>2013-08-31T08:10:07Z</time>
      </trkpt>
      <trkpt lat="43.66073" lon="2.38378">
        <ele>620.19</ele>
        <time>2013-08-31T08:10:14Z</time>
      </trkpt>
      <trkpt lat="43.66065" lon="2.38413">
        <ele>623.07</ele>
        <time>2013-08-31T08:10:25Z</time>
      </trkpt>
      <trkpt lat="43.66061" lon="2.38421">
        <ele>624.51</ele>
        <time>2013-08-31T08:10:28Z</time>
      </trkpt>
      <trkpt lat="43.6606" lon="2.38434">
        <ele>624.99</ele>
        <time>2013-08-31T08:10:33Z</time>
      </trkpt>
      <trkpt lat="43.6606" lon="2.38443">
        <ele>624.99</ele>
        <time>2013-08-31T08:10:36Z</time>
      </trkpt>
      <trkpt lat="43.66056" lon="2.38448">
        <ele>625.47</ele>
        <time>2013-08-31T08:10:39Z</time>
      </trkpt>
      <trkpt lat="43.66048" lon="2.3846">
        <ele>625.47</ele>
        <time>2013-08-31T08:10:44Z</time>
      </trkpt>
      <trkpt lat="43.66033" lon="2.38476">
        <ele>624.51</ele>
        <time>2013-08-31T08:10:53Z</time>
      </trkpt>
      <trkpt lat="43.66054" lon="2.38518">
        <ele>626.44</ele>
        <time>2013-08-31T08:11:03Z</time>
      </trkpt>
      <trkpt lat="43.66054" lon="2.38521">
        <ele>626.44</ele>
        <time>2013-08-31T08:11:05Z</time>
      </trkpt>
      <trkpt lat="43.66059" lon="2.38531">
        <ele>626.44</ele>
        <time>2013-08-31T08:11:08Z</time>
      </trkpt>
      <trkpt lat="43.66077" lon="2.38556">
        <ele>625.47</ele>
        <time>2013-08-31T08:11:17Z</time>
      </trkpt>
      <trkpt lat="43.66079" lon="2.38559">
        <ele>624.51</ele>
        <time>2013-08-31T08:11:19Z</time>
      </trkpt>
      <trkpt lat="43.66079" lon="2.38564">
        <ele>624.03</ele>
        <time>2013-08-31T08:11:21Z</time>
      </trkpt>
      <trkpt lat="43.66088" lon="2.38601">
        <ele>620.67</ele>
        <time>2013-08-31T08:11:28Z</time>
      </trkpt>
      <trkpt lat="43.66088" lon="2.38602">
        <ele>621.15</ele>
        <time>2013-08-31T08:11:29Z</time>
      </trkpt>
      <trkpt lat="43.66091" lon="2.38607">
        <ele>619.71</ele>
        <time>2013-08-31T08:11:31Z</time>
      </trkpt>
      <trkpt lat="43.66132" lon="2.38633">
        <ele>620.19</ele>
        <time>2013-08-31T08:11:44Z</time>
      </trkpt>
      <trkpt lat="43.66152" lon="2.38638">
        <ele>619.71</ele>
        <time>2013-08-31T08:11:58Z</time>
      </trkpt>
      <trkpt lat="43.66158" lon="2.38645">
        <ele>619.71</ele>
        <time>2013-08-31T08:12:02Z</time>
      </trkpt>
      <trkpt lat="43.66161" lon="2.3865">
        <ele>620.19</ele>
        <time>2013-08-31T08:12:06Z</time>
      </trkpt>
      <trkpt lat="43.66161" lon="2.38653">
        <ele>620.67</ele>
        <time>2013-08-31T08:12:08Z</time>
      </trkpt>
      <trkpt lat="43.66162" lon="2.38669">
        <ele>621.15</ele>
        <time>2013-08-31T08:12:16Z</time>
      </trkpt>
      <trkpt lat="43.66161" lon="2.38677">
        <ele>621.63</ele>
        <time>2013-08-31T08:12:20Z</time>
      </trkpt>
      <trkpt lat="43.66163" lon="2.38686">
        <ele>621.63</ele>
        <time>2013-08-31T08:12:24Z</time>
      </trkpt>
      <trkpt lat="43.66166" lon="2.38694">
        <ele>623.07</ele>
        <time>2013-08-31T08:12:28Z</time>
      </trkpt>
      <trkpt lat="43.66168" lon="2.38706">
        <ele>623.55</ele>
        <time>2013-08-31T08:12:33Z</time>
      </trkpt>
      <trkpt lat="43.66173" lon="2.38717">
        <ele>624.51</ele>
        <time>2013-08-31T08:12:37Z</time>
      </trkpt>
      <trkpt lat="43.66177" lon="2.38728">
        <ele>624.51</ele>
        <time>2013-08-31T08:12:42Z</time>
      </trkpt>
      <trkpt lat="43.6618" lon="2.38756">
        <ele>625.47</ele>
        <time>2013-08-31T08:12:54Z</time>
      </trkpt>
      <trkpt lat="43.66182" lon="2.38765">
        <ele>624.99</ele>
        <time>2013-08-31T08:12:56Z</time>
      </trkpt>
      <trkpt lat="43.66182" lon="2.38772">
        <ele>624.99</ele>
        <time>2013-08-31T08:12:58Z</time>
      </trkpt>
      <trkpt lat="43.66183" lon="2.38794">
        <ele>624.51</ele>
        <time>2013-08-31T08:13:03Z</time>
      </trkpt>
      <trkpt lat="43.66182" lon="2.38819">
        <ele>623.55</ele>
        <time>2013-08-31T08:13:09Z</time>
      </trkpt>
      <trkpt lat="43.66176" lon="2.38833">
        <ele>623.55</ele>
        <time>2013-08-31T08:13:12Z</time>
      </trkpt>
      <trkpt lat="43.66163" lon="2.38882">
        <ele>624.03</ele>
        <time>2013-08-31T08:13:24Z</time>
      </trkpt>
      <trkpt lat="43.66163" lon="2.38884">
        <ele>624.51</ele>
        <time>2013-08-31T08:13:26Z</time>
      </trkpt>
      <trkpt lat="43.66173" lon="2.38908">
        <ele>624.03</ele>
        <time>2013-08-31T08:13:29Z</time>
      </trkpt>
      <trkpt lat="43.66176" lon="2.38918">
        <ele>624.51</ele>
        <time>2013-08-31T08:13:31Z</time>
      </trkpt>
      <trkpt lat="43.66207" lon="2.38954">
        <ele>624.51</ele>
        <time>2013-08-31T08:13:43Z</time>
      </trkpt>
      <trkpt lat="43.6623" lon="2.38976">
        <ele>625.47</ele>
        <time>2013-08-31T08:13:53Z</time>
      </trkpt>
      <trkpt lat="43.66251" lon="2.39003">
        <ele>624.51</ele>
        <time>2013-08-31T08:14:06Z</time>
      </trkpt>
      <trkpt lat="43.66265" lon="2.3904">
        <ele>621.63</ele>
        <time>2013-08-31T08:14:13Z</time>
      </trkpt>
      <trkpt lat="43.6629" lon="2.39069">
        <ele>622.11</ele>
        <time>2013-08-31T08:14:22Z</time>
      </trkpt>
      <trkpt lat="43.66301" lon="2.39072">
        <ele>623.07</ele>
        <time>2013-08-31T08:14:28Z</time>
      </trkpt>
      <trkpt lat="43.66319" lon="2.39065">
        <ele>624.99</ele>
        <time>2013-08-31T08:14:39Z</time>
      </trkpt>
      <trkpt lat="43.66333" lon="2.39053">
        <ele>625.47</ele>
        <time>2013-08-31T08:14:48Z</time>
      </trkpt>
      <trkpt lat="43.66356" lon="2.39027">
        <ele>626.92</ele>
        <time>2013-08-31T08:15:01Z</time>
      </trkpt>
      <trkpt lat="43.66357" lon="2.39025">
        <ele>627.88</ele>
        <time>2013-08-31T08:15:02Z</time>
      </trkpt>
      <trkpt lat="43.66372" lon="2.3902">
        <ele>630.28</ele>
        <time>2013-08-31T08:15:10Z</time>
      </trkpt>
      <trkpt lat="43.66375" lon="2.39019">
        <ele>630.76</ele>
        <time>2013-08-31T08:15:13Z</time>
      </trkpt>
      <trkpt lat="43.66389" lon="2.39013">
        <ele>631.72</ele>
        <time>2013-08-31T08:15:20Z</time>
      </trkpt>
      <trkpt lat="43.66418" lon="2.39011">
        <ele>634.13</ele>
        <time>2013-08-31T08:15:32Z</time>
      </trkpt>
      <trkpt lat="43.66424" lon="2.39044">
        <ele>635.57</ele>
        <time>2013-08-31T08:15:46Z</time>
      </trkpt>
      <trkpt lat="43.66425" lon="2.39051">
        <ele>635.57</ele>
        <time>2013-08-31T08:15:49Z</time>
      </trkpt>
      <trkpt lat="43.66425" lon="2.39071">
        <ele>637.49</ele>
        <time>2013-08-31T08:15:59Z</time>
      </trkpt>
      <trkpt lat="43.66418" lon="2.391">
        <ele>638.45</ele>
        <time>2013-08-31T08:16:12Z</time>
      </trkpt>
      <trkpt lat="43.66417" lon="2.39116">
        <ele>639.41</ele>
        <time>2013-08-31T08:16:20Z</time>
      </trkpt>
      <trkpt lat="43.66413" lon="2.39136">
        <ele>640.86</ele>
        <time>2013-08-31T08:16:28Z</time>
      </trkpt>
      <trkpt lat="43.66412" lon="2.39149">
        <ele>641.82</ele>
        <time>2013-08-31T08:16:35Z</time>
      </trkpt>
      <trkpt lat="43.66406" lon="2.3918">
        <ele>642.78</ele>
        <time>2013-08-31T08:16:48Z</time>
      </trkpt>
      <trkpt lat="43.66406" lon="2.39204">
        <ele>643.74</ele>
        <time>2013-08-31T08:16:59Z</time>
      </trkpt>
      <trkpt lat="43.66405" lon="2.39206">
        <ele>643.74</ele>
        <time>2013-08-31T08:17:00Z</time>
      </trkpt>
      <trkpt lat="43.66402" lon="2.39209">
        <ele>643.74</ele>
        <time>2013-08-31T08:17:02Z</time>
      </trkpt>
      <trkpt lat="43.664" lon="2.39218">
        <ele>644.22</ele>
        <time>2013-08-31T08:17:05Z</time>
      </trkpt>
      <trkpt lat="43.66396" lon="2.3923">
        <ele>644.7</ele>
        <time>2013-08-31T08:17:10Z</time>
      </trkpt>
      <trkpt lat="43.66397" lon="2.39239">
        <ele>645.66</ele>
        <time>2013-08-31T08:17:14Z</time>
      </trkpt>
      <trkpt lat="43.66404" lon="2.39251">
        <ele>646.62</ele>
        <time>2013-08-31T08:17:21Z</time>
      </trkpt>
      <trkpt lat="43.66409" lon="2.39257">
        <ele>647.59</ele>
        <time>2013-08-31T08:17:25Z</time>
      </trkpt>
      <trkpt lat="43.66426" lon="2.39267">
        <ele>650.95</ele>
        <time>2013-08-31T08:17:37Z</time>
      </trkpt>
      <trkpt lat="43.66443" lon="2.3927">
        <ele>653.83</ele>
        <time>2013-08-31T08:17:50Z</time>
      </trkpt>
      <trkpt lat="43.66456" lon="2.39271">
        <ele>654.8</ele>
        <time>2013-08-31T08:17:58Z</time>
      </trkpt>
      <trkpt lat="43.66462" lon="2.39271">
        <ele>655.76</ele>
        <time>2013-08-31T08:18:02Z</time>
      </trkpt>
      <trkpt lat="43.6648" lon="2.39267">
        <ele>658.16</ele>
        <time>2013-08-31T08:18:15Z</time>
      </trkpt>
      <trkpt lat="43.66486" lon="2.3926">
        <ele>659.12</ele>
        <time>2013-08-31T08:18:22Z</time>
      </trkpt>
      <trkpt lat="43.66491" lon="2.39255">
        <ele>655.28</ele>
        <time>2013-08-31T08:18:28Z</time>
      </trkpt>
      <trkpt lat="43.66491" lon="2.39255">
        <ele>662.01</ele>
        <time>2013-08-31T08:18:29Z</time>
      </trkpt>
      <trkpt lat="43.66491" lon="2.39255">
        <ele>658.64</ele>
        <time>2013-08-31T08:18:31Z</time>
      </trkpt>
      <trkpt lat="43.66495" lon="2.39236">
        <ele>657.2</ele>
        <time>2013-08-31T08:18:48Z</time>
      </trkpt>
      <trkpt lat="43.66497" lon="2.39221">
        <ele>656.24</ele>
        <time>2013-08-31T08:18:51Z</time>
      </trkpt>
      <trkpt lat="43.66497" lon="2.39188">
        <ele>653.35</ele>
        <time>2013-08-31T08:18:55Z</time>
      </trkpt>
      <trkpt lat="43.66497" lon="2.39157">
        <ele>649.99</ele>
        <time>2013-08-31T08:18:58Z</time>
      </trkpt>
      <trkpt lat="43.66495" lon="2.39112">
        <ele>645.66</ele>
        <time>2013-08-31T08:19:02Z</time>
      </trkpt>
      <trkpt lat="43.66494" lon="2.39101">
        <ele>645.66</ele>
        <time>2013-08-31T08:19:03Z</time>
      </trkpt>
      <trkpt lat="43.66489" lon="2.39067">
        <ele>641.82</ele>
        <time>2013-08-31T08:19:06Z</time>
      </trkpt>
      <trkpt lat="43.66486" lon="2.39056">
        <ele>641.82</ele>
        <time>2013-08-31T08:19:07Z</time>
      </trkpt>
      <trkpt lat="43.66482" lon="2.39045">
        <ele>640.86</ele>
        <time>2013-08-31T08:19:08Z</time>
      </trkpt>
      <trkpt lat="43.66469" lon="2.39011">
        <ele>638.45</ele>
        <time>2013-08-31T08:19:11Z</time>
      </trkpt>
      <trkpt lat="43.66455" lon="2.38977">
        <ele>637.01</ele>
        <time>2013-08-31T08:19:14Z</time>
      </trkpt>
      <trkpt lat="43.66438" lon="2.38933">
        <ele>635.57</ele>
        <time>2013-08-31T08:19:18Z</time>
      </trkpt>
      <trkpt lat="43.66426" lon="2.389">
        <ele>636.53</ele>
        <time>2013-08-31T08:19:24Z</time>
      </trkpt>
      <trkpt lat="43.66408" lon="2.38854">
        <ele>636.05</ele>
        <time>2013-08-31T08:19:36Z</time>
      </trkpt>
      <trkpt lat="43.66397" lon="2.38837">
        <ele>636.53</ele>
        <time>2013-08-31T08:19:42Z</time>
      </trkpt>
      <trkpt lat="43.66395" lon="2.38831">
        <ele>636.53</ele>
        <time>2013-08-31T08:19:46Z</time>
      </trkpt>
      <trkpt lat="43.66393" lon="2.38831">
        <ele>636.53</ele>
        <time>2013-08-31T08:19:47Z</time>
      </trkpt>
      <trkpt lat="43.66392" lon="2.38831">
        <ele>636.53</ele>
        <time>2013-08-31T08:19:48Z</time>
      </trkpt>
      <trkpt lat="43.66393" lon="2.38837">
        <ele>636.53</ele>
        <time>2013-08-31T08:19:55Z</time>
      </trkpt>
      <trkpt lat="43.66399" lon="2.38834">
        <ele>637.01</ele>
        <time>2013-08-31T08:19:59Z</time>
      </trkpt>
      <trkpt lat="43.66414" lon="2.38832">
        <ele>637.97</ele>
        <time>2013-08-31T08:20:08Z</time>
      </trkpt>
      <trkpt lat="43.66435" lon="2.38811">
        <ele>636.05</ele>
        <time>2013-08-31T08:20:19Z</time>
      </trkpt>
      <trkpt lat="43.66446" lon="2.38792">
        <ele>633.65</ele>
        <time>2013-08-31T08:20:25Z</time>
      </trkpt>
      <trkpt lat="43.66464" lon="2.38786">
        <ele>630.76</ele>
        <time>2013-08-31T08:20:30Z</time>
      </trkpt>
      <trkpt lat="43.66481" lon="2.38786">
        <ele>626.44</ele>
        <time>2013-08-31T08:20:34Z</time>
      </trkpt>
      <trkpt lat="43.66496" lon="2.38782">
        <ele>624.99</ele>
        <time>2013-08-31T08:20:37Z</time>
      </trkpt>
      <trkpt lat="43.66508" lon="2.38779">
        <ele>623.55</ele>
        <time>2013-08-31T08:20:41Z</time>
      </trkpt>
      <trkpt lat="43.66537" lon="2.38797">
        <ele>622.59</ele>
        <time>2013-08-31T08:20:49Z</time>
      </trkpt>
      <trkpt lat="43.66559" lon="2.38793">
        <ele>624.51</ele>
        <time>2013-08-31T08:21:00Z</time>
      </trkpt>
      <trkpt lat="43.66567" lon="2.38795">
        <ele>625.96</ele>
        <time>2013-08-31T08:21:06Z</time>
      </trkpt>
      <trkpt lat="43.66582" lon="2.38807">
        <ele>629.32</ele>
        <time>2013-08-31T08:21:19Z</time>
      </trkpt>
      <trkpt lat="43.66595" lon="2.38814">
        <ele>631.24</ele>
        <time>2013-08-31T08:21:28Z</time>
      </trkpt>
      <trkpt lat="43.66611" lon="2.38823">
        <ele>633.65</ele>
        <time>2013-08-31T08:21:40Z</time>
      </trkpt>
      <trkpt lat="43.66626" lon="2.38832">
        <ele>636.53</ele>
        <time>2013-08-31T08:21:54Z</time>
      </trkpt>
      <trkpt lat="43.66632" lon="2.38838">
        <ele>637.49</ele>
        <time>2013-08-31T08:22:00Z</time>
      </trkpt>
      <trkpt lat="43.6664" lon="2.38859">
        <ele>636.05</ele>
        <time>2013-08-31T08:22:13Z</time>
      </trkpt>
      <trkpt lat="43.66641" lon="2.38862">
        <ele>635.09</ele>
        <time>2013-08-31T08:22:14Z</time>
      </trkpt>
      <trkpt lat="43.66657" lon="2.38886">
        <ele>636.05</ele>
        <time>2013-08-31T08:22:25Z</time>
      </trkpt>
      <trkpt lat="43.66655" lon="2.38896">
        <ele>636.05</ele>
        <time>2013-08-31T08:22:30Z</time>
      </trkpt>
      <trkpt lat="43.66656" lon="2.389">
        <ele>636.53</ele>
        <time>2013-08-31T08:22:32Z</time>
      </trkpt>
      <trkpt lat="43.66664" lon="2.38928">
        <ele>637.97</ele>
        <time>2013-08-31T08:22:44Z</time>
      </trkpt>
      <trkpt lat="43.66664" lon="2.38932">
        <ele>637.97</ele>
        <time>2013-08-31T08:22:45Z</time>
      </trkpt>
      <trkpt lat="43.66664" lon="2.38948">
        <ele>638.45</ele>
        <time>2013-08-31T08:22:50Z</time>
      </trkpt>
      <trkpt lat="43.66669" lon="2.38957">
        <ele>639.89</ele>
        <time>2013-08-31T08:22:54Z</time>
      </trkpt>
      <trkpt lat="43.66677" lon="2.38965">
        <ele>642.3</ele>
        <time>2013-08-31T08:23:02Z</time>
      </trkpt>
      <trkpt lat="43.6668" lon="2.3897">
        <ele>643.26</ele>
        <time>2013-08-31T08:23:07Z</time>
      </trkpt>
      <trkpt lat="43.66692" lon="2.38988">
        <ele>645.66</ele>
        <time>2013-08-31T08:23:20Z</time>
      </trkpt>
      <trkpt lat="43.66701" lon="2.38996">
        <ele>647.59</ele>
        <time>2013-08-31T08:23:30Z</time>
      </trkpt>
      <trkpt lat="43.66706" lon="2.39004">
        <ele>648.07</ele>
        <time>2013-08-31T08:23:36Z</time>
      </trkpt>
      <trkpt lat="43.66716" lon="2.39025">
        <ele>649.99</ele>
        <time>2013-08-31T08:23:51Z</time>
      </trkpt>
      <trkpt lat="43.66717" lon="2.39041">
        <ele>651.43</ele>
        <time>2013-08-31T08:24:02Z</time>
      </trkpt>
      <trkpt lat="43.6673" lon="2.39057">
        <ele>653.35</ele>
        <time>2013-08-31T08:24:14Z</time>
      </trkpt>
      <trkpt lat="43.6674" lon="2.3907">
        <ele>654.31</ele>
        <time>2013-08-31T08:24:24Z</time>
      </trkpt>
      <trkpt lat="43.66747" lon="2.39074">
        <ele>655.76</ele>
        <time>2013-08-31T08:24:32Z</time>
      </trkpt>
      <trkpt lat="43.66751" lon="2.39059">
        <ele>656.24</ele>
        <time>2013-08-31T08:24:47Z</time>
      </trkpt>
      <trkpt lat="43.66754" lon="2.39053">
        <ele>656.72</ele>
        <time>2013-08-31T08:25:04Z</time>
      </trkpt>
      <trkpt lat="43.66757" lon="2.39054">
        <ele>657.68</ele>
        <time>2013-08-31T08:25:16Z</time>
      </trkpt>
      <trkpt lat="43.66758" lon="2.39057">
        <ele>657.68</ele>
        <time>2013-08-31T08:25:20Z</time>
      </trkpt>
      <trkpt lat="43.66764" lon="2.39072">
        <ele>659.12</ele>
        <time>2013-08-31T08:25:30Z</time>
      </trkpt>
      <trkpt lat="43.66772" lon="2.39085">
        <ele>661.04</ele>
        <time>2013-08-31T08:25:44Z</time>
      </trkpt>
      <trkpt lat="43.66773" lon="2.39083">
        <ele>662.01</ele>
        <time>2013-08-31T08:25:53Z</time>
      </trkpt>
      <trkpt lat="43.66771" lon="2.39081">
        <ele>661.52</ele>
        <time>2013-08-31T08:25:55Z</time>
      </trkpt>
      <trkpt lat="43.66771" lon="2.39063">
        <ele>662.49</ele>
        <time>2013-08-31T08:26:05Z</time>
      </trkpt>
      <trkpt lat="43.6678" lon="2.39044">
        <ele>663.93</ele>
        <time>2013-08-31T08:26:14Z</time>
      </trkpt>
      <trkpt lat="43.66788" lon="2.39036">
        <ele>664.89</ele>
        <time>2013-08-31T08:26:19Z</time>
      </trkpt>
      <trkpt lat="43.6679" lon="2.39033">
        <ele>665.85</ele>
        <time>2013-08-31T08:26:21Z</time>
      </trkpt>
      <trkpt lat="43.66799" lon="2.39015">
        <ele>666.81</ele>
        <time>2013-08-31T08:26:28Z</time>
      </trkpt>
      <trkpt lat="43.66816" lon="2.38996">
        <ele>668.73</ele>
        <time>2013-08-31T08:26:41Z</time>
      </trkpt>
      <trkpt lat="43.66822" lon="2.38985">
        <ele>669.22</ele>
        <time>2013-08-31T08:26:47Z</time>
      </trkpt>
      <trkpt lat="43.66831" lon="2.38974">
        <ele>669.22</ele>
        <time>2013-08-31T08:26:58Z</time>
      </trkpt>
      <trkpt lat="43.6684" lon="2.38981">
        <ele>669.7</ele>
        <time>2013-08-31T08:27:08Z</time>
      </trkpt>
      <trkpt lat="43.66844" lon="2.38988">
        <ele>670.66</ele>
        <time>2013-08-31T08:27:19Z</time>
      </trkpt>
      <trkpt lat="43.66844" lon="2.38988">
        <ele>670.66</ele>
        <time>2013-08-31T08:27:21Z</time>
      </trkpt>
      <trkpt lat="43.66843" lon="2.38988">
        <ele>671.14</ele>
        <time>2013-08-31T08:27:23Z</time>
      </trkpt>
      <trkpt lat="43.66843" lon="2.38984">
        <ele>669.7</ele>
        <time>2013-08-31T08:27:25Z</time>
      </trkpt>
      <trkpt lat="43.6683" lon="2.38976">
        <ele>668.25</ele>
        <time>2013-08-31T08:27:33Z</time>
      </trkpt>
      <trkpt lat="43.66829" lon="2.38976">
        <ele>668.25</ele>
        <time>2013-08-31T08:27:35Z</time>
      </trkpt>
      <trkpt lat="43.66816" lon="2.38975">
        <ele>666.81</ele>
        <time>2013-08-31T08:27:42Z</time>
      </trkpt>
      <trkpt lat="43.66818" lon="2.38956">
        <ele>666.33</ele>
        <time>2013-08-31T08:27:52Z</time>
      </trkpt>
      <trkpt lat="43.66819" lon="2.38955">
        <ele>666.33</ele>
        <time>2013-08-31T08:27:54Z</time>
      </trkpt>
      <trkpt lat="43.66824" lon="2.38958">
        <ele>666.81</ele>
        <time>2013-08-31T08:27:58Z</time>
      </trkpt>
      <trkpt lat="43.6683" lon="2.38962">
        <ele>667.29</ele>
        <time>2013-08-31T08:28:04Z</time>
      </trkpt>
      <trkpt lat="43.6684" lon="2.3896">
        <ele>666.81</ele>
        <time>2013-08-31T08:28:11Z</time>
      </trkpt>
      <trkpt lat="43.66845" lon="2.38957">
        <ele>666.33</ele>
        <time>2013-08-31T08:28:14Z</time>
      </trkpt>
      <trkpt lat="43.66849" lon="2.38965">
        <ele>667.77</ele>
        <time>2013-08-31T08:28:22Z</time>
      </trkpt>
      <trkpt lat="43.66844" lon="2.38958">
        <ele>666.81</ele>
        <time>2013-08-31T08:28:31Z</time>
      </trkpt>
      <trkpt lat="43.66831" lon="2.3896">
        <ele>666.81</ele>
        <time>2013-08-31T08:28:43Z</time>
      </trkpt>
      <trkpt lat="43.6683" lon="2.38961">
        <ele>666.81</ele>
        <time>2013-08-31T08:28:58Z</time>
      </trkpt>
      <trkpt lat="43.6683" lon="2.38961">
        <ele>666.81</ele>
        <time>2013-08-31T08:29:06Z</time>
      </trkpt>
      <trkpt lat="43.66829" lon="2.38962">
        <ele>665.85</ele>
        <time>2013-08-31T08:29:25Z</time>
      </trkpt>
      <trkpt lat="43.66828" lon="2.38961">
        <ele>666.33</ele>
        <time>2013-08-31T08:29:54Z</time>
      </trkpt>
      <trkpt lat="43.66827" lon="2.38962">
        <ele>666.33</ele>
        <time>2013-08-31T08:30:27Z</time>
      </trkpt>
      <trkpt lat="43.66827" lon="2.38961">
        <ele>666.81</ele>
        <time>2013-08-31T08:30:59Z</time>
      </trkpt>
      <trkpt lat="43.66829" lon="2.38961">
        <ele>666.33</ele>
        <time>2013-08-31T08:31:36Z</time>
      </trkpt>
      <trkpt lat="43.66828" lon="2.38961">
        <ele>666.33</ele>
        <time>2013-08-31T08:32:09Z</time>
      </trkpt>
      <trkpt lat="43.6683" lon="2.38961">
        <ele>666.33</ele>
        <time>2013-08-31T08:32:45Z</time>
      </trkpt>
      <trkpt lat="43.66831" lon="2.38962">
        <ele>666.81</ele>
        <time>2013-08-31T08:33:21Z</time>
      </trkpt>
      <trkpt lat="43.66831" lon="2.38962">
        <ele>665.85</ele>
        <time>2013-08-31T08:33:55Z</time>
      </trkpt>
      <trkpt lat="43.6683" lon="2.38962">
        <ele>666.81</ele>
        <time>2013-08-31T08:34:12Z</time>
      </trkpt>
      <trkpt lat="43.66829" lon="2.38963">
        <ele>666.81</ele>
        <time>2013-08-31T08:34:40Z</time>
      </trkpt>
      <trkpt lat="43.66826" lon="2.3896">
        <ele>666.33</ele>
        <time>2013-08-31T08:34:59Z</time>
      </trkpt>
      <trkpt lat="43.66819" lon="2.38954">
        <ele>666.33</ele>
        <time>2013-08-31T08:35:04Z</time>
      </trkpt>
      <trkpt lat="43.6681" lon="2.38963">
        <ele>666.33</ele>
        <time>2013-08-31T08:35:12Z</time>
      </trkpt>
      <trkpt lat="43.66809" lon="2.38982">
        <ele>666.33</ele>
        <time>2013-08-31T08:35:23Z</time>
      </trkpt>
      <trkpt lat="43.66812" lon="2.38992">
        <ele>667.77</ele>
        <time>2013-08-31T08:35:28Z</time>
      </trkpt>
      <trkpt lat="43.66817" lon="2.3899">
        <ele>668.25</ele>
        <time>2013-08-31T08:35:33Z</time>
      </trkpt>
      <trkpt lat="43.6682" lon="2.38984">
        <ele>668.25</ele>
        <time>2013-08-31T08:35:36Z</time>
      </trkpt>
      <trkpt lat="43.66828" lon="2.38977">
        <ele>668.25</ele>
        <time>2013-08-31T08:35:42Z</time>
      </trkpt>
      <trkpt lat="43.66831" lon="2.38976">
        <ele>668.25</ele>
        <time>2013-08-31T08:35:44Z</time>
      </trkpt>
      <trkpt lat="43.66836" lon="2.38982">
        <ele>669.22</ele>
        <time>2013-08-31T08:35:48Z</time>
      </trkpt>
      <trkpt lat="43.66851" lon="2.38993">
        <ele>671.14</ele>
        <time>2013-08-31T08:36:00Z</time>
      </trkpt>
      <trkpt lat="43.66853" lon="2.38995">
        <ele>671.14</ele>
        <time>2013-08-31T08:36:17Z</time>
      </trkpt>
      <trkpt lat="43.66854" lon="2.38996">
        <ele>670.66</ele>
        <time>2013-08-31T08:36:30Z</time>
      </trkpt>
      <trkpt lat="43.66855" lon="2.38998">
        <ele>671.14</ele>
        <time>2013-08-31T08:36:36Z</time>
      </trkpt>
      <trkpt lat="43.66856" lon="2.39006">
        <ele>671.14</ele>
        <time>2013-08-31T08:36:42Z</time>
      </trkpt>
      <trkpt lat="43.66861" lon="2.39023">
        <ele>671.62</ele>
        <time>2013-08-31T08:36:54Z</time>
      </trkpt>
      <trkpt lat="43.66865" lon="2.39033">
        <ele>672.58</ele>
        <time>2013-08-31T08:37:07Z</time>
      </trkpt>
      <trkpt lat="43.66867" lon="2.39039">
        <ele>673.06</ele>
        <time>2013-08-31T08:37:17Z</time>
      </trkpt>
      <trkpt lat="43.66871" lon="2.39047">
        <ele>672.58</ele>
        <time>2013-08-31T08:37:23Z</time>
      </trkpt>
      <trkpt lat="43.66872" lon="2.39052">
        <ele>672.58</ele>
        <time>2013-08-31T08:37:26Z</time>
      </trkpt>
      <trkpt lat="43.66877" lon="2.39057">
        <ele>672.58</ele>
        <time>2013-08-31T08:37:30Z</time>
      </trkpt>
      <trkpt lat="43.66881" lon="2.3907">
        <ele>672.1</ele>
        <time>2013-08-31T08:37:35Z</time>
      </trkpt>
      <trkpt lat="43.66882" lon="2.39076">
        <ele>672.1</ele>
        <time>2013-08-31T08:37:37Z</time>
      </trkpt>
      <trkpt lat="43.66883" lon="2.39082">
        <ele>671.62</ele>
        <time>2013-08-31T08:37:41Z</time>
      </trkpt>
      <trkpt lat="43.66882" lon="2.39102">
        <ele>672.1</ele>
        <time>2013-08-31T08:37:49Z</time>
      </trkpt>
      <trkpt lat="43.66884" lon="2.39108">
        <ele>671.62</ele>
        <time>2013-08-31T08:37:52Z</time>
      </trkpt>
      <trkpt lat="43.66882" lon="2.39125">
        <ele>672.1</ele>
        <time>2013-08-31T08:38:01Z</time>
      </trkpt>
      <trkpt lat="43.66887" lon="2.39129">
        <ele>670.66</ele>
        <time>2013-08-31T08:38:09Z</time>
      </trkpt>
      <trkpt lat="43.66898" lon="2.39138">
        <ele>668.73</ele>
        <time>2013-08-31T08:38:19Z</time>
      </trkpt>
      <trkpt lat="43.66902" lon="2.39144">
        <ele>667.77</ele>
        <time>2013-08-31T08:38:21Z</time>
      </trkpt>
      <trkpt lat="43.6692" lon="2.3917">
        <ele>668.25</ele>
        <time>2013-08-31T08:38:32Z</time>
      </trkpt>
      <trkpt lat="43.66922" lon="2.3917">
        <ele>668.25</ele>
        <time>2013-08-31T08:38:34Z</time>
      </trkpt>
      <trkpt lat="43.66927" lon="2.39178">
        <ele>669.7</ele>
        <time>2013-08-31T08:38:47Z</time>
      </trkpt>
      <trkpt lat="43.66926" lon="2.3918">
        <ele>669.22</ele>
        <time>2013-08-31T08:39:05Z</time>
      </trkpt>
      <trkpt lat="43.66925" lon="2.3918">
        <ele>669.22</ele>
        <time>2013-08-31T08:39:16Z</time>
      </trkpt>
      <trkpt lat="43.66921" lon="2.39196">
        <ele>670.18</ele>
        <time>2013-08-31T08:39:26Z</time>
      </trkpt>
      <trkpt lat="43.66921" lon="2.39197">
        <ele>670.18</ele>
        <time>2013-08-31T08:39:27Z</time>
      </trkpt>
      <trkpt lat="43.66917" lon="2.39205">
        <ele>670.18</ele>
        <time>2013-08-31T08:39:31Z</time>
      </trkpt>
      <trkpt lat="43.66914" lon="2.39213">
        <ele>670.66</ele>
        <time>2013-08-31T08:39:35Z</time>
      </trkpt>
      <trkpt lat="43.6691" lon="2.39235">
        <ele>670.66</ele>
        <time>2013-08-31T08:39:46Z</time>
      </trkpt>
      <trkpt lat="43.66908" lon="2.39241">
        <ele>670.66</ele>
        <time>2013-08-31T08:40:00Z</time>
      </trkpt>
      <trkpt lat="43.66908" lon="2.39242">
        <ele>670.66</ele>
        <time>2013-08-31T08:40:18Z</time>
      </trkpt>
      <trkpt lat="43.6691" lon="2.39241">
        <ele>672.1</ele>
        <time>2013-08-31T08:40:29Z</time>
      </trkpt>
      <trkpt lat="43.66913" lon="2.39243">
        <ele>672.1</ele>
        <time>2013-08-31T08:40:41Z</time>
      </trkpt>
      <trkpt lat="43.66913" lon="2.39243">
        <ele>672.1</ele>
        <time>2013-08-31T08:40:45Z</time>
      </trkpt>
      <trkpt lat="43.66899" lon="2.39246">
        <ele>670.66</ele>
        <time>2013-08-31T08:40:53Z</time>
      </trkpt>
      <trkpt lat="43.66895" lon="2.39245">
        <ele>669.7</ele>
        <time>2013-08-31T08:40:59Z</time>
      </trkpt>
      <trkpt lat="43.66883" lon="2.39255">
        <ele>670.18</ele>
        <time>2013-08-31T08:41:10Z</time>
      </trkpt>
      <trkpt lat="43.66883" lon="2.39255">
        <ele>669.7</ele>
        <time>2013-08-31T08:41:11Z</time>
      </trkpt>
      <trkpt lat="43.66889" lon="2.39265">
        <ele>669.22</ele>
        <time>2013-08-31T08:41:17Z</time>
      </trkpt>
      <trkpt lat="43.66893" lon="2.39278">
        <ele>668.73</ele>
        <time>2013-08-31T08:41:22Z</time>
      </trkpt>
      <trkpt lat="43.66893" lon="2.39303">
        <ele>665.37</ele>
        <time>2013-08-31T08:41:30Z</time>
      </trkpt>
      <trkpt lat="43.66894" lon="2.39311">
        <ele>664.41</ele>
        <time>2013-08-31T08:41:33Z</time>
      </trkpt>
      <trkpt lat="43.66895" lon="2.39319">
        <ele>662.01</ele>
        <time>2013-08-31T08:41:37Z</time>
      </trkpt>
      <trkpt lat="43.66896" lon="2.39321">
        <ele>661.52</ele>
        <time>2013-08-31T08:41:39Z</time>
      </trkpt>
      <trkpt lat="43.66901" lon="2.39329">
        <ele>660.08</ele>
        <time>2013-08-31T08:41:43Z</time>
      </trkpt>
      <trkpt lat="43.66903" lon="2.39347">
        <ele>656.72</ele>
        <time>2013-08-31T08:41:49Z</time>
      </trkpt>
      <trkpt lat="43.66902" lon="2.39351">
        <ele>656.24</ele>
        <time>2013-08-31T08:41:50Z</time>
      </trkpt>
      <trkpt lat="43.669" lon="2.3936">
        <ele>655.28</ele>
        <time>2013-08-31T08:41:52Z</time>
      </trkpt>
      <trkpt lat="43.669" lon="2.39365">
        <ele>654.8</ele>
        <time>2013-08-31T08:41:53Z</time>
      </trkpt>
      <trkpt lat="43.66903" lon="2.39382">
        <ele>652.87</ele>
        <time>2013-08-31T08:41:57Z</time>
      </trkpt>
      <trkpt lat="43.66905" lon="2.39401">
        <ele>652.87</ele>
        <time>2013-08-31T08:42:00Z</time>
      </trkpt>
      <trkpt lat="43.66928" lon="2.39421">
        <ele>650.47</ele>
        <time>2013-08-31T08:42:08Z</time>
      </trkpt>
      <trkpt lat="43.66945" lon="2.3944">
        <ele>649.99</ele>
        <time>2013-08-31T08:42:16Z</time>
      </trkpt>
      <trkpt lat="43.6696" lon="2.39443">
        <ele>650.47</ele>
        <time>2013-08-31T08:42:27Z</time>
      </trkpt>
      <trkpt lat="43.66966" lon="2.3945">
        <ele>650.47</ele>
        <time>2013-08-31T08:42:40Z</time>
      </trkpt>
      <trkpt lat="43.66968" lon="2.39452">
        <ele>650.47</ele>
        <time>2013-08-31T08:43:16Z</time>
      </trkpt>
      <trkpt lat="43.66967" lon="2.39452">
        <ele>650.95</ele>
        <time>2013-08-31T08:43:55Z</time>
      </trkpt>
      <trkpt lat="43.66967" lon="2.39456">
        <ele>650.47</ele>
        <time>2013-08-31T08:44:05Z</time>
      </trkpt>
      <trkpt lat="43.66964" lon="2.39463">
        <ele>651.43</ele>
        <time>2013-08-31T08:44:10Z</time>
      </trkpt>
      <trkpt lat="43.66963" lon="2.39469">
        <ele>651.91</ele>
        <time>2013-08-31T08:44:13Z</time>
      </trkpt>
      <trkpt lat="43.66966" lon="2.39497">
        <ele>651.43</ele>
        <time>2013-08-31T08:44:23Z</time>
      </trkpt>
      <trkpt lat="43.66964" lon="2.39512">
        <ele>652.39</ele>
        <time>2013-08-31T08:44:28Z</time>
      </trkpt>
      <trkpt lat="43.66958" lon="2.39518">
        <ele>653.35</ele>
        <time>2013-08-31T08:44:34Z</time>
      </trkpt>
      <trkpt lat="43.66953" lon="2.39529">
        <ele>655.28</ele>
        <time>2013-08-31T08:44:40Z</time>
      </trkpt>
      <trkpt lat="43.66942" lon="2.39545">
        <ele>656.72</ele>
        <time>2013-08-31T08:44:51Z</time>
      </trkpt>
      <trkpt lat="43.66941" lon="2.39548">
        <ele>657.2</ele>
        <time>2013-08-31T08:44:53Z</time>
      </trkpt>
      <trkpt lat="43.6693" lon="2.39576">
        <ele>658.16</ele>
        <time>2013-08-31T08:45:04Z</time>
      </trkpt>
      <trkpt lat="43.66924" lon="2.39582">
        <ele>659.12</ele>
        <time>2013-08-31T08:45:10Z</time>
      </trkpt>
      <trkpt lat="43.66906" lon="2.39594">
        <ele>661.04</ele>
        <time>2013-08-31T08:45:20Z</time>
      </trkpt>
      <trkpt lat="43.66901" lon="2.39609">
        <ele>660.56</ele>
        <time>2013-08-31T08:45:27Z</time>
      </trkpt>
      <trkpt lat="43.66897" lon="2.39617">
        <ele>661.04</ele>
        <time>2013-08-31T08:45:31Z</time>
      </trkpt>
      <trkpt lat="43.66889" lon="2.39622">
        <ele>661.52</ele>
        <time>2013-08-31T08:45:35Z</time>
      </trkpt>
      <trkpt lat="43.66871" lon="2.39625">
        <ele>661.52</ele>
        <time>2013-08-31T08:45:47Z</time>
      </trkpt>
      <trkpt lat="43.66866" lon="2.39621">
        <ele>661.04</ele>
        <time>2013-08-31T08:45:50Z</time>
      </trkpt>
      <trkpt lat="43.66851" lon="2.39612">
        <ele>659.6</ele>
        <time>2013-08-31T08:45:56Z</time>
      </trkpt>
      <trkpt lat="43.66849" lon="2.39607">
        <ele>658.64</ele>
        <time>2013-08-31T08:45:58Z</time>
      </trkpt>
      <trkpt lat="43.66849" lon="2.39595">
        <ele>657.2</ele>
        <time>2013-08-31T08:46:02Z</time>
      </trkpt>
      <trkpt lat="43.66846" lon="2.39588">
        <ele>656.24</ele>
        <time>2013-08-31T08:46:04Z</time>
      </trkpt>
      <trkpt lat="43.66841" lon="2.39571">
        <ele>656.72</ele>
        <time>2013-08-31T08:46:09Z</time>
      </trkpt>
      <trkpt lat="43.66807" lon="2.39549">
        <ele>658.16</ele>
        <time>2013-08-31T08:46:19Z</time>
      </trkpt>
      <trkpt lat="43.66804" lon="2.39551">
        <ele>658.16</ele>
        <time>2013-08-31T08:46:21Z</time>
      </trkpt>
      <trkpt lat="43.66782" lon="2.39555">
        <ele>659.12</ele>
        <time>2013-08-31T08:46:30Z</time>
      </trkpt>
      <trkpt lat="43.66769" lon="2.39559">
        <ele>658.64</ele>
        <time>2013-08-31T08:46:35Z</time>
      </trkpt>
      <trkpt lat="43.66757" lon="2.39562">
        <ele>657.2</ele>
        <time>2013-08-31T08:46:40Z</time>
      </trkpt>
      <trkpt lat="43.66732" lon="2.39561">
        <ele>652.87</ele>
        <time>2013-08-31T08:46:48Z</time>
      </trkpt>
      <trkpt lat="43.66713" lon="2.39542">
        <ele>649.51</ele>
        <time>2013-08-31T08:46:54Z</time>
      </trkpt>
      <trkpt lat="43.66712" lon="2.39539">
        <ele>649.03</ele>
        <time>2013-08-31T08:46:55Z</time>
      </trkpt>
      <trkpt lat="43.66711" lon="2.39534">
        <ele>648.55</ele>
        <time>2013-08-31T08:46:56Z</time>
      </trkpt>
      <trkpt lat="43.66708" lon="2.39531">
        <ele>647.59</ele>
        <time>2013-08-31T08:46:57Z</time>
      </trkpt>
      <trkpt lat="43.66705" lon="2.39527">
        <ele>647.1</ele>
        <time>2013-08-31T08:46:58Z</time>
      </trkpt>
      <trkpt lat="43.66699" lon="2.39518">
        <ele>646.14</ele>
        <time>2013-08-31T08:47:00Z</time>
      </trkpt>
      <trkpt lat="43.66678" lon="2.39492">
        <ele>644.7</ele>
        <time>2013-08-31T08:47:09Z</time>
      </trkpt>
      <trkpt lat="43.66676" lon="2.39491">
        <ele>644.7</ele>
        <time>2013-08-31T08:47:10Z</time>
      </trkpt>
      <trkpt lat="43.66673" lon="2.3949">
        <ele>644.22</ele>
        <time>2013-08-31T08:47:11Z</time>
      </trkpt>
      <trkpt lat="43.6667" lon="2.39488">
        <ele>644.7</ele>
        <time>2013-08-31T08:47:12Z</time>
      </trkpt>
      <trkpt lat="43.66667" lon="2.39486">
        <ele>645.18</ele>
        <time>2013-08-31T08:47:13Z</time>
      </trkpt>
      <trkpt lat="43.66651" lon="2.39471">
        <ele>645.18</ele>
        <time>2013-08-31T08:47:19Z</time>
      </trkpt>
      <trkpt lat="43.66648" lon="2.3946">
        <ele>646.14</ele>
        <time>2013-08-31T08:47:23Z</time>
      </trkpt>
      <trkpt lat="43.66634" lon="2.39442">
        <ele>648.07</ele>
        <time>2013-08-31T08:47:35Z</time>
      </trkpt>
      <trkpt lat="43.66627" lon="2.39443">
        <ele>648.55</ele>
        <time>2013-08-31T08:47:39Z</time>
      </trkpt>
      <trkpt lat="43.66616" lon="2.39437">
        <ele>648.55</ele>
        <time>2013-08-31T08:47:44Z</time>
      </trkpt>
      <trkpt lat="43.66604" lon="2.39443">
        <ele>646.14</ele>
        <time>2013-08-31T08:47:48Z</time>
      </trkpt>
      <trkpt lat="43.66587" lon="2.3946">
        <ele>643.26</ele>
        <time>2013-08-31T08:47:52Z</time>
      </trkpt>
      <trkpt lat="43.66575" lon="2.39474">
        <ele>642.78</ele>
        <time>2013-08-31T08:47:55Z</time>
      </trkpt>
      <trkpt lat="43.66572" lon="2.39479">
        <ele>642.78</ele>
        <time>2013-08-31T08:47:56Z</time>
      </trkpt>
      <trkpt lat="43.66569" lon="2.39485">
        <ele>643.26</ele>
        <time>2013-08-31T08:47:57Z</time>
      </trkpt>
      <trkpt lat="43.66554" lon="2.39522">
        <ele>644.7</ele>
        <time>2013-08-31T08:48:07Z</time>
      </trkpt>
      <trkpt lat="43.66538" lon="2.39548">
        <ele>644.7</ele>
        <time>2013-08-31T08:48:15Z</time>
      </trkpt>
      <trkpt lat="43.66536" lon="2.3955">
        <ele>644.7</ele>
        <time>2013-08-31T08:48:16Z</time>
      </trkpt>
      <trkpt lat="43.66534" lon="2.39552">
        <ele>644.22</ele>
        <time>2013-08-31T08:48:17Z</time>
      </trkpt>
      <trkpt lat="43.66532" lon="2.39553">
        <ele>644.22</ele>
        <time>2013-08-31T08:48:18Z</time>
      </trkpt>
      <trkpt lat="43.6653" lon="2.39554">
        <ele>644.22</ele>
        <time>2013-08-31T08:48:19Z</time>
      </trkpt>
      <trkpt lat="43.66527" lon="2.39557">
        <ele>643.74</ele>
        <time>2013-08-31T08:48:20Z</time>
      </trkpt>
      <trkpt lat="43.66524" lon="2.39559">
        <ele>644.22</ele>
        <time>2013-08-31T08:48:21Z</time>
      </trkpt>
      <trkpt lat="43.66511" lon="2.39575">
        <ele>644.7</ele>
        <time>2013-08-31T08:48:27Z</time>
      </trkpt>
      <trkpt lat="43.66509" lon="2.39576">
        <ele>644.7</ele>
        <time>2013-08-31T08:48:28Z</time>
      </trkpt>
      <trkpt lat="43.66504" lon="2.39574">
        <ele>645.18</ele>
        <time>2013-08-31T08:48:32Z</time>
      </trkpt>
      <trkpt lat="43.66511" lon="2.39556">
        <ele>646.62</ele>
        <time>2013-08-31T08:48:44Z</time>
      </trkpt>
      <trkpt lat="43.66517" lon="2.39548">
        <ele>647.59</ele>
        <time>2013-08-31T08:48:49Z</time>
      </trkpt>
      <trkpt lat="43.66521" lon="2.39543">
        <ele>648.55</ele>
        <time>2013-08-31T08:48:52Z</time>
      </trkpt>
      <trkpt lat="43.66527" lon="2.3952">
        <ele>649.51</ele>
        <time>2013-08-31T08:49:02Z</time>
      </trkpt>
      <trkpt lat="43.66526" lon="2.39505">
        <ele>650.47</ele>
        <time>2013-08-31T08:49:09Z</time>
      </trkpt>
      <trkpt lat="43.66525" lon="2.39492">
        <ele>651.43</ele>
        <time>2013-08-31T08:49:13Z</time>
      </trkpt>
      <trkpt lat="43.66524" lon="2.39448">
        <ele>653.35</ele>
        <time>2013-08-31T08:49:27Z</time>
      </trkpt>
      <trkpt lat="43.66523" lon="2.39411">
        <ele>655.76</ele>
        <time>2013-08-31T08:49:40Z</time>
      </trkpt>
      <trkpt lat="43.6652" lon="2.39381">
        <ele>658.16</ele>
        <time>2013-08-31T08:49:51Z</time>
      </trkpt>
      <trkpt lat="43.66519" lon="2.39358">
        <ele>659.12</ele>
        <time>2013-08-31T08:50:00Z</time>
      </trkpt>
      <trkpt lat="43.66518" lon="2.39352">
        <ele>660.08</ele>
        <time>2013-08-31T08:50:03Z</time>
      </trkpt>
      <trkpt lat="43.66504" lon="2.39355">
        <ele>661.04</ele>
        <time>2013-08-31T08:50:13Z</time>
      </trkpt>
      <trkpt lat="43.66482" lon="2.39395">
        <ele>661.52</ele>
        <time>2013-08-31T08:50:28Z</time>
      </trkpt>
      <trkpt lat="43.66457" lon="2.3941">
        <ele>662.01</ele>
        <time>2013-08-31T08:50:39Z</time>
      </trkpt>
      <trkpt lat="43.66444" lon="2.39438">
        <ele>662.49</ele>
        <time>2013-08-31T08:50:49Z</time>
      </trkpt>
      <trkpt lat="43.6644" lon="2.39467">
        <ele>664.41</ele>
        <time>2013-08-31T08:50:59Z</time>
      </trkpt>
      <trkpt lat="43.66435" lon="2.39485">
        <ele>664.89</ele>
        <time>2013-08-31T08:51:05Z</time>
      </trkpt>
      <trkpt lat="43.66436" lon="2.39494">
        <ele>665.37</ele>
        <time>2013-08-31T08:51:09Z</time>
      </trkpt>
      <trkpt lat="43.66432" lon="2.3951">
        <ele>666.33</ele>
        <time>2013-08-31T08:51:15Z</time>
      </trkpt>
      <trkpt lat="43.66422" lon="2.39538">
        <ele>667.77</ele>
        <time>2013-08-31T08:51:26Z</time>
      </trkpt>
      <trkpt lat="43.66403" lon="2.39567">
        <ele>667.77</ele>
        <time>2013-08-31T08:51:37Z</time>
      </trkpt>
      <trkpt lat="43.66377" lon="2.396">
        <ele>667.29</ele>
        <time>2013-08-31T08:51:47Z</time>
      </trkpt>
      <trkpt lat="43.6636" lon="2.39635">
        <ele>666.33</ele>
        <time>2013-08-31T08:51:56Z</time>
      </trkpt>
      <trkpt lat="43.66351" lon="2.39676">
        <ele>666.33</ele>
        <time>2013-08-31T08:52:05Z</time>
      </trkpt>
      <trkpt lat="43.66353" lon="2.39719">
        <ele>664.41</ele>
        <time>2013-08-31T08:52:16Z</time>
      </trkpt>
      <trkpt lat="43.66351" lon="2.39736">
        <ele>664.89</ele>
        <time>2013-08-31T08:52:20Z</time>
      </trkpt>
      <trkpt lat="43.66349" lon="2.39752">
        <ele>664.89</ele>
        <time>2013-08-31T08:52:24Z</time>
      </trkpt>
      <trkpt lat="43.66344" lon="2.39782">
        <ele>665.85</ele>
        <time>2013-08-31T08:52:34Z</time>
      </trkpt>
      <trkpt lat="43.66335" lon="2.39812">
        <ele>666.33</ele>
        <time>2013-08-31T08:52:41Z</time>
      </trkpt>
      <trkpt lat="43.66333" lon="2.39822">
        <ele>667.29</ele>
        <time>2013-08-31T08:52:45Z</time>
      </trkpt>
      <trkpt lat="43.66332" lon="2.39828">
        <ele>666.81</ele>
        <time>2013-08-31T08:52:47Z</time>
      </trkpt>
      <trkpt lat="43.66328" lon="2.39842">
        <ele>668.25</ele>
        <time>2013-08-31T08:52:51Z</time>
      </trkpt>
      <trkpt lat="43.66323" lon="2.39865">
        <ele>668.73</ele>
        <time>2013-08-31T08:52:58Z</time>
      </trkpt>
      <trkpt lat="43.6631" lon="2.39904">
        <ele>668.73</ele>
        <time>2013-08-31T08:53:11Z</time>
      </trkpt>
      <trkpt lat="43.66304" lon="2.39925">
        <ele>668.73</ele>
        <time>2013-08-31T08:53:19Z</time>
      </trkpt>
      <trkpt lat="43.66297" lon="2.39954">
        <ele>669.22</ele>
        <time>2013-08-31T08:53:27Z</time>
      </trkpt>
      <trkpt lat="43.66291" lon="2.39974">
        <ele>669.7</ele>
        <time>2013-08-31T08:53:32Z</time>
      </trkpt>
      <trkpt lat="43.66279" lon="2.40014">
        <ele>671.14</ele>
        <time>2013-08-31T08:53:45Z</time>
      </trkpt>
      <trkpt lat="43.66267" lon="2.40053">
        <ele>671.62</ele>
        <time>2013-08-31T08:53:56Z</time>
      </trkpt>
      <trkpt lat="43.66252" lon="2.40086">
        <ele>671.62</ele>
        <time>2013-08-31T08:54:06Z</time>
      </trkpt>
      <trkpt lat="43.66233" lon="2.4012">
        <ele>672.1</ele>
        <time>2013-08-31T08:54:17Z</time>
      </trkpt>
      <trkpt lat="43.66227" lon="2.40137">
        <ele>672.58</ele>
        <time>2013-08-31T08:54:22Z</time>
      </trkpt>
      <trkpt lat="43.66226" lon="2.4015">
        <ele>672.58</ele>
        <time>2013-08-31T08:54:27Z</time>
      </trkpt>
      <trkpt lat="43.66223" lon="2.40169">
        <ele>672.58</ele>
        <time>2013-08-31T08:54:33Z</time>
      </trkpt>
      <trkpt lat="43.66208" lon="2.40186">
        <ele>673.06</ele>
        <time>2013-08-31T08:54:43Z</time>
      </trkpt>
      <trkpt lat="43.66185" lon="2.40209">
        <ele>673.54</ele>
        <time>2013-08-31T08:54:55Z</time>
      </trkpt>
      <trkpt lat="43.66172" lon="2.40222">
        <ele>674.02</ele>
        <time>2013-08-31T08:55:02Z</time>
      </trkpt>
      <trkpt lat="43.6616" lon="2.40235">
        <ele>674.5</ele>
        <time>2013-08-31T08:55:08Z</time>
      </trkpt>
      <trkpt lat="43.6613" lon="2.40251">
        <ele>675.46</ele>
        <time>2013-08-31T08:55:21Z</time>
      </trkpt>
      <trkpt lat="43.66108" lon="2.40268">
        <ele>676.91</ele>
        <time>2013-08-31T08:55:33Z</time>
      </trkpt>
      <trkpt lat="43.66089" lon="2.40279">
        <ele>677.87</ele>
        <time>2013-08-31T08:55:42Z</time>
      </trkpt>
      <trkpt lat="43.66065" lon="2.40291">
        <ele>676.42</ele>
        <time>2013-08-31T08:55:52Z</time>
      </trkpt>
      <trkpt lat="43.66053" lon="2.40291">
        <ele>676.42</ele>
        <time>2013-08-31T08:56:03Z</time>
      </trkpt>
      <trkpt lat="43.66051" lon="2.40291">
        <ele>675.94</ele>
        <time>2013-08-31T08:56:04Z</time>
      </trkpt>
      <trkpt lat="43.66046" lon="2.4029">
        <ele>675.94</ele>
        <time>2013-08-31T08:56:07Z</time>
      </trkpt>
      <trkpt lat="43.6604" lon="2.40294">
        <ele>675.46</ele>
        <time>2013-08-31T08:56:12Z</time>
      </trkpt>
      <trkpt lat="43.66035" lon="2.40297">
        <ele>675.46</ele>
        <time>2013-08-31T08:56:16Z</time>
      </trkpt>
      <trkpt lat="43.66026" lon="2.40318">
        <ele>675.94</ele>
        <time>2013-08-31T08:56:24Z</time>
      </trkpt>
      <trkpt lat="43.66014" lon="2.40336">
        <ele>676.42</ele>
        <time>2013-08-31T08:56:31Z</time>
      </trkpt>
      <trkpt lat="43.65993" lon="2.40361">
        <ele>676.91</ele>
        <time>2013-08-31T08:56:42Z</time>
      </trkpt>
      <trkpt lat="43.65977" lon="2.40387">
        <ele>677.87</ele>
        <time>2013-08-31T08:56:51Z</time>
      </trkpt>
      <trkpt lat="43.65955" lon="2.40421">
        <ele>677.39</ele>
        <time>2013-08-31T08:57:02Z</time>
      </trkpt>
      <trkpt lat="43.65953" lon="2.40425">
        <ele>676.91</ele>
        <time>2013-08-31T08:57:03Z</time>
      </trkpt>
      <trkpt lat="43.65944" lon="2.40441">
        <ele>676.91</ele>
        <time>2013-08-31T08:57:07Z</time>
      </trkpt>
      <trkpt lat="43.65939" lon="2.40454">
        <ele>676.91</ele>
        <time>2013-08-31T08:57:10Z</time>
      </trkpt>
      <trkpt lat="43.65925" lon="2.40483">
        <ele>676.91</ele>
        <time>2013-08-31T08:57:20Z</time>
      </trkpt>
      <trkpt lat="43.65922" lon="2.40487">
        <ele>676.91</ele>
        <time>2013-08-31T08:57:22Z</time>
      </trkpt>
      <trkpt lat="43.65889" lon="2.40505">
        <ele>674.5</ele>
        <time>2013-08-31T08:57:35Z</time>
      </trkpt>
      <trkpt lat="43.65862" lon="2.40501">
        <ele>674.02</ele>
        <time>2013-08-31T08:57:44Z</time>
      </trkpt>
      <trkpt lat="43.65832" lon="2.40491">
        <ele>673.06</ele>
        <time>2013-08-31T08:57:55Z</time>
      </trkpt>
      <trkpt lat="43.65806" lon="2.40467">
        <ele>670.18</ele>
        <time>2013-08-31T08:58:04Z</time>
      </trkpt>
      <trkpt lat="43.65802" lon="2.40462">
        <ele>670.18</ele>
        <time>2013-08-31T08:58:05Z</time>
      </trkpt>
      <trkpt lat="43.6579" lon="2.40447">
        <ele>669.22</ele>
        <time>2013-08-31T08:58:08Z</time>
      </trkpt>
      <trkpt lat="43.65787" lon="2.40443">
        <ele>668.25</ele>
        <time>2013-08-31T08:58:09Z</time>
      </trkpt>
      <trkpt lat="43.65783" lon="2.40439">
        <ele>668.25</ele>
        <time>2013-08-31T08:58:10Z</time>
      </trkpt>
      <trkpt lat="43.65779" lon="2.40437">
        <ele>667.77</ele>
        <time>2013-08-31T08:58:11Z</time>
      </trkpt>
      <trkpt lat="43.65775" lon="2.40435">
        <ele>667.77</ele>
        <time>2013-08-31T08:58:12Z</time>
      </trkpt>
      <trkpt lat="43.65771" lon="2.40434">
        <ele>667.29</ele>
        <time>2013-08-31T08:58:13Z</time>
      </trkpt>
      <trkpt lat="43.65767" lon="2.40433">
        <ele>667.29</ele>
        <time>2013-08-31T08:58:14Z</time>
      </trkpt>
      <trkpt lat="43.65763" lon="2.40431">
        <ele>666.81</ele>
        <time>2013-08-31T08:58:15Z</time>
      </trkpt>
      <trkpt lat="43.65758" lon="2.40429">
        <ele>666.33</ele>
        <time>2013-08-31T08:58:16Z</time>
      </trkpt>
      <trkpt lat="43.65756" lon="2.40427">
        <ele>666.33</ele>
        <time>2013-08-31T08:58:17Z</time>
      </trkpt>
      <trkpt lat="43.65749" lon="2.40411">
        <ele>666.33</ele>
        <time>2013-08-31T08:58:24Z</time>
      </trkpt>
      <trkpt lat="43.65748" lon="2.40408">
        <ele>665.85</ele>
        <time>2013-08-31T08:58:25Z</time>
      </trkpt>
      <trkpt lat="43.65746" lon="2.40406">
        <ele>665.85</ele>
        <time>2013-08-31T08:58:26Z</time>
      </trkpt>
      <trkpt lat="43.65745" lon="2.40404">
        <ele>665.85</ele>
        <time>2013-08-31T08:58:27Z</time>
      </trkpt>
      <trkpt lat="43.65744" lon="2.40402">
        <ele>665.85</ele>
        <time>2013-08-31T08:58:28Z</time>
      </trkpt>
      <trkpt lat="43.65738" lon="2.40395">
        <ele>666.33</ele>
        <time>2013-08-31T08:58:32Z</time>
      </trkpt>
      <trkpt lat="43.65737" lon="2.40392">
        <ele>666.81</ele>
        <time>2013-08-31T08:58:33Z</time>
      </trkpt>
      <trkpt lat="43.65735" lon="2.40389">
        <ele>666.81</ele>
        <time>2013-08-31T08:58:34Z</time>
      </trkpt>
      <trkpt lat="43.65733" lon="2.40386">
        <ele>666.81</ele>
        <time>2013-08-31T08:58:35Z</time>
      </trkpt>
      <trkpt lat="43.65731" lon="2.40384">
        <ele>666.81</ele>
        <time>2013-08-31T08:58:36Z</time>
      </trkpt>
      <trkpt lat="43.6573" lon="2.40382">
        <ele>666.81</ele>
        <time>2013-08-31T08:58:37Z</time>
      </trkpt>
      <trkpt lat="43.65728" lon="2.4038">
        <ele>666.81</ele>
        <time>2013-08-31T08:58:38Z</time>
      </trkpt>
      <trkpt lat="43.65726" lon="2.40376">
        <ele>666.33</ele>
        <time>2013-08-31T08:58:39Z</time>
      </trkpt>
      <trkpt lat="43.65725" lon="2.40374">
        <ele>666.81</ele>
        <time>2013-08-31T08:58:40Z</time>
      </trkpt>
      <trkpt lat="43.65723" lon="2.40372">
        <ele>667.29</ele>
        <time>2013-08-31T08:58:41Z</time>
      </trkpt>
      <trkpt lat="43.65721" lon="2.4037">
        <ele>667.77</ele>
        <time>2013-08-31T08:58:42Z</time>
      </trkpt>
      <trkpt lat="43.6572" lon="2.40367">
        <ele>667.29</ele>
        <time>2013-08-31T08:58:43Z</time>
      </trkpt>
      <trkpt lat="43.65684" lon="2.40344">
        <ele>668.73</ele>
        <time>2013-08-31T08:58:55Z</time>
      </trkpt>
      <trkpt lat="43.65657" lon="2.40328">
        <ele>670.66</ele>
        <time>2013-08-31T08:59:07Z</time>
      </trkpt>
      <trkpt lat="43.65655" lon="2.40327">
        <ele>670.66</ele>
        <time>2013-08-31T08:59:08Z</time>
      </trkpt>
      <trkpt lat="43.6563" lon="2.403">
        <ele>671.14</ele>
        <time>2013-08-31T08:59:19Z</time>
      </trkpt>
      <trkpt lat="43.65602" lon="2.40285">
        <ele>671.14</ele>
        <time>2013-08-31T08:59:29Z</time>
      </trkpt>
      <trkpt lat="43.65587" lon="2.40277">
        <ele>671.62</ele>
        <time>2013-08-31T08:59:35Z</time>
      </trkpt>
      <trkpt lat="43.65585" lon="2.40275">
        <ele>672.1</ele>
        <time>2013-08-31T08:59:36Z</time>
      </trkpt>
      <trkpt lat="43.65583" lon="2.40272">
        <ele>671.62</ele>
        <time>2013-08-31T08:59:37Z</time>
      </trkpt>
      <trkpt lat="43.65581" lon="2.4027">
        <ele>672.1</ele>
        <time>2013-08-31T08:59:38Z</time>
      </trkpt>
      <trkpt lat="43.6558" lon="2.40267">
        <ele>672.1</ele>
        <time>2013-08-31T08:59:39Z</time>
      </trkpt>
      <trkpt lat="43.65575" lon="2.4026">
        <ele>672.1</ele>
        <time>2013-08-31T08:59:42Z</time>
      </trkpt>
      <trkpt lat="43.65574" lon="2.40258">
        <ele>672.1</ele>
        <time>2013-08-31T08:59:43Z</time>
      </trkpt>
      <trkpt lat="43.65572" lon="2.40251">
        <ele>672.58</ele>
        <time>2013-08-31T08:59:46Z</time>
      </trkpt>
      <trkpt lat="43.65559" lon="2.40232">
        <ele>673.54</ele>
        <time>2013-08-31T08:59:54Z</time>
      </trkpt>
      <trkpt lat="43.65558" lon="2.4023">
        <ele>673.54</ele>
        <time>2013-08-31T08:59:55Z</time>
      </trkpt>
      <trkpt lat="43.65557" lon="2.40227">
        <ele>673.54</ele>
        <time>2013-08-31T08:59:56Z</time>
      </trkpt>
      <trkpt lat="43.65555" lon="2.40224">
        <ele>674.02</ele>
        <time>2013-08-31T08:59:57Z</time>
      </trkpt>
      <trkpt lat="43.65554" lon="2.40222">
        <ele>673.54</ele>
        <time>2013-08-31T08:59:58Z</time>
      </trkpt>
      <trkpt lat="43.65553" lon="2.40218">
        <ele>674.02</ele>
        <time>2013-08-31T08:59:59Z</time>
      </trkpt>
      <trkpt lat="43.65551" lon="2.40216">
        <ele>674.02</ele>
        <time>2013-08-31T09:00:00Z</time>
      </trkpt>
      <trkpt lat="43.65549" lon="2.40213">
        <ele>674.02</ele>
        <time>2013-08-31T09:00:01Z</time>
      </trkpt>
      <trkpt lat="43.65548" lon="2.4021">
        <ele>674.02</ele>
        <time>2013-08-31T09:00:02Z</time>
      </trkpt>
      <trkpt lat="43.65545" lon="2.40197">
        <ele>674.5</ele>
        <time>2013-08-31T09:00:06Z</time>
      </trkpt>
      <trkpt lat="43.65543" lon="2.40195">
        <ele>674.5</ele>
        <time>2013-08-31T09:00:07Z</time>
      </trkpt>
      <trkpt lat="43.65541" lon="2.40192">
        <ele>674.98</ele>
        <time>2013-08-31T09:00:08Z</time>
      </trkpt>
      <trkpt lat="43.65536" lon="2.40176">
        <ele>674.5</ele>
        <time>2013-08-31T09:00:13Z</time>
      </trkpt>
      <trkpt lat="43.65534" lon="2.40176">
        <ele>674.5</ele>
        <time>2013-08-31T09:00:14Z</time>
      </trkpt>
      <trkpt lat="43.65532" lon="2.40175">
        <ele>674.5</ele>
        <time>2013-08-31T09:00:15Z</time>
      </trkpt>
      <trkpt lat="43.65529" lon="2.40172">
        <ele>674.5</ele>
        <time>2013-08-31T09:00:16Z</time>
      </trkpt>
      <trkpt lat="43.65526" lon="2.4017">
        <ele>674.5</ele>
        <time>2013-08-31T09:00:17Z</time>
      </trkpt>
      <trkpt lat="43.65525" lon="2.40169">
        <ele>674.5</ele>
        <time>2013-08-31T09:00:18Z</time>
      </trkpt>
      <trkpt lat="43.65523" lon="2.40167">
        <ele>674.98</ele>
        <time>2013-08-31T09:00:19Z</time>
      </trkpt>
      <trkpt lat="43.65521" lon="2.40163">
        <ele>674.98</ele>
        <time>2013-08-31T09:00:20Z</time>
      </trkpt>
      <trkpt lat="43.65518" lon="2.4016">
        <ele>675.46</ele>
        <time>2013-08-31T09:00:21Z</time>
      </trkpt>
      <trkpt lat="43.65516" lon="2.4016">
        <ele>674.98</ele>
        <time>2013-08-31T09:00:22Z</time>
      </trkpt>
      <trkpt lat="43.6549" lon="2.40135">
        <ele>674.98</ele>
        <time>2013-08-31T09:00:33Z</time>
      </trkpt>
      <trkpt lat="43.6547" lon="2.40109">
        <ele>672.58</ele>
        <time>2013-08-31T09:00:43Z</time>
      </trkpt>
      <trkpt lat="43.6547" lon="2.40106">
        <ele>672.58</ele>
        <time>2013-08-31T09:00:44Z</time>
      </trkpt>
      <trkpt lat="43.6547" lon="2.40103">
        <ele>672.1</ele>
        <time>2013-08-31T09:00:45Z</time>
      </trkpt>
      <trkpt lat="43.65469" lon="2.40077">
        <ele>669.7</ele>
        <time>2013-08-31T09:00:50Z</time>
      </trkpt>
      <trkpt lat="43.65468" lon="2.40057">
        <ele>669.7</ele>
        <time>2013-08-31T09:00:52Z</time>
      </trkpt>
      <trkpt lat="43.65468" lon="2.40047">
        <ele>668.25</ele>
        <time>2013-08-31T09:00:53Z</time>
      </trkpt>
      <trkpt lat="43.65467" lon="2.40038">
        <ele>667.77</ele>
        <time>2013-08-31T09:00:54Z</time>
      </trkpt>
      <trkpt lat="43.65464" lon="2.40013">
        <ele>665.37</ele>
        <time>2013-08-31T09:00:57Z</time>
      </trkpt>
      <trkpt lat="43.65464" lon="2.40008">
        <ele>664.41</ele>
        <time>2013-08-31T09:00:58Z</time>
      </trkpt>
      <trkpt lat="43.65463" lon="2.39997">
        <ele>663.93</ele>
        <time>2013-08-31T09:00:59Z</time>
      </trkpt>
      <trkpt lat="43.65463" lon="2.39982">
        <ele>662.97</ele>
        <time>2013-08-31T09:01:01Z</time>
      </trkpt>
      <trkpt lat="43.6546" lon="2.39965">
        <ele>662.01</ele>
        <time>2013-08-31T09:01:03Z</time>
      </trkpt>
      <trkpt lat="43.65461" lon="2.39958">
        <ele>662.01</ele>
        <time>2013-08-31T09:01:04Z</time>
      </trkpt>
      <trkpt lat="43.65461" lon="2.39952">
        <ele>661.52</ele>
        <time>2013-08-31T09:01:05Z</time>
      </trkpt>
      <trkpt lat="43.65458" lon="2.39946">
        <ele>662.01</ele>
        <time>2013-08-31T09:01:06Z</time>
      </trkpt>
      <trkpt lat="43.65455" lon="2.39939">
        <ele>662.01</ele>
        <time>2013-08-31T09:01:07Z</time>
      </trkpt>
      <trkpt lat="43.65453" lon="2.3993">
        <ele>661.52</ele>
        <time>2013-08-31T09:01:08Z</time>
      </trkpt>
      <trkpt lat="43.6545" lon="2.39924">
        <ele>661.04</ele>
        <time>2013-08-31T09:01:09Z</time>
      </trkpt>
      <trkpt lat="43.65447" lon="2.39918">
        <ele>661.04</ele>
        <time>2013-08-31T09:01:10Z</time>
      </trkpt>
      <trkpt lat="43.65444" lon="2.39912">
        <ele>661.04</ele>
        <time>2013-08-31T09:01:11Z</time>
      </trkpt>
      <trkpt lat="43.65441" lon="2.39907">
        <ele>661.52</ele>
        <time>2013-08-31T09:01:12Z</time>
      </trkpt>
      <trkpt lat="43.65439" lon="2.39904">
        <ele>661.04</ele>
        <time>2013-08-31T09:01:13Z</time>
      </trkpt>
      <trkpt lat="43.65427" lon="2.39884">
        <ele>664.89</ele>
        <time>2013-08-31T09:01:20Z</time>
      </trkpt>
      <trkpt lat="43.65427" lon="2.39883">
        <ele>662.97</ele>
        <time>2013-08-31T09:01:21Z</time>
      </trkpt>
      <trkpt lat="43.65425" lon="2.39879">
        <ele>661.04</ele>
        <time>2013-08-31T09:01:23Z</time>
      </trkpt>
      <trkpt lat="43.65421" lon="2.39872">
        <ele>661.52</ele>
        <time>2013-08-31T09:01:45Z</time>
      </trkpt>
      <trkpt lat="43.65422" lon="2.3987">
        <ele>666.81</ele>
        <time>2013-08-31T09:02:07Z</time>
      </trkpt>
      <trkpt lat="43.65422" lon="2.3987">
        <ele>662.01</ele>
        <time>2013-08-31T09:02:08Z</time>
      </trkpt>
      <trkpt lat="43.65421" lon="2.39869">
        <ele>661.52</ele>
        <time>2013-08-31T09:02:30Z</time>
      </trkpt>
      <trkpt lat="43.65421" lon="2.39872">
        <ele>662.01</ele>
        <time>2013-08-31T09:02:46Z</time>
      </trkpt>
      <trkpt lat="43.65422" lon="2.39878">
        <ele>662.01</ele>
        <time>2013-08-31T09:03:17Z</time>
      </trkpt>
      <trkpt lat="43.65419" lon="2.39873">
        <ele>661.04</ele>
        <time>2013-08-31T09:03:30Z</time>
      </trkpt>
      <trkpt lat="43.65418" lon="2.39871">
        <ele>661.04</ele>
        <time>2013-08-31T09:03:31Z</time>
      </trkpt>
      <trkpt lat="43.65418" lon="2.39869">
        <ele>661.04</ele>
        <time>2013-08-31T09:03:32Z</time>
      </trkpt>
      <trkpt lat="43.65417" lon="2.39865">
        <ele>661.04</ele>
        <time>2013-08-31T09:03:34Z</time>
      </trkpt>
      <trkpt lat="43.65416" lon="2.39862">
        <ele>660.56</ele>
        <time>2013-08-31T09:03:35Z</time>
      </trkpt>
      <trkpt lat="43.65415" lon="2.3986">
        <ele>660.56</ele>
        <time>2013-08-31T09:03:36Z</time>
      </trkpt>
      <trkpt lat="43.65413" lon="2.39858">
        <ele>660.08</ele>
        <time>2013-08-31T09:03:37Z</time>
      </trkpt>
      <trkpt lat="43.65412" lon="2.39856">
        <ele>660.56</ele>
        <time>2013-08-31T09:03:38Z</time>
      </trkpt>
      <trkpt lat="43.65411" lon="2.39854">
        <ele>660.56</ele>
        <time>2013-08-31T09:03:39Z</time>
      </trkpt>
      <trkpt lat="43.65406" lon="2.39851">
        <ele>659.6</ele>
        <time>2013-08-31T09:03:42Z</time>
      </trkpt>
      <trkpt lat="43.65404" lon="2.39849">
        <ele>660.08</ele>
        <time>2013-08-31T09:03:43Z</time>
      </trkpt>
      <trkpt lat="43.65402" lon="2.39848">
        <ele>659.6</ele>
        <time>2013-08-31T09:03:44Z</time>
      </trkpt>
      <trkpt lat="43.654" lon="2.39844">
        <ele>659.6</ele>
        <time>2013-08-31T09:03:46Z</time>
      </trkpt>
      <trkpt lat="43.65399" lon="2.3984">
        <ele>656.24</ele>
        <time>2013-08-31T09:03:49Z</time>
      </trkpt>
      <trkpt lat="43.65399" lon="2.39838">
        <ele>660.08</ele>
        <time>2013-08-31T09:03:51Z</time>
      </trkpt>
      <trkpt lat="43.65399" lon="2.39837">
        <ele>659.6</ele>
        <time>2013-08-31T09:03:52Z</time>
      </trkpt>
      <trkpt lat="43.65399" lon="2.39837">
        <ele>655.28</ele>
        <time>2013-08-31T09:03:53Z</time>
      </trkpt>
      <trkpt lat="43.65399" lon="2.39836">
        <ele>660.08</ele>
        <time>2013-08-31T09:03:54Z</time>
      </trkpt>
      <trkpt lat="43.65399" lon="2.39836">
        <ele>659.12</ele>
        <time>2013-08-31T09:03:58Z</time>
      </trkpt>
      <trkpt lat="43.65397" lon="2.39836">
        <ele>662.49</ele>
        <time>2013-08-31T09:04:05Z</time>
      </trkpt>
      <trkpt lat="43.65398" lon="2.39836">
        <ele>659.12</ele>
        <time>2013-08-31T09:04:10Z</time>
      </trkpt>
      <trkpt lat="43.654" lon="2.39835">
        <ele>655.28</ele>
        <time>2013-08-31T09:04:17Z</time>
      </trkpt>
      <trkpt lat="43.654" lon="2.39835">
        <ele>660.08</ele>
        <time>2013-08-31T09:04:18Z</time>
      </trkpt>
      <trkpt lat="43.654" lon="2.39832">
        <ele>655.28</ele>
        <time>2013-08-31T09:04:23Z</time>
      </trkpt>
      <trkpt lat="43.654" lon="2.39832">
        <ele>660.56</ele>
        <time>2013-08-31T09:04:24Z</time>
      </trkpt>
      <trkpt lat="43.654" lon="2.39831">
        <ele>660.56</ele>
        <time>2013-08-31T09:04:25Z</time>
      </trkpt>
      <trkpt lat="43.654" lon="2.3983">
        <ele>656.72</ele>
        <time>2013-08-31T09:04:28Z</time>
      </trkpt>
      <trkpt lat="43.654" lon="2.39829">
        <ele>660.08</ele>
        <time>2013-08-31T09:04:29Z</time>
      </trkpt>
      <trkpt lat="43.65398" lon="2.39827">
        <ele>660.08</ele>
        <time>2013-08-31T09:04:35Z</time>
      </trkpt>
      <trkpt lat="43.65397" lon="2.39831">
        <ele>659.12</ele>
        <time>2013-08-31T09:04:51Z</time>
      </trkpt>
      <trkpt lat="43.65401" lon="2.39835">
        <ele>659.6</ele>
        <time>2013-08-31T09:04:56Z</time>
      </trkpt>
      <trkpt lat="43.65402" lon="2.39837">
        <ele>659.6</ele>
        <time>2013-08-31T09:04:57Z</time>
      </trkpt>
      <trkpt lat="43.65402" lon="2.39839">
        <ele>659.6</ele>
        <time>2013-08-31T09:04:58Z</time>
      </trkpt>
      <trkpt lat="43.65404" lon="2.39842">
        <ele>659.6</ele>
        <time>2013-08-31T09:04:59Z</time>
      </trkpt>
      <trkpt lat="43.65404" lon="2.39845">
        <ele>660.08</ele>
        <time>2013-08-31T09:05:00Z</time>
      </trkpt>
      <trkpt lat="43.65411" lon="2.39856">
        <ele>660.56</ele>
        <time>2013-08-31T09:05:04Z</time>
      </trkpt>
      <trkpt lat="43.65412" lon="2.39859">
        <ele>660.56</ele>
        <time>2013-08-31T09:05:05Z</time>
      </trkpt>
      <trkpt lat="43.65414" lon="2.39861">
        <ele>660.56</ele>
        <time>2013-08-31T09:05:06Z</time>
      </trkpt>
      <trkpt lat="43.65415" lon="2.39863">
        <ele>660.08</ele>
        <time>2013-08-31T09:05:07Z</time>
      </trkpt>
      <trkpt lat="43.65417" lon="2.39865">
        <ele>661.04</ele>
        <time>2013-08-31T09:05:08Z</time>
      </trkpt>
      <trkpt lat="43.65418" lon="2.39868">
        <ele>661.04</ele>
        <time>2013-08-31T09:05:09Z</time>
      </trkpt>
      <trkpt lat="43.6542" lon="2.39871">
        <ele>661.04</ele>
        <time>2013-08-31T09:05:10Z</time>
      </trkpt>
      <trkpt lat="43.65421" lon="2.39874">
        <ele>661.52</ele>
        <time>2013-08-31T09:05:11Z</time>
      </trkpt>
      <trkpt lat="43.65422" lon="2.39877">
        <ele>661.52</ele>
        <time>2013-08-31T09:05:12Z</time>
      </trkpt>
      <trkpt lat="43.65423" lon="2.3988">
        <ele>661.52</ele>
        <time>2013-08-31T09:05:13Z</time>
      </trkpt>
      <trkpt lat="43.65424" lon="2.39883">
        <ele>661.52</ele>
        <time>2013-08-31T09:05:14Z</time>
      </trkpt>
      <trkpt lat="43.65424" lon="2.39886">
        <ele>661.52</ele>
        <time>2013-08-31T09:05:15Z</time>
      </trkpt>
      <trkpt lat="43.65425" lon="2.39888">
        <ele>661.52</ele>
        <time>2013-08-31T09:05:16Z</time>
      </trkpt>
      <trkpt lat="43.65426" lon="2.3989">
        <ele>661.52</ele>
        <time>2013-08-31T09:05:17Z</time>
      </trkpt>
      <trkpt lat="43.65436" lon="2.39917">
        <ele>662.49</ele>
        <time>2013-08-31T09:05:29Z</time>
      </trkpt>
      <trkpt lat="43.65437" lon="2.39919">
        <ele>657.68</ele>
        <time>2013-08-31T09:05:35Z</time>
      </trkpt>
      <trkpt lat="43.65437" lon="2.39919">
        <ele>663.45</ele>
        <time>2013-08-31T09:05:36Z</time>
      </trkpt>
      <trkpt lat="43.65436" lon="2.39922">
        <ele>662.97</ele>
        <time>2013-08-31T09:05:58Z</time>
      </trkpt>
      <trkpt lat="43.65435" lon="2.39923">
        <ele>662.49</ele>
        <time>2013-08-31T09:05:59Z</time>
      </trkpt>
      <trkpt lat="43.65431" lon="2.39927">
        <ele>662.97</ele>
        <time>2013-08-31T09:06:09Z</time>
      </trkpt>
      <trkpt lat="43.65433" lon="2.39927">
        <ele>662.97</ele>
        <time>2013-08-31T09:06:20Z</time>
      </trkpt>
      <trkpt lat="43.65439" lon="2.39924">
        <ele>662.49</ele>
        <time>2013-08-31T09:06:31Z</time>
      </trkpt>
      <trkpt lat="43.65441" lon="2.39927">
        <ele>662.49</ele>
        <time>2013-08-31T09:06:35Z</time>
      </trkpt>
      <trkpt lat="43.65442" lon="2.39929">
        <ele>662.97</ele>
        <time>2013-08-31T09:06:36Z</time>
      </trkpt>
      <trkpt lat="43.65443" lon="2.3993">
        <ele>662.49</ele>
        <time>2013-08-31T09:06:37Z</time>
      </trkpt>
      <trkpt lat="43.65443" lon="2.39932">
        <ele>662.49</ele>
        <time>2013-08-31T09:06:38Z</time>
      </trkpt>
      <trkpt lat="43.65444" lon="2.39934">
        <ele>662.49</ele>
        <time>2013-08-31T09:06:39Z</time>
      </trkpt>
      <trkpt lat="43.65444" lon="2.39936">
        <ele>662.97</ele>
        <time>2013-08-31T09:06:40Z</time>
      </trkpt>
      <trkpt lat="43.65446" lon="2.39944">
        <ele>662.97</ele>
        <time>2013-08-31T09:06:44Z</time>
      </trkpt>
      <trkpt lat="43.65446" lon="2.39946">
        <ele>663.45</ele>
        <time>2013-08-31T09:06:45Z</time>
      </trkpt>
      <trkpt lat="43.65449" lon="2.39951">
        <ele>663.93</ele>
        <time>2013-08-31T09:06:49Z</time>
      </trkpt>
      <trkpt lat="43.6545" lon="2.39952">
        <ele>663.93</ele>
        <time>2013-08-31T09:06:50Z</time>
      </trkpt>
      <trkpt lat="43.65451" lon="2.39954">
        <ele>663.93</ele>
        <time>2013-08-31T09:06:51Z</time>
      </trkpt>
      <trkpt lat="43.65453" lon="2.39956">
        <ele>663.93</ele>
        <time>2013-08-31T09:06:52Z</time>
      </trkpt>
      <trkpt lat="43.65458" lon="2.39971">
        <ele>665.37</ele>
        <time>2013-08-31T09:07:00Z</time>
      </trkpt>
      <trkpt lat="43.65458" lon="2.39973">
        <ele>664.89</ele>
        <time>2013-08-31T09:07:01Z</time>
      </trkpt>
      <trkpt lat="43.65458" lon="2.39974">
        <ele>665.37</ele>
        <time>2013-08-31T09:07:02Z</time>
      </trkpt>
      <trkpt lat="43.65456" lon="2.39976">
        <ele>664.89</ele>
        <time>2013-08-31T09:07:03Z</time>
      </trkpt>
      <trkpt lat="43.65455" lon="2.39977">
        <ele>664.89</ele>
        <time>2013-08-31T09:07:04Z</time>
      </trkpt>
      <trkpt lat="43.65454" lon="2.39979">
        <ele>664.41</ele>
        <time>2013-08-31T09:07:05Z</time>
      </trkpt>
      <trkpt lat="43.65447" lon="2.40008">
        <ele>663.45</ele>
        <time>2013-08-31T09:07:16Z</time>
      </trkpt>
      <trkpt lat="43.65446" lon="2.4001">
        <ele>663.45</ele>
        <time>2013-08-31T09:07:17Z</time>
      </trkpt>
      <trkpt lat="43.65441" lon="2.4002">
        <ele>662.01</ele>
        <time>2013-08-31T09:07:22Z</time>
      </trkpt>
      <trkpt lat="43.6544" lon="2.40024">
        <ele>662.01</ele>
        <time>2013-08-31T09:07:23Z</time>
      </trkpt>
      <trkpt lat="43.65439" lon="2.40035">
        <ele>661.04</ele>
        <time>2013-08-31T09:07:26Z</time>
      </trkpt>
      <trkpt lat="43.65439" lon="2.40038">
        <ele>661.52</ele>
        <time>2013-08-31T09:07:27Z</time>
      </trkpt>
      <trkpt lat="43.65439" lon="2.40042">
        <ele>661.52</ele>
        <time>2013-08-31T09:07:28Z</time>
      </trkpt>
      <trkpt lat="43.6544" lon="2.40045">
        <ele>661.04</ele>
        <time>2013-08-31T09:07:29Z</time>
      </trkpt>
      <trkpt lat="43.6544" lon="2.40047">
        <ele>661.52</ele>
        <time>2013-08-31T09:07:30Z</time>
      </trkpt>
      <trkpt lat="43.65441" lon="2.4005">
        <ele>661.04</ele>
        <time>2013-08-31T09:07:31Z</time>
      </trkpt>
      <trkpt lat="43.6544" lon="2.40078">
        <ele>661.04</ele>
        <time>2013-08-31T09:07:39Z</time>
      </trkpt>
      <trkpt lat="43.65441" lon="2.4008">
        <ele>661.04</ele>
        <time>2013-08-31T09:07:40Z</time>
      </trkpt>
      <trkpt lat="43.6544" lon="2.40083">
        <ele>661.04</ele>
        <time>2013-08-31T09:07:41Z</time>
      </trkpt>
      <trkpt lat="43.65439" lon="2.40086">
        <ele>661.04</ele>
        <time>2013-08-31T09:07:42Z</time>
      </trkpt>
      <trkpt lat="43.65434" lon="2.40127">
        <ele>661.52</ele>
        <time>2013-08-31T09:07:55Z</time>
      </trkpt>
      <trkpt lat="43.65434" lon="2.4013">
        <ele>661.52</ele>
        <time>2013-08-31T09:07:56Z</time>
      </trkpt>
      <trkpt lat="43.65432" lon="2.40135">
        <ele>662.01</ele>
        <time>2013-08-31T09:07:57Z</time>
      </trkpt>
      <trkpt lat="43.65417" lon="2.40164">
        <ele>660.56</ele>
        <time>2013-08-31T09:08:07Z</time>
      </trkpt>
      <trkpt lat="43.65416" lon="2.40166">
        <ele>660.56</ele>
        <time>2013-08-31T09:08:08Z</time>
      </trkpt>
      <trkpt lat="43.65412" lon="2.40177">
        <ele>660.56</ele>
        <time>2013-08-31T09:08:12Z</time>
      </trkpt>
      <trkpt lat="43.65411" lon="2.40185">
        <ele>660.56</ele>
        <time>2013-08-31T09:08:16Z</time>
      </trkpt>
      <trkpt lat="43.65408" lon="2.40198">
        <ele>660.08</ele>
        <time>2013-08-31T09:08:20Z</time>
      </trkpt>
      <trkpt lat="43.65408" lon="2.40203">
        <ele>661.04</ele>
        <time>2013-08-31T09:08:24Z</time>
      </trkpt>
      <trkpt lat="43.65399" lon="2.40208">
        <ele>659.12</ele>
        <time>2013-08-31T09:08:28Z</time>
      </trkpt>
      <trkpt lat="43.65392" lon="2.40207">
        <ele>657.68</ele>
        <time>2013-08-31T09:08:31Z</time>
      </trkpt>
      <trkpt lat="43.6539" lon="2.40208">
        <ele>657.68</ele>
        <time>2013-08-31T09:08:33Z</time>
      </trkpt>
      <trkpt lat="43.65381" lon="2.40217">
        <ele>657.68</ele>
        <time>2013-08-31T09:08:41Z</time>
      </trkpt>
      <trkpt lat="43.65375" lon="2.40223">
        <ele>658.16</ele>
        <time>2013-08-31T09:08:47Z</time>
      </trkpt>
      <trkpt lat="43.6536" lon="2.4022">
        <ele>658.64</ele>
        <time>2013-08-31T09:08:56Z</time>
      </trkpt>
      <trkpt lat="43.65356" lon="2.40221">
        <ele>658.64</ele>
        <time>2013-08-31T09:08:58Z</time>
      </trkpt>
      <trkpt lat="43.65344" lon="2.40227">
        <ele>659.6</ele>
        <time>2013-08-31T09:09:05Z</time>
      </trkpt>
      <trkpt lat="43.65333" lon="2.40222">
        <ele>661.04</ele>
        <time>2013-08-31T09:09:13Z</time>
      </trkpt>
      <trkpt lat="43.65329" lon="2.40224">
        <ele>661.52</ele>
        <time>2013-08-31T09:09:16Z</time>
      </trkpt>
      <trkpt lat="43.65327" lon="2.40226">
        <ele>662.01</ele>
        <time>2013-08-31T09:09:17Z</time>
      </trkpt>
      <trkpt lat="43.65325" lon="2.4023">
        <ele>662.97</ele>
        <time>2013-08-31T09:09:20Z</time>
      </trkpt>
      <trkpt lat="43.65311" lon="2.40237">
        <ele>664.89</ele>
        <time>2013-08-31T09:09:30Z</time>
      </trkpt>
      <trkpt lat="43.65302" lon="2.40251">
        <ele>665.85</ele>
        <time>2013-08-31T09:09:43Z</time>
      </trkpt>
      <trkpt lat="43.65304" lon="2.40262">
        <ele>665.85</ele>
        <time>2013-08-31T09:09:54Z</time>
      </trkpt>
      <trkpt lat="43.65297" lon="2.40281">
        <ele>667.77</ele>
        <time>2013-08-31T09:10:06Z</time>
      </trkpt>
      <trkpt lat="43.65281" lon="2.40301">
        <ele>670.18</ele>
        <time>2013-08-31T09:10:19Z</time>
      </trkpt>
      <trkpt lat="43.65276" lon="2.40305">
        <ele>670.66</ele>
        <time>2013-08-31T09:10:23Z</time>
      </trkpt>
      <trkpt lat="43.65245" lon="2.40325">
        <ele>669.22</ele>
        <time>2013-08-31T09:10:35Z</time>
      </trkpt>
      <trkpt lat="43.65221" lon="2.40332">
        <ele>668.73</ele>
        <time>2013-08-31T09:10:47Z</time>
      </trkpt>
      <trkpt lat="43.65194" lon="2.40341">
        <ele>666.81</ele>
        <time>2013-08-31T09:10:54Z</time>
      </trkpt>
      <trkpt lat="43.65165" lon="2.40376">
        <ele>668.25</ele>
        <time>2013-08-31T09:11:05Z</time>
      </trkpt>
      <trkpt lat="43.65154" lon="2.40384">
        <ele>668.73</ele>
        <time>2013-08-31T09:11:10Z</time>
      </trkpt>
      <trkpt lat="43.6514" lon="2.40384">
        <ele>668.25</ele>
        <time>2013-08-31T09:11:16Z</time>
      </trkpt>
      <trkpt lat="43.65112" lon="2.40367">
        <ele>669.22</ele>
        <time>2013-08-31T09:11:29Z</time>
      </trkpt>
      <trkpt lat="43.65111" lon="2.40365">
        <ele>669.7</ele>
        <time>2013-08-31T09:11:30Z</time>
      </trkpt>
      <trkpt lat="43.65094" lon="2.40351">
        <ele>672.1</ele>
        <time>2013-08-31T09:11:40Z</time>
      </trkpt>
      <trkpt lat="43.65083" lon="2.40342">
        <ele>673.54</ele>
        <time>2013-08-31T09:11:45Z</time>
      </trkpt>
      <trkpt lat="43.65069" lon="2.4034">
        <ele>674.5</ele>
        <time>2013-08-31T09:11:54Z</time>
      </trkpt>
      <trkpt lat="43.65049" lon="2.40345">
        <ele>675.94</ele>
        <time>2013-08-31T09:12:04Z</time>
      </trkpt>
      <trkpt lat="43.6504" lon="2.40349">
        <ele>675.46</ele>
        <time>2013-08-31T09:12:09Z</time>
      </trkpt>
      <trkpt lat="43.65016" lon="2.40367">
        <ele>674.5</ele>
        <time>2013-08-31T09:12:19Z</time>
      </trkpt>
      <trkpt lat="43.64987" lon="2.40395">
        <ele>672.58</ele>
        <time>2013-08-31T09:12:29Z</time>
      </trkpt>
      <trkpt lat="43.64963" lon="2.40433">
        <ele>671.62</ele>
        <time>2013-08-31T09:12:39Z</time>
      </trkpt>
      <trkpt lat="43.64956" lon="2.40442">
        <ele>671.62</ele>
        <time>2013-08-31T09:12:42Z</time>
      </trkpt>
      <trkpt lat="43.64951" lon="2.40446">
        <ele>666.81</ele>
        <time>2013-08-31T09:12:51Z</time>
      </trkpt>
      <trkpt lat="43.64951" lon="2.40447">
        <ele>672.1</ele>
        <time>2013-08-31T09:12:52Z</time>
      </trkpt>
      <trkpt lat="43.64945" lon="2.4045">
        <ele>670.66</ele>
        <time>2013-08-31T09:13:13Z</time>
      </trkpt>
      <trkpt lat="43.6494" lon="2.40452">
        <ele>670.66</ele>
        <time>2013-08-31T09:13:16Z</time>
      </trkpt>
      <trkpt lat="43.64923" lon="2.40468">
        <ele>673.06</ele>
        <time>2013-08-31T09:13:29Z</time>
      </trkpt>
      <trkpt lat="43.64918" lon="2.40473">
        <ele>673.54</ele>
        <time>2013-08-31T09:13:32Z</time>
      </trkpt>
      <trkpt lat="43.64915" lon="2.4048">
        <ele>673.54</ele>
        <time>2013-08-31T09:13:35Z</time>
      </trkpt>
      <trkpt lat="43.64908" lon="2.40511">
        <ele>672.58</ele>
        <time>2013-08-31T09:13:45Z</time>
      </trkpt>
      <trkpt lat="43.64908" lon="2.40512">
        <ele>672.1</ele>
        <time>2013-08-31T09:13:46Z</time>
      </trkpt>
      <trkpt lat="43.6491" lon="2.40529">
        <ele>670.18</ele>
        <time>2013-08-31T09:13:49Z</time>
      </trkpt>
      <trkpt lat="43.64912" lon="2.40548">
        <ele>667.77</ele>
        <time>2013-08-31T09:13:53Z</time>
      </trkpt>
      <trkpt lat="43.64883" lon="2.40612">
        <ele>666.81</ele>
        <time>2013-08-31T09:14:06Z</time>
      </trkpt>
      <trkpt lat="43.6487" lon="2.40641">
        <ele>667.29</ele>
        <time>2013-08-31T09:14:13Z</time>
      </trkpt>
      <trkpt lat="43.64867" lon="2.40656">
        <ele>666.81</ele>
        <time>2013-08-31T09:14:18Z</time>
      </trkpt>
      <trkpt lat="43.64851" lon="2.40692">
        <ele>667.29</ele>
        <time>2013-08-31T09:14:28Z</time>
      </trkpt>
      <trkpt lat="43.64846" lon="2.40697">
        <ele>667.77</ele>
        <time>2013-08-31T09:14:31Z</time>
      </trkpt>
      <trkpt lat="43.64829" lon="2.4071">
        <ele>670.18</ele>
        <time>2013-08-31T09:14:41Z</time>
      </trkpt>
      <trkpt lat="43.64801" lon="2.40718">
        <ele>671.62</ele>
        <time>2013-08-31T09:14:55Z</time>
      </trkpt>
      <trkpt lat="43.64769" lon="2.40731">
        <ele>671.14</ele>
        <time>2013-08-31T09:15:09Z</time>
      </trkpt>
      <trkpt lat="43.64745" lon="2.40731">
        <ele>667.29</ele>
        <time>2013-08-31T09:15:16Z</time>
      </trkpt>
      <trkpt lat="43.64742" lon="2.40732">
        <ele>667.29</ele>
        <time>2013-08-31T09:15:17Z</time>
      </trkpt>
      <trkpt lat="43.64723" lon="2.40731">
        <ele>664.89</ele>
        <time>2013-08-31T09:15:21Z</time>
      </trkpt>
      <trkpt lat="43.64707" lon="2.40741">
        <ele>663.93</ele>
        <time>2013-08-31T09:15:27Z</time>
      </trkpt>
      <trkpt lat="43.64688" lon="2.40752">
        <ele>662.01</ele>
        <time>2013-08-31T09:15:36Z</time>
      </trkpt>
      <trkpt lat="43.64659" lon="2.40753">
        <ele>664.41</ele>
        <time>2013-08-31T09:15:45Z</time>
      </trkpt>
      <trkpt lat="43.64641" lon="2.40753">
        <ele>667.29</ele>
        <time>2013-08-31T09:15:54Z</time>
      </trkpt>
      <trkpt lat="43.64612" lon="2.4075">
        <ele>669.7</ele>
        <time>2013-08-31T09:16:07Z</time>
      </trkpt>
      <trkpt lat="43.646" lon="2.4075">
        <ele>669.7</ele>
        <time>2013-08-31T09:16:15Z</time>
      </trkpt>
      <trkpt lat="43.64578" lon="2.40781">
        <ele>667.29</ele>
        <time>2013-08-31T09:16:26Z</time>
      </trkpt>
      <trkpt lat="43.64573" lon="2.40809">
        <ele>667.77</ele>
        <time>2013-08-31T09:16:32Z</time>
      </trkpt>
      <trkpt lat="43.64561" lon="2.40829">
        <ele>670.18</ele>
        <time>2013-08-31T09:16:40Z</time>
      </trkpt>
      <trkpt lat="43.64558" lon="2.40851">
        <ele>671.14</ele>
        <time>2013-08-31T09:16:51Z</time>
      </trkpt>
      <trkpt lat="43.64552" lon="2.4088">
        <ele>674.02</ele>
        <time>2013-08-31T09:17:01Z</time>
      </trkpt>
      <trkpt lat="43.64545" lon="2.4089">
        <ele>675.94</ele>
        <time>2013-08-31T09:17:07Z</time>
      </trkpt>
      <trkpt lat="43.6454" lon="2.40902">
        <ele>677.87</ele>
        <time>2013-08-31T09:17:14Z</time>
      </trkpt>
      <trkpt lat="43.64532" lon="2.40917">
        <ele>679.79</ele>
        <time>2013-08-31T09:17:21Z</time>
      </trkpt>
      <trkpt lat="43.64529" lon="2.40924">
        <ele>680.75</ele>
        <time>2013-08-31T09:17:25Z</time>
      </trkpt>
      <trkpt lat="43.64512" lon="2.40946">
        <ele>682.19</ele>
        <time>2013-08-31T09:17:40Z</time>
      </trkpt>
      <trkpt lat="43.64499" lon="2.40963">
        <ele>683.15</ele>
        <time>2013-08-31T09:17:51Z</time>
      </trkpt>
      <trkpt lat="43.64476" lon="2.4098">
        <ele>684.6</ele>
        <time>2013-08-31T09:18:04Z</time>
      </trkpt>
      <trkpt lat="43.64475" lon="2.40981">
        <ele>684.6</ele>
        <time>2013-08-31T09:18:05Z</time>
      </trkpt>
      <trkpt lat="43.64452" lon="2.40984">
        <ele>686.52</ele>
        <time>2013-08-31T09:18:19Z</time>
      </trkpt>
      <trkpt lat="43.64446" lon="2.40984">
        <ele>686.04</ele>
        <time>2013-08-31T09:18:22Z</time>
      </trkpt>
      <trkpt lat="43.64412" lon="2.41003">
        <ele>684.6</ele>
        <time>2013-08-31T09:18:36Z</time>
      </trkpt>
      <trkpt lat="43.64395" lon="2.41011">
        <ele>683.15</ele>
        <time>2013-08-31T09:18:41Z</time>
      </trkpt>
      <trkpt lat="43.64379" lon="2.41022">
        <ele>680.75</ele>
        <time>2013-08-31T09:18:45Z</time>
      </trkpt>
      <trkpt lat="43.64373" lon="2.41024">
        <ele>679.79</ele>
        <time>2013-08-31T09:18:46Z</time>
      </trkpt>
      <trkpt lat="43.64367" lon="2.41025">
        <ele>678.83</ele>
        <time>2013-08-31T09:18:47Z</time>
      </trkpt>
      <trkpt lat="43.64363" lon="2.41023">
        <ele>678.83</ele>
        <time>2013-08-31T09:18:48Z</time>
      </trkpt>
      <trkpt lat="43.64357" lon="2.41022">
        <ele>678.83</ele>
        <time>2013-08-31T09:18:49Z</time>
      </trkpt>
      <trkpt lat="43.64352" lon="2.4102">
        <ele>679.31</ele>
        <time>2013-08-31T09:18:50Z</time>
      </trkpt>
      <trkpt lat="43.64349" lon="2.41018">
        <ele>679.31</ele>
        <time>2013-08-31T09:18:51Z</time>
      </trkpt>
      <trkpt lat="43.64346" lon="2.41017">
        <ele>679.79</ele>
        <time>2013-08-31T09:18:52Z</time>
      </trkpt>
      <trkpt lat="43.64343" lon="2.41016">
        <ele>679.79</ele>
        <time>2013-08-31T09:18:53Z</time>
      </trkpt>
      <trkpt lat="43.6434" lon="2.41016">
        <ele>678.83</ele>
        <time>2013-08-31T09:18:54Z</time>
      </trkpt>
      <trkpt lat="43.64337" lon="2.41016">
        <ele>679.79</ele>
        <time>2013-08-31T09:18:55Z</time>
      </trkpt>
      <trkpt lat="43.6431" lon="2.41001">
        <ele>680.27</ele>
        <time>2013-08-31T09:19:07Z</time>
      </trkpt>
      <trkpt lat="43.64281" lon="2.40998">
        <ele>679.79</ele>
        <time>2013-08-31T09:19:15Z</time>
      </trkpt>
      <trkpt lat="43.64258" lon="2.40986">
        <ele>681.23</ele>
        <time>2013-08-31T09:19:26Z</time>
      </trkpt>
      <trkpt lat="43.6423" lon="2.40985">
        <ele>684.12</ele>
        <time>2013-08-31T09:19:40Z</time>
      </trkpt>
      <trkpt lat="43.64204" lon="2.40986">
        <ele>686.52</ele>
        <time>2013-08-31T09:19:52Z</time>
      </trkpt>
      <trkpt lat="43.6419" lon="2.40991">
        <ele>691.81</ele>
        <time>2013-08-31T09:20:03Z</time>
      </trkpt>
      <trkpt lat="43.6419" lon="2.40991">
        <ele>685.08</ele>
        <time>2013-08-31T09:20:04Z</time>
      </trkpt>
      <trkpt lat="43.6419" lon="2.40991">
        <ele>679.79</ele>
        <time>2013-08-31T09:20:07Z</time>
      </trkpt>
      <trkpt lat="43.6419" lon="2.40991">
        <ele>687.96</ele>
        <time>2013-08-31T09:20:08Z</time>
      </trkpt>
      <trkpt lat="43.64189" lon="2.40992">
        <ele>686.52</ele>
        <time>2013-08-31T09:20:11Z</time>
      </trkpt>
      <trkpt lat="43.64188" lon="2.40994">
        <ele>686.52</ele>
        <time>2013-08-31T09:20:12Z</time>
      </trkpt>
      <trkpt lat="43.64187" lon="2.40997">
        <ele>686.52</ele>
        <time>2013-08-31T09:20:13Z</time>
      </trkpt>
      <trkpt lat="43.64185" lon="2.41034">
        <ele>683.63</ele>
        <time>2013-08-31T09:20:21Z</time>
      </trkpt>
      <trkpt lat="43.64175" lon="2.41068">
        <ele>682.67</ele>
        <time>2013-08-31T09:20:30Z</time>
      </trkpt>
      <trkpt lat="43.6417" lon="2.41071">
        <ele>682.19</ele>
        <time>2013-08-31T09:20:32Z</time>
      </trkpt>
      <trkpt lat="43.64168" lon="2.41072">
        <ele>681.71</ele>
        <time>2013-08-31T09:20:33Z</time>
      </trkpt>
      <trkpt lat="43.64165" lon="2.41073">
        <ele>681.71</ele>
        <time>2013-08-31T09:20:34Z</time>
      </trkpt>
      <trkpt lat="43.64162" lon="2.41074">
        <ele>681.23</ele>
        <time>2013-08-31T09:20:35Z</time>
      </trkpt>
      <trkpt lat="43.64159" lon="2.41076">
        <ele>680.75</ele>
        <time>2013-08-31T09:20:36Z</time>
      </trkpt>
      <trkpt lat="43.64155" lon="2.41079">
        <ele>680.27</ele>
        <time>2013-08-31T09:20:37Z</time>
      </trkpt>
      <trkpt lat="43.64151" lon="2.41083">
        <ele>679.79</ele>
        <time>2013-08-31T09:20:38Z</time>
      </trkpt>
      <trkpt lat="43.64146" lon="2.41088">
        <ele>679.31</ele>
        <time>2013-08-31T09:20:39Z</time>
      </trkpt>
      <trkpt lat="43.64141" lon="2.41092">
        <ele>678.83</ele>
        <time>2013-08-31T09:20:40Z</time>
      </trkpt>
      <trkpt lat="43.64091" lon="2.41122">
        <ele>679.79</ele>
        <time>2013-08-31T09:20:53Z</time>
      </trkpt>
      <trkpt lat="43.6409" lon="2.41121">
        <ele>679.79</ele>
        <time>2013-08-31T09:20:54Z</time>
      </trkpt>
      <trkpt lat="43.64089" lon="2.4112">
        <ele>679.79</ele>
        <time>2013-08-31T09:20:55Z</time>
      </trkpt>
      <trkpt lat="43.64089" lon="2.41118">
        <ele>680.27</ele>
        <time>2013-08-31T09:20:56Z</time>
      </trkpt>
      <trkpt lat="43.64088" lon="2.41116">
        <ele>680.27</ele>
        <time>2013-08-31T09:20:57Z</time>
      </trkpt>
      <trkpt lat="43.64088" lon="2.41114">
        <ele>680.27</ele>
        <time>2013-08-31T09:20:58Z</time>
      </trkpt>
      <trkpt lat="43.64087" lon="2.41108">
        <ele>678.83</ele>
        <time>2013-08-31T09:21:01Z</time>
      </trkpt>
      <trkpt lat="43.64086" lon="2.41107">
        <ele>681.71</ele>
        <time>2013-08-31T09:21:02Z</time>
      </trkpt>
      <trkpt lat="43.64085" lon="2.41105">
        <ele>681.71</ele>
        <time>2013-08-31T09:21:03Z</time>
      </trkpt>
      <trkpt lat="43.64078" lon="2.41094">
        <ele>683.63</ele>
        <time>2013-08-31T09:21:12Z</time>
      </trkpt>
      <trkpt lat="43.64076" lon="2.41093">
        <ele>683.63</ele>
        <time>2013-08-31T09:21:13Z</time>
      </trkpt>
      <trkpt lat="43.64071" lon="2.41088">
        <ele>684.6</ele>
        <time>2013-08-31T09:21:17Z</time>
      </trkpt>
      <trkpt lat="43.64068" lon="2.41084">
        <ele>684.6</ele>
        <time>2013-08-31T09:21:20Z</time>
      </trkpt>
      <trkpt lat="43.64066" lon="2.41083">
        <ele>684.6</ele>
        <time>2013-08-31T09:21:21Z</time>
      </trkpt>
      <trkpt lat="43.64065" lon="2.41081">
        <ele>684.6</ele>
        <time>2013-08-31T09:21:22Z</time>
      </trkpt>
      <trkpt lat="43.64064" lon="2.4108">
        <ele>685.08</ele>
        <time>2013-08-31T09:21:23Z</time>
      </trkpt>
      <trkpt lat="43.64062" lon="2.41078">
        <ele>685.08</ele>
        <time>2013-08-31T09:21:24Z</time>
      </trkpt>
      <trkpt lat="43.64061" lon="2.41077">
        <ele>685.08</ele>
        <time>2013-08-31T09:21:25Z</time>
      </trkpt>
      <trkpt lat="43.64059" lon="2.41075">
        <ele>685.56</ele>
        <time>2013-08-31T09:21:26Z</time>
      </trkpt>
      <trkpt lat="43.64057" lon="2.41072">
        <ele>685.56</ele>
        <time>2013-08-31T09:21:28Z</time>
      </trkpt>
      <trkpt lat="43.64055" lon="2.41071">
        <ele>685.56</ele>
        <time>2013-08-31T09:21:29Z</time>
      </trkpt>
      <trkpt lat="43.64054" lon="2.4107">
        <ele>686.04</ele>
        <time>2013-08-31T09:21:30Z</time>
      </trkpt>
      <trkpt lat="43.64049" lon="2.41056">
        <ele>687.96</ele>
        <time>2013-08-31T09:21:40Z</time>
      </trkpt>
      <trkpt lat="43.6405" lon="2.41052">
        <ele>688.44</ele>
        <time>2013-08-31T09:21:42Z</time>
      </trkpt>
      <trkpt lat="43.6405" lon="2.4105">
        <ele>688.44</ele>
        <time>2013-08-31T09:21:43Z</time>
      </trkpt>
      <trkpt lat="43.6405" lon="2.41048">
        <ele>688.44</ele>
        <time>2013-08-31T09:21:44Z</time>
      </trkpt>
      <trkpt lat="43.64051" lon="2.41045">
        <ele>688.44</ele>
        <time>2013-08-31T09:21:45Z</time>
      </trkpt>
      <trkpt lat="43.64051" lon="2.41044">
        <ele>688.44</ele>
        <time>2013-08-31T09:21:46Z</time>
      </trkpt>
      <trkpt lat="43.64054" lon="2.4102">
        <ele>690.84</ele>
        <time>2013-08-31T09:21:57Z</time>
      </trkpt>
      <trkpt lat="43.64055" lon="2.41018">
        <ele>691.33</ele>
        <time>2013-08-31T09:21:59Z</time>
      </trkpt>
      <trkpt lat="43.64063" lon="2.41003">
        <ele>693.25</ele>
        <time>2013-08-31T09:22:10Z</time>
      </trkpt>
      <trkpt lat="43.64066" lon="2.4099">
        <ele>693.25</ele>
        <time>2013-08-31T09:22:17Z</time>
      </trkpt>
      <trkpt lat="43.64067" lon="2.40988">
        <ele>693.73</ele>
        <time>2013-08-31T09:22:18Z</time>
      </trkpt>
      <trkpt lat="43.64069" lon="2.40982">
        <ele>693.25</ele>
        <time>2013-08-31T09:22:20Z</time>
      </trkpt>
      <trkpt lat="43.64069" lon="2.40979">
        <ele>693.25</ele>
        <time>2013-08-31T09:22:21Z</time>
      </trkpt>
      <trkpt lat="43.64069" lon="2.40977">
        <ele>693.25</ele>
        <time>2013-08-31T09:22:22Z</time>
      </trkpt>
      <trkpt lat="43.64071" lon="2.40933">
        <ele>694.21</ele>
        <time>2013-08-31T09:22:33Z</time>
      </trkpt>
      <trkpt lat="43.64089" lon="2.40891">
        <ele>695.65</ele>
        <time>2013-08-31T09:22:46Z</time>
      </trkpt>
      <trkpt lat="43.64108" lon="2.4086">
        <ele>694.69</ele>
        <time>2013-08-31T09:22:56Z</time>
      </trkpt>
      <trkpt lat="43.64128" lon="2.40821">
        <ele>695.65</ele>
        <time>2013-08-31T09:23:07Z</time>
      </trkpt>
      <trkpt lat="43.64157" lon="2.40788">
        <ele>694.69</ele>
        <time>2013-08-31T09:23:18Z</time>
      </trkpt>
      <trkpt lat="43.64172" lon="2.40773">
        <ele>693.73</ele>
        <time>2013-08-31T09:23:24Z</time>
      </trkpt>
      <trkpt lat="43.64175" lon="2.40771">
        <ele>693.25</ele>
        <time>2013-08-31T09:23:25Z</time>
      </trkpt>
      <trkpt lat="43.64178" lon="2.40767">
        <ele>693.73</ele>
        <time>2013-08-31T09:23:26Z</time>
      </trkpt>
      <trkpt lat="43.6418" lon="2.40764">
        <ele>693.25</ele>
        <time>2013-08-31T09:23:27Z</time>
      </trkpt>
      <trkpt lat="43.64182" lon="2.40761">
        <ele>693.25</ele>
        <time>2013-08-31T09:23:28Z</time>
      </trkpt>
      <trkpt lat="43.64185" lon="2.40758">
        <ele>693.73</ele>
        <time>2013-08-31T09:23:29Z</time>
      </trkpt>
      <trkpt lat="43.64208" lon="2.4073">
        <ele>692.77</ele>
        <time>2013-08-31T09:23:39Z</time>
      </trkpt>
      <trkpt lat="43.64219" lon="2.40722">
        <ele>692.77</ele>
        <time>2013-08-31T09:23:44Z</time>
      </trkpt>
      <trkpt lat="43.64222" lon="2.40721">
        <ele>692.77</ele>
        <time>2013-08-31T09:23:45Z</time>
      </trkpt>
      <trkpt lat="43.64252" lon="2.40716">
        <ele>691.33</ele>
        <time>2013-08-31T09:23:55Z</time>
      </trkpt>
      <trkpt lat="43.64294" lon="2.40708">
        <ele>691.33</ele>
        <time>2013-08-31T09:24:06Z</time>
      </trkpt>
      <trkpt lat="43.64333" lon="2.40686">
        <ele>691.81</ele>
        <time>2013-08-31T09:24:18Z</time>
      </trkpt>
      <trkpt lat="43.64358" lon="2.40667">
        <ele>694.21</ele>
        <time>2013-08-31T09:24:31Z</time>
      </trkpt>
      <trkpt lat="43.6437" lon="2.40663">
        <ele>693.25</ele>
        <time>2013-08-31T09:24:37Z</time>
      </trkpt>
      <trkpt lat="43.64372" lon="2.40663">
        <ele>693.25</ele>
        <time>2013-08-31T09:24:38Z</time>
      </trkpt>
      <trkpt lat="43.64375" lon="2.40662">
        <ele>693.25</ele>
        <time>2013-08-31T09:24:39Z</time>
      </trkpt>
      <trkpt lat="43.64378" lon="2.4066">
        <ele>693.25</ele>
        <time>2013-08-31T09:24:40Z</time>
      </trkpt>
      <trkpt lat="43.6438" lon="2.40658">
        <ele>693.25</ele>
        <time>2013-08-31T09:24:41Z</time>
      </trkpt>
      <trkpt lat="43.64383" lon="2.40656">
        <ele>693.73</ele>
        <time>2013-08-31T09:24:42Z</time>
      </trkpt>
      <trkpt lat="43.64385" lon="2.40653">
        <ele>693.73</ele>
        <time>2013-08-31T09:24:43Z</time>
      </trkpt>
      <trkpt lat="43.64412" lon="2.40638">
        <ele>692.77</ele>
        <time>2013-08-31T09:24:53Z</time>
      </trkpt>
      <trkpt lat="43.64416" lon="2.40638">
        <ele>692.77</ele>
        <time>2013-08-31T09:24:54Z</time>
      </trkpt>
      <trkpt lat="43.6442" lon="2.40637">
        <ele>692.29</ele>
        <time>2013-08-31T09:24:55Z</time>
      </trkpt>
      <trkpt lat="43.64424" lon="2.40635">
        <ele>692.29</ele>
        <time>2013-08-31T09:24:56Z</time>
      </trkpt>
      <trkpt lat="43.64427" lon="2.40632">
        <ele>691.81</ele>
        <time>2013-08-31T09:24:57Z</time>
      </trkpt>
      <trkpt lat="43.6443" lon="2.4063">
        <ele>691.81</ele>
        <time>2013-08-31T09:24:58Z</time>
      </trkpt>
      <trkpt lat="43.64432" lon="2.40628">
        <ele>691.33</ele>
        <time>2013-08-31T09:24:59Z</time>
      </trkpt>
      <trkpt lat="43.64434" lon="2.40627">
        <ele>691.81</ele>
        <time>2013-08-31T09:25:00Z</time>
      </trkpt>
      <trkpt lat="43.64437" lon="2.40627">
        <ele>691.81</ele>
        <time>2013-08-31T09:25:02Z</time>
      </trkpt>
      <trkpt lat="43.64439" lon="2.40635">
        <ele>691.81</ele>
        <time>2013-08-31T09:25:05Z</time>
      </trkpt>
      <trkpt lat="43.64443" lon="2.40652">
        <ele>691.33</ele>
        <time>2013-08-31T09:25:11Z</time>
      </trkpt>
      <trkpt lat="43.64458" lon="2.40655">
        <ele>693.25</ele>
        <time>2013-08-31T09:25:20Z</time>
      </trkpt>
      <trkpt lat="43.64462" lon="2.40661">
        <ele>694.21</ele>
        <time>2013-08-31T09:25:24Z</time>
      </trkpt>
      <trkpt lat="43.64471" lon="2.4067">
        <ele>696.13</ele>
        <time>2013-08-31T09:25:37Z</time>
      </trkpt>
      <trkpt lat="43.64476" lon="2.40672">
        <ele>697.09</ele>
        <time>2013-08-31T09:25:41Z</time>
      </trkpt>
      <trkpt lat="43.6451" lon="2.40675">
        <ele>699.98</ele>
        <time>2013-08-31T09:25:56Z</time>
      </trkpt>
      <trkpt lat="43.64513" lon="2.40674">
        <ele>700.46</ele>
        <time>2013-08-31T09:25:57Z</time>
      </trkpt>
      <trkpt lat="43.64519" lon="2.4066">
        <ele>701.42</ele>
        <time>2013-08-31T09:26:05Z</time>
      </trkpt>
      <trkpt lat="43.64535" lon="2.40644">
        <ele>701.9</ele>
        <time>2013-08-31T09:26:13Z</time>
      </trkpt>
      <trkpt lat="43.64536" lon="2.40643">
        <ele>701.9</ele>
        <time>2013-08-31T09:26:14Z</time>
      </trkpt>
      <trkpt lat="43.64537" lon="2.40637">
        <ele>701.9</ele>
        <time>2013-08-31T09:26:16Z</time>
      </trkpt>
      <trkpt lat="43.64534" lon="2.40621">
        <ele>701.42</ele>
        <time>2013-08-31T09:26:21Z</time>
      </trkpt>
      <trkpt lat="43.64528" lon="2.40597">
        <ele>699.98</ele>
        <time>2013-08-31T09:26:28Z</time>
      </trkpt>
      <trkpt lat="43.64536" lon="2.40572">
        <ele>699.5</ele>
        <time>2013-08-31T09:26:35Z</time>
      </trkpt>
      <trkpt lat="43.64547" lon="2.40542">
        <ele>699.5</ele>
        <time>2013-08-31T09:26:42Z</time>
      </trkpt>
      <trkpt lat="43.64557" lon="2.40529">
        <ele>700.46</ele>
        <time>2013-08-31T09:26:47Z</time>
      </trkpt>
      <trkpt lat="43.64559" lon="2.40527">
        <ele>700.46</ele>
        <time>2013-08-31T09:26:49Z</time>
      </trkpt>
      <trkpt lat="43.64563" lon="2.40526">
        <ele>699.98</ele>
        <time>2013-08-31T09:26:50Z</time>
      </trkpt>
      <trkpt lat="43.64574" lon="2.40505">
        <ele>699.5</ele>
        <time>2013-08-31T09:26:55Z</time>
      </trkpt>
      <trkpt lat="43.64592" lon="2.40493">
        <ele>699.02</ele>
        <time>2013-08-31T09:27:01Z</time>
      </trkpt>
      <trkpt lat="43.64618" lon="2.40497">
        <ele>695.17</ele>
        <time>2013-08-31T09:27:09Z</time>
      </trkpt>
      <trkpt lat="43.64621" lon="2.405">
        <ele>694.21</ele>
        <time>2013-08-31T09:27:10Z</time>
      </trkpt>
      <trkpt lat="43.64631" lon="2.40506">
        <ele>690.84</ele>
        <time>2013-08-31T09:27:14Z</time>
      </trkpt>
      <trkpt lat="43.64633" lon="2.40506">
        <ele>690.36</ele>
        <time>2013-08-31T09:27:15Z</time>
      </trkpt>
      <trkpt lat="43.64638" lon="2.40503">
        <ele>688.44</ele>
        <time>2013-08-31T09:27:17Z</time>
      </trkpt>
      <trkpt lat="43.6464" lon="2.40501">
        <ele>688.44</ele>
        <time>2013-08-31T09:27:18Z</time>
      </trkpt>
      <trkpt lat="43.64639" lon="2.40492">
        <ele>687.48</ele>
        <time>2013-08-31T09:27:21Z</time>
      </trkpt>
      <trkpt lat="43.6463" lon="2.40482">
        <ele>685.56</ele>
        <time>2013-08-31T09:27:25Z</time>
      </trkpt>
      <trkpt lat="43.6463" lon="2.40479">
        <ele>685.56</ele>
        <time>2013-08-31T09:27:26Z</time>
      </trkpt>
      <trkpt lat="43.64635" lon="2.40467">
        <ele>684.6</ele>
        <time>2013-08-31T09:27:27Z</time>
      </trkpt>
      <trkpt lat="43.64662" lon="2.40413">
        <ele>679.79</ele>
        <time>2013-08-31T09:27:34Z</time>
      </trkpt>
      <trkpt lat="43.64666" lon="2.40395">
        <ele>678.35</ele>
        <time>2013-08-31T09:27:37Z</time>
      </trkpt>
      <trkpt lat="43.64666" lon="2.40379">
        <ele>677.39</ele>
        <time>2013-08-31T09:27:41Z</time>
      </trkpt>
      <trkpt lat="43.64705" lon="2.40315">
        <ele>677.39</ele>
        <time>2013-08-31T09:27:48Z</time>
      </trkpt>
      <trkpt lat="43.6472" lon="2.40288">
        <ele>677.87</ele>
        <time>2013-08-31T09:27:53Z</time>
      </trkpt>
      <trkpt lat="43.64761" lon="2.40232">
        <ele>676.42</ele>
        <time>2013-08-31T09:28:02Z</time>
      </trkpt>
      <trkpt lat="43.64797" lon="2.40189">
        <ele>674.98</ele>
        <time>2013-08-31T09:28:12Z</time>
      </trkpt>
      <trkpt lat="43.64806" lon="2.40177">
        <ele>674.5</ele>
        <time>2013-08-31T09:28:14Z</time>
      </trkpt>
      <trkpt lat="43.64814" lon="2.40169">
        <ele>674.5</ele>
        <time>2013-08-31T09:28:16Z</time>
      </trkpt>
      <trkpt lat="43.64826" lon="2.40144">
        <ele>674.02</ele>
        <time>2013-08-31T09:28:20Z</time>
      </trkpt>
      <trkpt lat="43.64828" lon="2.40134">
        <ele>674.02</ele>
        <time>2013-08-31T09:28:22Z</time>
      </trkpt>
      <trkpt lat="43.64835" lon="2.40103">
        <ele>671.62</ele>
        <time>2013-08-31T09:28:29Z</time>
      </trkpt>
      <trkpt lat="43.64844" lon="2.40071">
        <ele>668.25</ele>
        <time>2013-08-31T09:28:34Z</time>
      </trkpt>
      <trkpt lat="43.64846" lon="2.40063">
        <ele>667.29</ele>
        <time>2013-08-31T09:28:36Z</time>
      </trkpt>
      <trkpt lat="43.64857" lon="2.40049">
        <ele>663.45</ele>
        <time>2013-08-31T09:28:39Z</time>
      </trkpt>
      <trkpt lat="43.64875" lon="2.40001">
        <ele>662.01</ele>
        <time>2013-08-31T09:28:47Z</time>
      </trkpt>
      <trkpt lat="43.64875" lon="2.39993">
        <ele>662.49</ele>
        <time>2013-08-31T09:29:01Z</time>
      </trkpt>
      <trkpt lat="43.64867" lon="2.39974">
        <ele>660.56</ele>
        <time>2013-08-31T09:29:10Z</time>
      </trkpt>
      <trkpt lat="43.64864" lon="2.39971">
        <ele>660.08</ele>
        <time>2013-08-31T09:29:12Z</time>
      </trkpt>
      <trkpt lat="43.64856" lon="2.39951">
        <ele>656.24</ele>
        <time>2013-08-31T09:29:22Z</time>
      </trkpt>
      <trkpt lat="43.64848" lon="2.39948">
        <ele>653.35</ele>
        <time>2013-08-31T09:29:25Z</time>
      </trkpt>
      <trkpt lat="43.6484" lon="2.39936">
        <ele>650.47</ele>
        <time>2013-08-31T09:29:29Z</time>
      </trkpt>
      <trkpt lat="43.64793" lon="2.39918">
        <ele>648.55</ele>
        <time>2013-08-31T09:29:36Z</time>
      </trkpt>
      <trkpt lat="43.64786" lon="2.3992">
        <ele>648.55</ele>
        <time>2013-08-31T09:29:37Z</time>
      </trkpt>
      <trkpt lat="43.64769" lon="2.39924">
        <ele>648.55</ele>
        <time>2013-08-31T09:29:38Z</time>
      </trkpt>
      <trkpt lat="43.64756" lon="2.39926">
        <ele>649.03</ele>
        <time>2013-08-31T09:29:39Z</time>
      </trkpt>
      <trkpt lat="43.64748" lon="2.39923">
        <ele>649.03</ele>
        <time>2013-08-31T09:29:40Z</time>
      </trkpt>
      <trkpt lat="43.64741" lon="2.39919">
        <ele>649.51</ele>
        <time>2013-08-31T09:29:41Z</time>
      </trkpt>
      <trkpt lat="43.64735" lon="2.39916">
        <ele>649.51</ele>
        <time>2013-08-31T09:29:42Z</time>
      </trkpt>
      <trkpt lat="43.64729" lon="2.39913">
        <ele>649.51</ele>
        <time>2013-08-31T09:29:43Z</time>
      </trkpt>
      <trkpt lat="43.64724" lon="2.3991">
        <ele>649.51</ele>
        <time>2013-08-31T09:29:44Z</time>
      </trkpt>
      <trkpt lat="43.6472" lon="2.39908">
        <ele>649.99</ele>
        <time>2013-08-31T09:29:45Z</time>
      </trkpt>
      <trkpt lat="43.64716" lon="2.39906">
        <ele>649.99</ele>
        <time>2013-08-31T09:29:46Z</time>
      </trkpt>
      <trkpt lat="43.64713" lon="2.39904">
        <ele>649.51</ele>
        <time>2013-08-31T09:29:47Z</time>
      </trkpt>
      <trkpt lat="43.6471" lon="2.39902">
        <ele>649.99</ele>
        <time>2013-08-31T09:29:48Z</time>
      </trkpt>
      <trkpt lat="43.64694" lon="2.39897">
        <ele>648.55</ele>
        <time>2013-08-31T09:29:52Z</time>
      </trkpt>
      <trkpt lat="43.64689" lon="2.39895">
        <ele>648.07</ele>
        <time>2013-08-31T09:29:53Z</time>
      </trkpt>
      <trkpt lat="43.64676" lon="2.39894">
        <ele>646.14</ele>
        <time>2013-08-31T09:29:55Z</time>
      </trkpt>
      <trkpt lat="43.6467" lon="2.39895">
        <ele>645.66</ele>
        <time>2013-08-31T09:29:56Z</time>
      </trkpt>
      <trkpt lat="43.64663" lon="2.39898">
        <ele>645.18</ele>
        <time>2013-08-31T09:29:57Z</time>
      </trkpt>
      <trkpt lat="43.64648" lon="2.39902">
        <ele>644.22</ele>
        <time>2013-08-31T09:29:59Z</time>
      </trkpt>
      <trkpt lat="43.6464" lon="2.399">
        <ele>644.7</ele>
        <time>2013-08-31T09:30:00Z</time>
      </trkpt>
      <trkpt lat="43.64635" lon="2.39895">
        <ele>644.7</ele>
        <time>2013-08-31T09:30:01Z</time>
      </trkpt>
      <trkpt lat="43.6463" lon="2.39889">
        <ele>645.18</ele>
        <time>2013-08-31T09:30:02Z</time>
      </trkpt>
      <trkpt lat="43.64627" lon="2.39884">
        <ele>645.66</ele>
        <time>2013-08-31T09:30:03Z</time>
      </trkpt>
      <trkpt lat="43.64624" lon="2.3988">
        <ele>645.66</ele>
        <time>2013-08-31T09:30:04Z</time>
      </trkpt>
      <trkpt lat="43.64614" lon="2.39861">
        <ele>647.1</ele>
        <time>2013-08-31T09:30:11Z</time>
      </trkpt>
      <trkpt lat="43.64613" lon="2.39859">
        <ele>647.59</ele>
        <time>2013-08-31T09:30:12Z</time>
      </trkpt>
      <trkpt lat="43.64613" lon="2.39857">
        <ele>647.59</ele>
        <time>2013-08-31T09:30:13Z</time>
      </trkpt>
      <trkpt lat="43.64612" lon="2.39854">
        <ele>647.59</ele>
        <time>2013-08-31T09:30:14Z</time>
      </trkpt>
      <trkpt lat="43.64611" lon="2.39852">
        <ele>647.1</ele>
        <time>2013-08-31T09:30:15Z</time>
      </trkpt>
      <trkpt lat="43.64596" lon="2.39831">
        <ele>649.03</ele>
        <time>2013-08-31T09:30:25Z</time>
      </trkpt>
      <trkpt lat="43.64595" lon="2.39829">
        <ele>649.03</ele>
        <time>2013-08-31T09:30:26Z</time>
      </trkpt>
      <trkpt lat="43.64588" lon="2.39823">
        <ele>649.03</ele>
        <time>2013-08-31T09:30:29Z</time>
      </trkpt>
      <trkpt lat="43.64572" lon="2.39816">
        <ele>648.55</ele>
        <time>2013-08-31T09:30:38Z</time>
      </trkpt>
      <trkpt lat="43.64543" lon="2.39808">
        <ele>648.55</ele>
        <time>2013-08-31T09:30:49Z</time>
      </trkpt>
      <trkpt lat="43.64507" lon="2.39799">
        <ele>648.07</ele>
        <time>2013-08-31T09:30:59Z</time>
      </trkpt>
      <trkpt lat="43.64474" lon="2.39786">
        <ele>648.55</ele>
        <time>2013-08-31T09:31:10Z</time>
      </trkpt>
      <trkpt lat="43.64451" lon="2.39789">
        <ele>647.1</ele>
        <time>2013-08-31T09:31:19Z</time>
      </trkpt>
      <trkpt lat="43.64437" lon="2.39796">
        <ele>647.1</ele>
        <time>2013-08-31T09:31:24Z</time>
      </trkpt>
      <trkpt lat="43.64435" lon="2.39798">
        <ele>647.1</ele>
        <time>2013-08-31T09:31:25Z</time>
      </trkpt>
      <trkpt lat="43.64433" lon="2.39799">
        <ele>647.1</ele>
        <time>2013-08-31T09:31:26Z</time>
      </trkpt>
      <trkpt lat="43.64407" lon="2.39813">
        <ele>647.1</ele>
        <time>2013-08-31T09:31:35Z</time>
      </trkpt>
      <trkpt lat="43.64405" lon="2.39814">
        <ele>647.1</ele>
        <time>2013-08-31T09:31:36Z</time>
      </trkpt>
      <trkpt lat="43.64402" lon="2.39816">
        <ele>647.1</ele>
        <time>2013-08-31T09:31:37Z</time>
      </trkpt>
      <trkpt lat="43.64393" lon="2.39819">
        <ele>647.59</ele>
        <time>2013-08-31T09:31:41Z</time>
      </trkpt>
      <trkpt lat="43.64392" lon="2.3982">
        <ele>647.59</ele>
        <time>2013-08-31T09:31:42Z</time>
      </trkpt>
      <trkpt lat="43.64384" lon="2.39825">
        <ele>648.07</ele>
        <time>2013-08-31T09:31:52Z</time>
      </trkpt>
      <trkpt lat="43.6438" lon="2.39826">
        <ele>648.07</ele>
        <time>2013-08-31T09:31:55Z</time>
      </trkpt>
      <trkpt lat="43.64378" lon="2.39827">
        <ele>648.07</ele>
        <time>2013-08-31T09:31:56Z</time>
      </trkpt>
      <trkpt lat="43.64377" lon="2.39828">
        <ele>648.07</ele>
        <time>2013-08-31T09:31:57Z</time>
      </trkpt>
      <trkpt lat="43.64369" lon="2.39834">
        <ele>648.55</ele>
        <time>2013-08-31T09:32:04Z</time>
      </trkpt>
      <trkpt lat="43.64363" lon="2.39835">
        <ele>649.03</ele>
        <time>2013-08-31T09:32:08Z</time>
      </trkpt>
      <trkpt lat="43.64362" lon="2.39836">
        <ele>649.03</ele>
        <time>2013-08-31T09:32:09Z</time>
      </trkpt>
      <trkpt lat="43.64361" lon="2.39837">
        <ele>649.03</ele>
        <time>2013-08-31T09:32:10Z</time>
      </trkpt>
      <trkpt lat="43.64359" lon="2.39838">
        <ele>649.03</ele>
        <time>2013-08-31T09:32:11Z</time>
      </trkpt>
      <trkpt lat="43.64357" lon="2.39839">
        <ele>649.03</ele>
        <time>2013-08-31T09:32:12Z</time>
      </trkpt>
      <trkpt lat="43.64354" lon="2.39839">
        <ele>649.51</ele>
        <time>2013-08-31T09:32:14Z</time>
      </trkpt>
      <trkpt lat="43.64352" lon="2.39841">
        <ele>649.03</ele>
        <time>2013-08-31T09:32:15Z</time>
      </trkpt>
      <trkpt lat="43.64351" lon="2.39843">
        <ele>649.51</ele>
        <time>2013-08-31T09:32:16Z</time>
      </trkpt>
      <trkpt lat="43.64333" lon="2.3985">
        <ele>650.95</ele>
        <time>2013-08-31T09:32:26Z</time>
      </trkpt>
      <trkpt lat="43.64328" lon="2.39851">
        <ele>650.95</ele>
        <time>2013-08-31T09:32:28Z</time>
      </trkpt>
      <trkpt lat="43.64324" lon="2.39851">
        <ele>651.43</ele>
        <time>2013-08-31T09:32:31Z</time>
      </trkpt>
      <trkpt lat="43.64318" lon="2.39851">
        <ele>651.43</ele>
        <time>2013-08-31T09:32:34Z</time>
      </trkpt>
      <trkpt lat="43.64305" lon="2.39854">
        <ele>652.39</ele>
        <time>2013-08-31T09:32:46Z</time>
      </trkpt>
      <trkpt lat="43.64303" lon="2.39854">
        <ele>651.91</ele>
        <time>2013-08-31T09:32:59Z</time>
      </trkpt>
      <trkpt lat="43.643" lon="2.39856">
        <ele>651.91</ele>
        <time>2013-08-31T09:33:13Z</time>
      </trkpt>
      <trkpt lat="43.64297" lon="2.39856">
        <ele>651.91</ele>
        <time>2013-08-31T09:33:37Z</time>
      </trkpt>
      <trkpt lat="43.64283" lon="2.39853">
        <ele>652.87</ele>
        <time>2013-08-31T09:33:47Z</time>
      </trkpt>
      <trkpt lat="43.6427" lon="2.39846">
        <ele>654.31</ele>
        <time>2013-08-31T09:33:56Z</time>
      </trkpt>
      <trkpt lat="43.64268" lon="2.39845">
        <ele>654.8</ele>
        <time>2013-08-31T09:33:57Z</time>
      </trkpt>
      <trkpt lat="43.64264" lon="2.39843">
        <ele>654.8</ele>
        <time>2013-08-31T09:33:59Z</time>
      </trkpt>
      <trkpt lat="43.64259" lon="2.39841">
        <ele>654.8</ele>
        <time>2013-08-31T09:34:02Z</time>
      </trkpt>
      <trkpt lat="43.64258" lon="2.39839">
        <ele>655.28</ele>
        <time>2013-08-31T09:34:03Z</time>
      </trkpt>
      <trkpt lat="43.64253" lon="2.39837">
        <ele>655.28</ele>
        <time>2013-08-31T09:34:05Z</time>
      </trkpt>
      <trkpt lat="43.64239" lon="2.39832">
        <ele>655.76</ele>
        <time>2013-08-31T09:34:12Z</time>
      </trkpt>
      <trkpt lat="43.64235" lon="2.3983">
        <ele>656.72</ele>
        <time>2013-08-31T09:34:15Z</time>
      </trkpt>
      <trkpt lat="43.64232" lon="2.3983">
        <ele>656.24</ele>
        <time>2013-08-31T09:34:17Z</time>
      </trkpt>
      <trkpt lat="43.6423" lon="2.3983">
        <ele>656.72</ele>
        <time>2013-08-31T09:34:18Z</time>
      </trkpt>
      <trkpt lat="43.64229" lon="2.3983">
        <ele>656.72</ele>
        <time>2013-08-31T09:34:19Z</time>
      </trkpt>
      <trkpt lat="43.64226" lon="2.39829">
        <ele>656.72</ele>
        <time>2013-08-31T09:34:20Z</time>
      </trkpt>
      <trkpt lat="43.64224" lon="2.39829">
        <ele>657.2</ele>
        <time>2013-08-31T09:34:21Z</time>
      </trkpt>
      <trkpt lat="43.64222" lon="2.39829">
        <ele>657.68</ele>
        <time>2013-08-31T09:34:22Z</time>
      </trkpt>
      <trkpt lat="43.64216" lon="2.39828">
        <ele>657.68</ele>
        <time>2013-08-31T09:34:25Z</time>
      </trkpt>
      <trkpt lat="43.64213" lon="2.39829">
        <ele>657.68</ele>
        <time>2013-08-31T09:34:26Z</time>
      </trkpt>
      <trkpt lat="43.64194" lon="2.39839">
        <ele>659.12</ele>
        <time>2013-08-31T09:34:36Z</time>
      </trkpt>
      <trkpt lat="43.64179" lon="2.39844">
        <ele>658.64</ele>
        <time>2013-08-31T09:34:45Z</time>
      </trkpt>
      <trkpt lat="43.64178" lon="2.39843">
        <ele>658.64</ele>
        <time>2013-08-31T09:34:46Z</time>
      </trkpt>
      <trkpt lat="43.64175" lon="2.39839">
        <ele>658.16</ele>
        <time>2013-08-31T09:34:50Z</time>
      </trkpt>
      <trkpt lat="43.64175" lon="2.39838">
        <ele>658.16</ele>
        <time>2013-08-31T09:34:51Z</time>
      </trkpt>
      <trkpt lat="43.64175" lon="2.39824">
        <ele>657.2</ele>
        <time>2013-08-31T09:34:59Z</time>
      </trkpt>
      <trkpt lat="43.64174" lon="2.39821">
        <ele>656.72</ele>
        <time>2013-08-31T09:35:00Z</time>
      </trkpt>
      <trkpt lat="43.64173" lon="2.39819">
        <ele>656.72</ele>
        <time>2013-08-31T09:35:01Z</time>
      </trkpt>
      <trkpt lat="43.64171" lon="2.39789">
        <ele>656.24</ele>
        <time>2013-08-31T09:35:08Z</time>
      </trkpt>
      <trkpt lat="43.64172" lon="2.39785">
        <ele>655.76</ele>
        <time>2013-08-31T09:35:09Z</time>
      </trkpt>
      <trkpt lat="43.64174" lon="2.3978">
        <ele>655.76</ele>
        <time>2013-08-31T09:35:10Z</time>
      </trkpt>
      <trkpt lat="43.64175" lon="2.39777">
        <ele>656.24</ele>
        <time>2013-08-31T09:35:11Z</time>
      </trkpt>
      <trkpt lat="43.64176" lon="2.39774">
        <ele>656.24</ele>
        <time>2013-08-31T09:35:12Z</time>
      </trkpt>
      <trkpt lat="43.64178" lon="2.39767">
        <ele>655.76</ele>
        <time>2013-08-31T09:35:14Z</time>
      </trkpt>
      <trkpt lat="43.64179" lon="2.39763">
        <ele>655.76</ele>
        <time>2013-08-31T09:35:15Z</time>
      </trkpt>
      <trkpt lat="43.64179" lon="2.39761">
        <ele>655.28</ele>
        <time>2013-08-31T09:35:16Z</time>
      </trkpt>
      <trkpt lat="43.64179" lon="2.39758">
        <ele>655.28</ele>
        <time>2013-08-31T09:35:17Z</time>
      </trkpt>
      <trkpt lat="43.6418" lon="2.39754">
        <ele>655.28</ele>
        <time>2013-08-31T09:35:18Z</time>
      </trkpt>
      <trkpt lat="43.64187" lon="2.39698">
        <ele>654.8</ele>
        <time>2013-08-31T09:35:29Z</time>
      </trkpt>
      <trkpt lat="43.64187" lon="2.39675">
        <ele>654.8</ele>
        <time>2013-08-31T09:35:34Z</time>
      </trkpt>
      <trkpt lat="43.64186" lon="2.39671">
        <ele>654.8</ele>
        <time>2013-08-31T09:35:35Z</time>
      </trkpt>
      <trkpt lat="43.64185" lon="2.39654">
        <ele>655.28</ele>
        <time>2013-08-31T09:35:39Z</time>
      </trkpt>
      <trkpt lat="43.64186" lon="2.3965">
        <ele>654.8</ele>
        <time>2013-08-31T09:35:40Z</time>
      </trkpt>
      <trkpt lat="43.64188" lon="2.39644">
        <ele>655.28</ele>
        <time>2013-08-31T09:35:41Z</time>
      </trkpt>
      <trkpt lat="43.64189" lon="2.3964">
        <ele>655.28</ele>
        <time>2013-08-31T09:35:42Z</time>
      </trkpt>
      <trkpt lat="43.6419" lon="2.39636">
        <ele>655.76</ele>
        <time>2013-08-31T09:35:43Z</time>
      </trkpt>
      <trkpt lat="43.64191" lon="2.39632">
        <ele>655.28</ele>
        <time>2013-08-31T09:35:44Z</time>
      </trkpt>
      <trkpt lat="43.64193" lon="2.3963">
        <ele>655.28</ele>
        <time>2013-08-31T09:35:45Z</time>
      </trkpt>
      <trkpt lat="43.64206" lon="2.39613">
        <ele>655.28</ele>
        <time>2013-08-31T09:35:52Z</time>
      </trkpt>
      <trkpt lat="43.6423" lon="2.39581">
        <ele>653.35</ele>
        <time>2013-08-31T09:36:02Z</time>
      </trkpt>
      <trkpt lat="43.6424" lon="2.3956">
        <ele>652.39</ele>
        <time>2013-08-31T09:36:06Z</time>
      </trkpt>
      <trkpt lat="43.64245" lon="2.39547">
        <ele>651.43</ele>
        <time>2013-08-31T09:36:08Z</time>
      </trkpt>
      <trkpt lat="43.64248" lon="2.39541">
        <ele>650.47</ele>
        <time>2013-08-31T09:36:09Z</time>
      </trkpt>
      <trkpt lat="43.6426" lon="2.39516">
        <ele>648.07</ele>
        <time>2013-08-31T09:36:12Z</time>
      </trkpt>
      <trkpt lat="43.64274" lon="2.3949">
        <ele>645.66</ele>
        <time>2013-08-31T09:36:15Z</time>
      </trkpt>
      <trkpt lat="43.64279" lon="2.39482">
        <ele>645.66</ele>
        <time>2013-08-31T09:36:16Z</time>
      </trkpt>
      <trkpt lat="43.64302" lon="2.39449">
        <ele>643.26</ele>
        <time>2013-08-31T09:36:20Z</time>
      </trkpt>
      <trkpt lat="43.64326" lon="2.39419">
        <ele>641.82</ele>
        <time>2013-08-31T09:36:24Z</time>
      </trkpt>
      <trkpt lat="43.64356" lon="2.39377">
        <ele>640.38</ele>
        <time>2013-08-31T09:36:30Z</time>
      </trkpt>
      <trkpt lat="43.64364" lon="2.39356">
        <ele>639.41</ele>
        <time>2013-08-31T09:36:33Z</time>
      </trkpt>
      <trkpt lat="43.64371" lon="2.39335">
        <ele>639.89</ele>
        <time>2013-08-31T09:36:42Z</time>
      </trkpt>
      <trkpt lat="43.64375" lon="2.39326">
        <ele>639.89</ele>
        <time>2013-08-31T09:36:54Z</time>
      </trkpt>
      <trkpt lat="43.64374" lon="2.39327">
        <ele>639.89</ele>
        <time>2013-08-31T09:36:55Z</time>
      </trkpt>
      <trkpt lat="43.64366" lon="2.39346">
        <ele>640.38</ele>
        <time>2013-08-31T09:37:07Z</time>
      </trkpt>
      <trkpt lat="43.64363" lon="2.39349">
        <ele>640.38</ele>
        <time>2013-08-31T09:37:09Z</time>
      </trkpt>
      <trkpt lat="43.64361" lon="2.39358">
        <ele>640.86</ele>
        <time>2013-08-31T09:37:14Z</time>
      </trkpt>
      <trkpt lat="43.64349" lon="2.39374">
        <ele>641.34</ele>
        <time>2013-08-31T09:37:25Z</time>
      </trkpt>
      <trkpt lat="43.64338" lon="2.39391">
        <ele>641.82</ele>
        <time>2013-08-31T09:37:37Z</time>
      </trkpt>
      <trkpt lat="43.64337" lon="2.39395">
        <ele>642.3</ele>
        <time>2013-08-31T09:37:44Z</time>
      </trkpt>
      <trkpt lat="43.64342" lon="2.39388">
        <ele>641.82</ele>
        <time>2013-08-31T09:37:50Z</time>
      </trkpt>
      <trkpt lat="43.64353" lon="2.39377">
        <ele>641.34</ele>
        <time>2013-08-31T09:37:55Z</time>
      </trkpt>
      <trkpt lat="43.64355" lon="2.39371">
        <ele>640.86</ele>
        <time>2013-08-31T09:37:57Z</time>
      </trkpt>
      <trkpt lat="43.64371" lon="2.39338">
        <ele>639.89</ele>
        <time>2013-08-31T09:38:06Z</time>
      </trkpt>
      <trkpt lat="43.64377" lon="2.39322">
        <ele>639.41</ele>
        <time>2013-08-31T09:38:11Z</time>
      </trkpt>
      <trkpt lat="43.64394" lon="2.39288">
        <ele>638.93</ele>
        <time>2013-08-31T09:38:20Z</time>
      </trkpt>
      <trkpt lat="43.64403" lon="2.39268">
        <ele>637.49</ele>
        <time>2013-08-31T09:38:25Z</time>
      </trkpt>
      <trkpt lat="43.64427" lon="2.39232">
        <ele>635.57</ele>
        <time>2013-08-31T09:38:35Z</time>
      </trkpt>
      <trkpt lat="43.64447" lon="2.39199">
        <ele>633.17</ele>
        <time>2013-08-31T09:38:43Z</time>
      </trkpt>
      <trkpt lat="43.6447" lon="2.39166">
        <ele>632.2</ele>
        <time>2013-08-31T09:38:50Z</time>
      </trkpt>
      <trkpt lat="43.64473" lon="2.39163">
        <ele>631.72</ele>
        <time>2013-08-31T09:38:51Z</time>
      </trkpt>
      <trkpt lat="43.6449" lon="2.39145">
        <ele>630.76</ele>
        <time>2013-08-31T09:38:57Z</time>
      </trkpt>
      <trkpt lat="43.64497" lon="2.39136">
        <ele>629.32</ele>
        <time>2013-08-31T09:39:00Z</time>
      </trkpt>
      <trkpt lat="43.645" lon="2.39133">
        <ele>629.32</ele>
        <time>2013-08-31T09:39:01Z</time>
      </trkpt>
      <trkpt lat="43.64507" lon="2.39129">
        <ele>628.84</ele>
        <time>2013-08-31T09:39:03Z</time>
      </trkpt>
      <trkpt lat="43.64522" lon="2.39115">
        <ele>626.92</ele>
        <time>2013-08-31T09:39:08Z</time>
      </trkpt>
      <trkpt lat="43.6453" lon="2.39082">
        <ele>624.99</ele>
        <time>2013-08-31T09:39:15Z</time>
      </trkpt>
      <trkpt lat="43.64542" lon="2.39052">
        <ele>624.51</ele>
        <time>2013-08-31T09:39:19Z</time>
      </trkpt>
      <trkpt lat="43.64543" lon="2.3904">
        <ele>624.51</ele>
        <time>2013-08-31T09:39:22Z</time>
      </trkpt>
      <trkpt lat="43.6456" lon="2.39004">
        <ele>624.51</ele>
        <time>2013-08-31T09:39:34Z</time>
      </trkpt>
      <trkpt lat="43.64559" lon="2.39001">
        <ele>624.03</ele>
        <time>2013-08-31T09:39:47Z</time>
      </trkpt>
      <trkpt lat="43.64562" lon="2.38992">
        <ele>624.51</ele>
        <time>2013-08-31T09:40:00Z</time>
      </trkpt>
      <trkpt lat="43.64562" lon="2.38991">
        <ele>623.55</ele>
        <time>2013-08-31T09:40:10Z</time>
      </trkpt>
      <trkpt lat="43.64565" lon="2.38988">
        <ele>623.55</ele>
        <time>2013-08-31T09:40:14Z</time>
      </trkpt>
      <trkpt lat="43.64578" lon="2.38969">
        <ele>621.15</ele>
        <time>2013-08-31T09:40:21Z</time>
      </trkpt>
      <trkpt lat="43.6458" lon="2.38965">
        <ele>620.67</ele>
        <time>2013-08-31T09:40:22Z</time>
      </trkpt>
      <trkpt lat="43.64583" lon="2.3896">
        <ele>620.67</ele>
        <time>2013-08-31T09:40:23Z</time>
      </trkpt>
      <trkpt lat="43.64586" lon="2.38954">
        <ele>620.19</ele>
        <time>2013-08-31T09:40:24Z</time>
      </trkpt>
      <trkpt lat="43.64588" lon="2.38948">
        <ele>619.71</ele>
        <time>2013-08-31T09:40:25Z</time>
      </trkpt>
      <trkpt lat="43.64597" lon="2.38929">
        <ele>618.75</ele>
        <time>2013-08-31T09:40:28Z</time>
      </trkpt>
      <trkpt lat="43.646" lon="2.38916">
        <ele>617.78</ele>
        <time>2013-08-31T09:40:30Z</time>
      </trkpt>
      <trkpt lat="43.64602" lon="2.38907">
        <ele>617.78</ele>
        <time>2013-08-31T09:40:31Z</time>
      </trkpt>
      <trkpt lat="43.64607" lon="2.38881">
        <ele>617.78</ele>
        <time>2013-08-31T09:40:34Z</time>
      </trkpt>
      <trkpt lat="43.64607" lon="2.38847">
        <ele>615.86</ele>
        <time>2013-08-31T09:40:38Z</time>
      </trkpt>
      <trkpt lat="43.64606" lon="2.38839">
        <ele>615.38</ele>
        <time>2013-08-31T09:40:39Z</time>
      </trkpt>
      <trkpt lat="43.64604" lon="2.38823">
        <ele>614.9</ele>
        <time>2013-08-31T09:40:41Z</time>
      </trkpt>
      <trkpt lat="43.64604" lon="2.38815">
        <ele>614.9</ele>
        <time>2013-08-31T09:40:42Z</time>
      </trkpt>
      <trkpt lat="43.64604" lon="2.38807">
        <ele>613.94</ele>
        <time>2013-08-31T09:40:43Z</time>
      </trkpt>
      <trkpt lat="43.64603" lon="2.38773">
        <ele>612.5</ele>
        <time>2013-08-31T09:40:49Z</time>
      </trkpt>
      <trkpt lat="43.64602" lon="2.38769">
        <ele>612.02</ele>
        <time>2013-08-31T09:40:50Z</time>
      </trkpt>
      <trkpt lat="43.64601" lon="2.38765">
        <ele>612.02</ele>
        <time>2013-08-31T09:40:51Z</time>
      </trkpt>
      <trkpt lat="43.64597" lon="2.38756">
        <ele>610.57</ele>
        <time>2013-08-31T09:40:54Z</time>
      </trkpt>
      <trkpt lat="43.64597" lon="2.38753">
        <ele>611.06</ele>
        <time>2013-08-31T09:40:55Z</time>
      </trkpt>
      <trkpt lat="43.64595" lon="2.3875">
        <ele>611.06</ele>
        <time>2013-08-31T09:40:56Z</time>
      </trkpt>
      <trkpt lat="43.64581" lon="2.38725">
        <ele>608.17</ele>
        <time>2013-08-31T09:41:06Z</time>
      </trkpt>
      <trkpt lat="43.64581" lon="2.38722">
        <ele>608.17</ele>
        <time>2013-08-31T09:41:07Z</time>
      </trkpt>
      <trkpt lat="43.64572" lon="2.3869">
        <ele>607.69</ele>
        <time>2013-08-31T09:41:18Z</time>
      </trkpt>
      <trkpt lat="43.64571" lon="2.38666">
        <ele>608.17</ele>
        <time>2013-08-31T09:41:31Z</time>
      </trkpt>
      <trkpt lat="43.64571" lon="2.38672">
        <ele>607.69</ele>
        <time>2013-08-31T09:41:41Z</time>
      </trkpt>
      <trkpt lat="43.64571" lon="2.38677">
        <ele>607.69</ele>
        <time>2013-08-31T09:41:45Z</time>
      </trkpt>
      <trkpt lat="43.6457" lon="2.38678">
        <ele>607.69</ele>
        <time>2013-08-31T09:41:46Z</time>
      </trkpt>
      <trkpt lat="43.64569" lon="2.38679">
        <ele>607.69</ele>
        <time>2013-08-31T09:41:47Z</time>
      </trkpt>
      <trkpt lat="43.6456" lon="2.38684">
        <ele>607.69</ele>
        <time>2013-08-31T09:41:58Z</time>
      </trkpt>
      <trkpt lat="43.64558" lon="2.38688">
        <ele>608.17</ele>
        <time>2013-08-31T09:42:14Z</time>
      </trkpt>
      <trkpt lat="43.64558" lon="2.38687">
        <ele>607.21</ele>
        <time>2013-08-31T09:42:30Z</time>
      </trkpt>
      <trkpt lat="43.64557" lon="2.38687">
        <ele>607.21</ele>
        <time>2013-08-31T09:43:02Z</time>
      </trkpt>
      <trkpt lat="43.64557" lon="2.38686">
        <ele>606.73</ele>
        <time>2013-08-31T09:43:40Z</time>
      </trkpt>
      <trkpt lat="43.64559" lon="2.38687">
        <ele>606.73</ele>
        <time>2013-08-31T09:44:15Z</time>
      </trkpt>
      <trkpt lat="43.64557" lon="2.38687">
        <ele>607.21</ele>
        <time>2013-08-31T09:44:50Z</time>
      </trkpt>
      <trkpt lat="43.64557" lon="2.38686">
        <ele>606.25</ele>
        <time>2013-08-31T09:45:27Z</time>
      </trkpt>
      <trkpt lat="43.64558" lon="2.38685">
        <ele>606.25</ele>
        <time>2013-08-31T09:46:05Z</time>
      </trkpt>
      <trkpt lat="43.64558" lon="2.38686">
        <ele>606.73</ele>
        <time>2013-08-31T09:46:44Z</time>
      </trkpt>
      <trkpt lat="43.64559" lon="2.38686">
        <ele>606.25</ele>
        <time>2013-08-31T09:47:18Z</time>
      </trkpt>
      <trkpt lat="43.64559" lon="2.38686">
        <ele>606.25</ele>
        <time>2013-08-31T09:47:58Z</time>
      </trkpt>
      <trkpt lat="43.64559" lon="2.38686">
        <ele>606.25</ele>
        <time>2013-08-31T09:48:33Z</time>
      </trkpt>
      <trkpt lat="43.64558" lon="2.38686">
        <ele>605.77</ele>
        <time>2013-08-31T09:49:11Z</time>
      </trkpt>
      <trkpt lat="43.6456" lon="2.38689">
        <ele>605.77</ele>
        <time>2013-08-31T09:49:48Z</time>
      </trkpt>
      <trkpt lat="43.6456" lon="2.38689">
        <ele>605.77</ele>
        <time>2013-08-31T09:50:29Z</time>
      </trkpt>
      <trkpt lat="43.6456" lon="2.38687">
        <ele>605.77</ele>
        <time>2013-08-31T09:51:09Z</time>
      </trkpt>
      <trkpt lat="43.64559" lon="2.38687">
        <ele>605.77</ele>
        <time>2013-08-31T09:51:47Z</time>
      </trkpt>
      <trkpt lat="43.64559" lon="2.38687">
        <ele>605.77</ele>
        <time>2013-08-31T09:52:25Z</time>
      </trkpt>
      <trkpt lat="43.64559" lon="2.38689">
        <ele>605.29</ele>
        <time>2013-08-31T09:53:01Z</time>
      </trkpt>
      <trkpt lat="43.64558" lon="2.38688">
        <ele>604.81</ele>
        <time>2013-08-31T09:53:45Z</time>
      </trkpt>
      <trkpt lat="43.64557" lon="2.38688">
        <ele>605.29</ele>
        <time>2013-08-31T09:54:26Z</time>
      </trkpt>
      <trkpt lat="43.64558" lon="2.38692">
        <ele>604.81</ele>
        <time>2013-08-31T09:55:02Z</time>
      </trkpt>
      <trkpt lat="43.64558" lon="2.38692">
        <ele>604.81</ele>
        <time>2013-08-31T09:55:37Z</time>
      </trkpt>
      <trkpt lat="43.64557" lon="2.38691">
        <ele>604.81</ele>
        <time>2013-08-31T09:56:16Z</time>
      </trkpt>
      <trkpt lat="43.64558" lon="2.38692">
        <ele>605.29</ele>
        <time>2013-08-31T09:56:55Z</time>
      </trkpt>
      <trkpt lat="43.64557" lon="2.38691">
        <ele>605.29</ele>
        <time>2013-08-31T09:57:31Z</time>
      </trkpt>
      <trkpt lat="43.64556" lon="2.38691">
        <ele>605.29</ele>
        <time>2013-08-31T09:58:05Z</time>
      </trkpt>
      <trkpt lat="43.64556" lon="2.3869">
        <ele>605.77</ele>
        <time>2013-08-31T09:58:30Z</time>
      </trkpt>
      <trkpt lat="43.64557" lon="2.3869">
        <ele>605.77</ele>
        <time>2013-08-31T09:58:38Z</time>
      </trkpt>
      <trkpt lat="43.64562" lon="2.38692">
        <ele>605.77</ele>
        <time>2013-08-31T09:58:42Z</time>
      </trkpt>
      <trkpt lat="43.64569" lon="2.38691">
        <ele>605.77</ele>
        <time>2013-08-31T09:58:47Z</time>
      </trkpt>
      <trkpt lat="43.6457" lon="2.38682">
        <ele>605.29</ele>
        <time>2013-08-31T09:58:52Z</time>
      </trkpt>
      <trkpt lat="43.64568" lon="2.38677">
        <ele>605.29</ele>
        <time>2013-08-31T09:58:54Z</time>
      </trkpt>
      <trkpt lat="43.64573" lon="2.38632">
        <ele>605.29</ele>
        <time>2013-08-31T09:59:06Z</time>
      </trkpt>
      <trkpt lat="43.64573" lon="2.38628">
        <ele>605.29</ele>
        <time>2013-08-31T09:59:07Z</time>
      </trkpt>
      <trkpt lat="43.64573" lon="2.38576">
        <ele>605.77</ele>
        <time>2013-08-31T09:59:21Z</time>
      </trkpt>
      <trkpt lat="43.64572" lon="2.38565">
        <ele>605.29</ele>
        <time>2013-08-31T09:59:24Z</time>
      </trkpt>
      <trkpt lat="43.64573" lon="2.3854">
        <ele>605.29</ele>
        <time>2013-08-31T09:59:31Z</time>
      </trkpt>
      <trkpt lat="43.64576" lon="2.38524">
        <ele>605.77</ele>
        <time>2013-08-31T09:59:42Z</time>
      </trkpt>
      <trkpt lat="43.64579" lon="2.38529">
        <ele>605.29</ele>
        <time>2013-08-31T09:59:53Z</time>
      </trkpt>
      <trkpt lat="43.64586" lon="2.38548">
        <ele>603.85</ele>
        <time>2013-08-31T10:00:06Z</time>
      </trkpt>
      <trkpt lat="43.64593" lon="2.38556">
        <ele>602.4</ele>
        <time>2013-08-31T10:00:18Z</time>
      </trkpt>
      <trkpt lat="43.64595" lon="2.38561">
        <ele>602.88</ele>
        <time>2013-08-31T10:00:29Z</time>
      </trkpt>
      <trkpt lat="43.64599" lon="2.38561">
        <ele>602.4</ele>
        <time>2013-08-31T10:00:41Z</time>
      </trkpt>
      <trkpt lat="43.64602" lon="2.38561">
        <ele>602.4</ele>
        <time>2013-08-31T10:00:52Z</time>
      </trkpt>
      <trkpt lat="43.64601" lon="2.38564">
        <ele>602.4</ele>
        <time>2013-08-31T10:01:08Z</time>
      </trkpt>
      <trkpt lat="43.64612" lon="2.38561">
        <ele>602.4</ele>
        <time>2013-08-31T10:01:15Z</time>
      </trkpt>
      <trkpt lat="43.64628" lon="2.38557">
        <ele>602.88</ele>
        <time>2013-08-31T10:01:25Z</time>
      </trkpt>
      <trkpt lat="43.64633" lon="2.38559">
        <ele>601.92</ele>
        <time>2013-08-31T10:01:29Z</time>
      </trkpt>
      <trkpt lat="43.64638" lon="2.38561">
        <ele>601.92</ele>
        <time>2013-08-31T10:01:31Z</time>
      </trkpt>
      <trkpt lat="43.64659" lon="2.38556">
        <ele>601.44</ele>
        <time>2013-08-31T10:01:39Z</time>
      </trkpt>
      <trkpt lat="43.64665" lon="2.38556">
        <ele>602.4</ele>
        <time>2013-08-31T10:01:43Z</time>
      </trkpt>
      <trkpt lat="43.64682" lon="2.38555">
        <ele>601.44</ele>
        <time>2013-08-31T10:01:53Z</time>
      </trkpt>
      <trkpt lat="43.64694" lon="2.38556">
        <ele>601.44</ele>
        <time>2013-08-31T10:01:58Z</time>
      </trkpt>
      <trkpt lat="43.64707" lon="2.38554">
        <ele>601.92</ele>
        <time>2013-08-31T10:02:05Z</time>
      </trkpt>
      <trkpt lat="43.64727" lon="2.3855">
        <ele>601.92</ele>
        <time>2013-08-31T10:02:17Z</time>
      </trkpt>
      <trkpt lat="43.64728" lon="2.38552">
        <ele>601.92</ele>
        <time>2013-08-31T10:02:27Z</time>
      </trkpt>
      <trkpt lat="43.64734" lon="2.38556">
        <ele>601.92</ele>
        <time>2013-08-31T10:02:39Z</time>
      </trkpt>
      <trkpt lat="43.64742" lon="2.38557">
        <ele>600.96</ele>
        <time>2013-08-31T10:02:46Z</time>
      </trkpt>
      <trkpt lat="43.6476" lon="2.3855">
        <ele>601.92</ele>
        <time>2013-08-31T10:02:56Z</time>
      </trkpt>
      <trkpt lat="43.64781" lon="2.38534">
        <ele>602.4</ele>
        <time>2013-08-31T10:03:07Z</time>
      </trkpt>
      <trkpt lat="43.64784" lon="2.38534">
        <ele>602.4</ele>
        <time>2013-08-31T10:03:09Z</time>
      </trkpt>
      <trkpt lat="43.64794" lon="2.38524">
        <ele>602.88</ele>
        <time>2013-08-31T10:03:21Z</time>
      </trkpt>
      <trkpt lat="43.64796" lon="2.38525">
        <ele>602.88</ele>
        <time>2013-08-31T10:03:25Z</time>
      </trkpt>
      <trkpt lat="43.64799" lon="2.38528">
        <ele>602.88</ele>
        <time>2013-08-31T10:03:37Z</time>
      </trkpt>
      <trkpt lat="43.648" lon="2.38527">
        <ele>602.88</ele>
        <time>2013-08-31T10:03:38Z</time>
      </trkpt>
      <trkpt lat="43.64809" lon="2.38524">
        <ele>602.4</ele>
        <time>2013-08-31T10:03:49Z</time>
      </trkpt>
      <trkpt lat="43.64812" lon="2.38524">
        <ele>602.4</ele>
        <time>2013-08-31T10:04:05Z</time>
      </trkpt>
      <trkpt lat="43.64814" lon="2.38519">
        <ele>602.4</ele>
        <time>2013-08-31T10:04:11Z</time>
      </trkpt>
      <trkpt lat="43.64817" lon="2.38513">
        <ele>602.88</ele>
        <time>2013-08-31T10:04:16Z</time>
      </trkpt>
      <trkpt lat="43.64819" lon="2.38508">
        <ele>602.4</ele>
        <time>2013-08-31T10:04:20Z</time>
      </trkpt>
      <trkpt lat="43.64824" lon="2.3849">
        <ele>603.36</ele>
        <time>2013-08-31T10:04:33Z</time>
      </trkpt>
      <trkpt lat="43.64825" lon="2.38489">
        <ele>603.36</ele>
        <time>2013-08-31T10:04:35Z</time>
      </trkpt>
      <trkpt lat="43.64838" lon="2.38481">
        <ele>601.92</ele>
        <time>2013-08-31T10:04:41Z</time>
      </trkpt>
      <trkpt lat="43.6484" lon="2.38479">
        <ele>601.92</ele>
        <time>2013-08-31T10:04:42Z</time>
      </trkpt>
      <trkpt lat="43.64849" lon="2.3848">
        <ele>601.92</ele>
        <time>2013-08-31T10:04:53Z</time>
      </trkpt>
      <trkpt lat="43.64854" lon="2.38467">
        <ele>602.4</ele>
        <time>2013-08-31T10:04:59Z</time>
      </trkpt>
      <trkpt lat="43.64849" lon="2.38428">
        <ele>602.4</ele>
        <time>2013-08-31T10:05:11Z</time>
      </trkpt>
      <trkpt lat="43.64835" lon="2.38381">
        <ele>603.85</ele>
        <time>2013-08-31T10:05:25Z</time>
      </trkpt>
      <trkpt lat="43.64802" lon="2.38351">
        <ele>604.81</ele>
        <time>2013-08-31T10:05:40Z</time>
      </trkpt>
      <trkpt lat="43.64771" lon="2.38349">
        <ele>606.25</ele>
        <time>2013-08-31T10:05:52Z</time>
      </trkpt>
      <trkpt lat="43.64735" lon="2.38367">
        <ele>608.17</ele>
        <time>2013-08-31T10:06:06Z</time>
      </trkpt>
      <trkpt lat="43.64712" lon="2.38379">
        <ele>609.61</ele>
        <time>2013-08-31T10:06:16Z</time>
      </trkpt>
      <trkpt lat="43.6468" lon="2.38397">
        <ele>611.54</ele>
        <time>2013-08-31T10:06:29Z</time>
      </trkpt>
      <trkpt lat="43.6464" lon="2.38405">
        <ele>613.94</ele>
        <time>2013-08-31T10:06:44Z</time>
      </trkpt>
      <trkpt lat="43.6461" lon="2.38396">
        <ele>614.9</ele>
        <time>2013-08-31T10:06:54Z</time>
      </trkpt>
      <trkpt lat="43.64599" lon="2.38389">
        <ele>615.38</ele>
        <time>2013-08-31T10:06:58Z</time>
      </trkpt>
      <trkpt lat="43.64552" lon="2.3836">
        <ele>618.26</ele>
        <time>2013-08-31T10:07:14Z</time>
      </trkpt>
      <trkpt lat="43.6453" lon="2.38329">
        <ele>620.19</ele>
        <time>2013-08-31T10:07:24Z</time>
      </trkpt>
      <trkpt lat="43.64507" lon="2.38288">
        <ele>622.59</ele>
        <time>2013-08-31T10:07:36Z</time>
      </trkpt>
      <trkpt lat="43.6449" lon="2.38254">
        <ele>624.51</ele>
        <time>2013-08-31T10:07:46Z</time>
      </trkpt>
      <trkpt lat="43.64462" lon="2.38214">
        <ele>626.92</ele>
        <time>2013-08-31T10:07:59Z</time>
      </trkpt>
      <trkpt lat="43.64427" lon="2.38164">
        <ele>626.92</ele>
        <time>2013-08-31T10:08:13Z</time>
      </trkpt>
      <trkpt lat="43.64424" lon="2.38159">
        <ele>627.4</ele>
        <time>2013-08-31T10:08:14Z</time>
      </trkpt>
      <trkpt lat="43.64421" lon="2.38155">
        <ele>626.92</ele>
        <time>2013-08-31T10:08:15Z</time>
      </trkpt>
      <trkpt lat="43.64393" lon="2.38113">
        <ele>628.36</ele>
        <time>2013-08-31T10:08:27Z</time>
      </trkpt>
      <trkpt lat="43.64383" lon="2.38107">
        <ele>627.88</ele>
        <time>2013-08-31T10:08:31Z</time>
      </trkpt>
      <trkpt lat="43.64381" lon="2.38109">
        <ele>627.4</ele>
        <time>2013-08-31T10:08:32Z</time>
      </trkpt>
      <trkpt lat="43.64378" lon="2.38111">
        <ele>627.88</ele>
        <time>2013-08-31T10:08:33Z</time>
      </trkpt>
      <trkpt lat="43.64375" lon="2.38113">
        <ele>628.36</ele>
        <time>2013-08-31T10:08:34Z</time>
      </trkpt>
      <trkpt lat="43.64373" lon="2.38116">
        <ele>627.88</ele>
        <time>2013-08-31T10:08:35Z</time>
      </trkpt>
      <trkpt lat="43.64371" lon="2.38119">
        <ele>628.36</ele>
        <time>2013-08-31T10:08:36Z</time>
      </trkpt>
      <trkpt lat="43.64369" lon="2.38123">
        <ele>627.88</ele>
        <time>2013-08-31T10:08:37Z</time>
      </trkpt>
      <trkpt lat="43.64342" lon="2.38145">
        <ele>629.8</ele>
        <time>2013-08-31T10:08:49Z</time>
      </trkpt>
      <trkpt lat="43.64318" lon="2.38155">
        <ele>630.76</ele>
        <time>2013-08-31T10:08:59Z</time>
      </trkpt>
      <trkpt lat="43.64299" lon="2.38184">
        <ele>632.2</ele>
        <time>2013-08-31T10:09:11Z</time>
      </trkpt>
      <trkpt lat="43.64295" lon="2.38191">
        <ele>631.72</ele>
        <time>2013-08-31T10:09:14Z</time>
      </trkpt>
      <trkpt lat="43.64295" lon="2.38193">
        <ele>632.2</ele>
        <time>2013-08-31T10:09:15Z</time>
      </trkpt>
      <trkpt lat="43.64294" lon="2.38195">
        <ele>631.72</ele>
        <time>2013-08-31T10:09:16Z</time>
      </trkpt>
      <trkpt lat="43.64285" lon="2.38204">
        <ele>633.17</ele>
        <time>2013-08-31T10:09:21Z</time>
      </trkpt>
      <trkpt lat="43.64284" lon="2.38206">
        <ele>633.17</ele>
        <time>2013-08-31T10:09:22Z</time>
      </trkpt>
      <trkpt lat="43.64282" lon="2.38207">
        <ele>633.17</ele>
        <time>2013-08-31T10:09:23Z</time>
      </trkpt>
      <trkpt lat="43.64256" lon="2.38219">
        <ele>635.57</ele>
        <time>2013-08-31T10:09:34Z</time>
      </trkpt>
      <trkpt lat="43.64251" lon="2.3822">
        <ele>635.57</ele>
        <time>2013-08-31T10:09:36Z</time>
      </trkpt>
      <trkpt lat="43.64249" lon="2.3822">
        <ele>635.57</ele>
        <time>2013-08-31T10:09:37Z</time>
      </trkpt>
      <trkpt lat="43.64248" lon="2.38221">
        <ele>636.05</ele>
        <time>2013-08-31T10:09:38Z</time>
      </trkpt>
      <trkpt lat="43.64246" lon="2.38221">
        <ele>635.57</ele>
        <time>2013-08-31T10:09:39Z</time>
      </trkpt>
      <trkpt lat="43.64245" lon="2.38221">
        <ele>636.05</ele>
        <time>2013-08-31T10:09:40Z</time>
      </trkpt>
      <trkpt lat="43.64243" lon="2.38221">
        <ele>636.05</ele>
        <time>2013-08-31T10:09:41Z</time>
      </trkpt>
      <trkpt lat="43.64208" lon="2.3823">
        <ele>637.49</ele>
        <time>2013-08-31T10:09:53Z</time>
      </trkpt>
      <trkpt lat="43.64175" lon="2.38235">
        <ele>635.57</ele>
        <time>2013-08-31T10:10:03Z</time>
      </trkpt>
      <trkpt lat="43.64137" lon="2.38248">
        <ele>634.13</ele>
        <time>2013-08-31T10:10:16Z</time>
      </trkpt>
      <trkpt lat="43.64101" lon="2.38253">
        <ele>634.61</ele>
        <time>2013-08-31T10:10:27Z</time>
      </trkpt>
      <trkpt lat="43.64086" lon="2.38253">
        <ele>636.05</ele>
        <time>2013-08-31T10:10:33Z</time>
      </trkpt>
      <trkpt lat="43.64085" lon="2.38253">
        <ele>636.53</ele>
        <time>2013-08-31T10:10:34Z</time>
      </trkpt>
      <trkpt lat="43.6406" lon="2.38269">
        <ele>638.45</ele>
        <time>2013-08-31T10:10:44Z</time>
      </trkpt>
      <trkpt lat="43.64032" lon="2.38286">
        <ele>639.89</ele>
        <time>2013-08-31T10:10:56Z</time>
      </trkpt>
      <trkpt lat="43.64022" lon="2.3829">
        <ele>639.89</ele>
        <time>2013-08-31T10:11:01Z</time>
      </trkpt>
      <trkpt lat="43.6402" lon="2.38291">
        <ele>639.89</ele>
        <time>2013-08-31T10:11:02Z</time>
      </trkpt>
      <trkpt lat="43.64017" lon="2.38292">
        <ele>639.89</ele>
        <time>2013-08-31T10:11:03Z</time>
      </trkpt>
      <trkpt lat="43.64015" lon="2.38293">
        <ele>639.41</ele>
        <time>2013-08-31T10:11:04Z</time>
      </trkpt>
      <trkpt lat="43.64013" lon="2.38294">
        <ele>639.41</ele>
        <time>2013-08-31T10:11:05Z</time>
      </trkpt>
      <trkpt lat="43.6401" lon="2.38295">
        <ele>639.89</ele>
        <time>2013-08-31T10:11:06Z</time>
      </trkpt>
      <trkpt lat="43.63977" lon="2.38296">
        <ele>639.41</ele>
        <time>2013-08-31T10:11:18Z</time>
      </trkpt>
      <trkpt lat="43.63963" lon="2.38291">
        <ele>638.93</ele>
        <time>2013-08-31T10:11:25Z</time>
      </trkpt>
      <trkpt lat="43.63959" lon="2.3829">
        <ele>637.97</ele>
        <time>2013-08-31T10:11:26Z</time>
      </trkpt>
      <trkpt lat="43.63955" lon="2.38289">
        <ele>637.49</ele>
        <time>2013-08-31T10:11:27Z</time>
      </trkpt>
      <trkpt lat="43.63949" lon="2.38289">
        <ele>637.49</ele>
        <time>2013-08-31T10:11:28Z</time>
      </trkpt>
      <trkpt lat="43.63944" lon="2.38291">
        <ele>637.01</ele>
        <time>2013-08-31T10:11:29Z</time>
      </trkpt>
      <trkpt lat="43.63918" lon="2.38309">
        <ele>635.09</ele>
        <time>2013-08-31T10:11:37Z</time>
      </trkpt>
      <trkpt lat="43.63912" lon="2.38307">
        <ele>634.61</ele>
        <time>2013-08-31T10:11:39Z</time>
      </trkpt>
      <trkpt lat="43.63913" lon="2.38286">
        <ele>633.17</ele>
        <time>2013-08-31T10:11:49Z</time>
      </trkpt>
      <trkpt lat="43.63923" lon="2.38271">
        <ele>632.2</ele>
        <time>2013-08-31T10:11:53Z</time>
      </trkpt>
      <trkpt lat="43.63941" lon="2.38247">
        <ele>629.32</ele>
        <time>2013-08-31T10:11:59Z</time>
      </trkpt>
      <trkpt lat="43.63945" lon="2.38241">
        <ele>627.88</ele>
        <time>2013-08-31T10:12:00Z</time>
      </trkpt>
      <trkpt lat="43.63958" lon="2.3822">
        <ele>624.99</ele>
        <time>2013-08-31T10:12:03Z</time>
      </trkpt>
      <trkpt lat="43.63964" lon="2.38212">
        <ele>623.07</ele>
        <time>2013-08-31T10:12:04Z</time>
      </trkpt>
      <trkpt lat="43.63971" lon="2.38204">
        <ele>621.63</ele>
        <time>2013-08-31T10:12:05Z</time>
      </trkpt>
      <trkpt lat="43.64001" lon="2.3816">
        <ele>618.26</ele>
        <time>2013-08-31T10:12:09Z</time>
      </trkpt>
      <trkpt lat="43.64007" lon="2.38149">
        <ele>617.78</ele>
        <time>2013-08-31T10:12:10Z</time>
      </trkpt>
      <trkpt lat="43.64012" lon="2.38136">
        <ele>617.3</ele>
        <time>2013-08-31T10:12:11Z</time>
      </trkpt>
      <trkpt lat="43.64016" lon="2.38124">
        <ele>616.82</ele>
        <time>2013-08-31T10:12:12Z</time>
      </trkpt>
      <trkpt lat="43.6403" lon="2.38067">
        <ele>617.3</ele>
        <time>2013-08-31T10:12:17Z</time>
      </trkpt>
      <trkpt lat="43.64032" lon="2.38056">
        <ele>616.34</ele>
        <time>2013-08-31T10:12:18Z</time>
      </trkpt>
      <trkpt lat="43.64042" lon="2.38018">
        <ele>616.34</ele>
        <time>2013-08-31T10:12:22Z</time>
      </trkpt>
      <trkpt lat="43.64059" lon="2.37973">
        <ele>615.86</ele>
        <time>2013-08-31T10:12:28Z</time>
      </trkpt>
      <trkpt lat="43.64065" lon="2.37942">
        <ele>616.34</ele>
        <time>2013-08-31T10:12:33Z</time>
      </trkpt>
      <trkpt lat="43.64067" lon="2.37938">
        <ele>616.34</ele>
        <time>2013-08-31T10:12:34Z</time>
      </trkpt>
      <trkpt lat="43.64068" lon="2.37933">
        <ele>616.34</ele>
        <time>2013-08-31T10:12:35Z</time>
      </trkpt>
      <trkpt lat="43.64069" lon="2.3793">
        <ele>615.86</ele>
        <time>2013-08-31T10:12:36Z</time>
      </trkpt>
      <trkpt lat="43.64069" lon="2.37926">
        <ele>615.86</ele>
        <time>2013-08-31T10:12:37Z</time>
      </trkpt>
      <trkpt lat="43.6407" lon="2.37921">
        <ele>615.38</ele>
        <time>2013-08-31T10:12:38Z</time>
      </trkpt>
      <trkpt lat="43.64072" lon="2.37903">
        <ele>613.46</ele>
        <time>2013-08-31T10:12:41Z</time>
      </trkpt>
      <trkpt lat="43.64082" lon="2.37884">
        <ele>613.46</ele>
        <time>2013-08-31T10:12:43Z</time>
      </trkpt>
      <trkpt lat="43.64087" lon="2.37876">
        <ele>613.46</ele>
        <time>2013-08-31T10:12:44Z</time>
      </trkpt>
      <trkpt lat="43.64092" lon="2.3787">
        <ele>613.46</ele>
        <time>2013-08-31T10:12:45Z</time>
      </trkpt>
      <trkpt lat="43.64096" lon="2.37865">
        <ele>613.46</ele>
        <time>2013-08-31T10:12:46Z</time>
      </trkpt>
      <trkpt lat="43.64098" lon="2.37861">
        <ele>613.94</ele>
        <time>2013-08-31T10:12:47Z</time>
      </trkpt>
      <trkpt lat="43.64098" lon="2.3785">
        <ele>613.46</ele>
        <time>2013-08-31T10:12:55Z</time>
      </trkpt>
      <trkpt lat="43.641" lon="2.37847">
        <ele>613.46</ele>
        <time>2013-08-31T10:12:56Z</time>
      </trkpt>
      <trkpt lat="43.64116" lon="2.37852">
        <ele>613.46</ele>
        <time>2013-08-31T10:13:03Z</time>
      </trkpt>
      <trkpt lat="43.64129" lon="2.37827">
        <ele>612.5</ele>
        <time>2013-08-31T10:13:09Z</time>
      </trkpt>
      <trkpt lat="43.64124" lon="2.37752">
        <ele>612.02</ele>
        <time>2013-08-31T10:13:22Z</time>
      </trkpt>
      <trkpt lat="43.64113" lon="2.37699">
        <ele>611.54</ele>
        <time>2013-08-31T10:13:31Z</time>
      </trkpt>
      <trkpt lat="43.64111" lon="2.37694">
        <ele>611.54</ele>
        <time>2013-08-31T10:13:32Z</time>
      </trkpt>
      <trkpt lat="43.64109" lon="2.3769">
        <ele>611.54</ele>
        <time>2013-08-31T10:13:33Z</time>
      </trkpt>
      <trkpt lat="43.64106" lon="2.37685">
        <ele>611.06</ele>
        <time>2013-08-31T10:13:34Z</time>
      </trkpt>
      <trkpt lat="43.64103" lon="2.3768">
        <ele>610.57</ele>
        <time>2013-08-31T10:13:35Z</time>
      </trkpt>
      <trkpt lat="43.64097" lon="2.37669">
        <ele>609.13</ele>
        <time>2013-08-31T10:13:37Z</time>
      </trkpt>
      <trkpt lat="43.64094" lon="2.37663">
        <ele>609.13</ele>
        <time>2013-08-31T10:13:38Z</time>
      </trkpt>
      <trkpt lat="43.64088" lon="2.37643">
        <ele>609.13</ele>
        <time>2013-08-31T10:13:41Z</time>
      </trkpt>
      <trkpt lat="43.64087" lon="2.37636">
        <ele>608.65</ele>
        <time>2013-08-31T10:13:42Z</time>
      </trkpt>
      <trkpt lat="43.64086" lon="2.37628">
        <ele>608.65</ele>
        <time>2013-08-31T10:13:43Z</time>
      </trkpt>
      <trkpt lat="43.64087" lon="2.37621">
        <ele>608.17</ele>
        <time>2013-08-31T10:13:44Z</time>
      </trkpt>
      <trkpt lat="43.64088" lon="2.37613">
        <ele>608.17</ele>
        <time>2013-08-31T10:13:45Z</time>
      </trkpt>
      <trkpt lat="43.6409" lon="2.37606">
        <ele>608.17</ele>
        <time>2013-08-31T10:13:46Z</time>
      </trkpt>
      <trkpt lat="43.64093" lon="2.376">
        <ele>607.69</ele>
        <time>2013-08-31T10:13:47Z</time>
      </trkpt>
      <trkpt lat="43.64096" lon="2.37594">
        <ele>607.69</ele>
        <time>2013-08-31T10:13:48Z</time>
      </trkpt>
      <trkpt lat="43.64099" lon="2.37588">
        <ele>606.73</ele>
        <time>2013-08-31T10:13:49Z</time>
      </trkpt>
      <trkpt lat="43.64103" lon="2.37583">
        <ele>606.25</ele>
        <time>2013-08-31T10:13:50Z</time>
      </trkpt>
      <trkpt lat="43.64107" lon="2.37579">
        <ele>607.21</ele>
        <time>2013-08-31T10:13:51Z</time>
      </trkpt>
      <trkpt lat="43.64111" lon="2.37574">
        <ele>607.21</ele>
        <time>2013-08-31T10:13:52Z</time>
      </trkpt>
      <trkpt lat="43.64115" lon="2.3757">
        <ele>607.21</ele>
        <time>2013-08-31T10:13:53Z</time>
      </trkpt>
      <trkpt lat="43.64124" lon="2.37561">
        <ele>606.73</ele>
        <time>2013-08-31T10:13:55Z</time>
      </trkpt>
      <trkpt lat="43.64127" lon="2.37555">
        <ele>606.73</ele>
        <time>2013-08-31T10:13:56Z</time>
      </trkpt>
      <trkpt lat="43.6413" lon="2.37549">
        <ele>606.73</ele>
        <time>2013-08-31T10:13:57Z</time>
      </trkpt>
      <trkpt lat="43.64133" lon="2.37543">
        <ele>606.25</ele>
        <time>2013-08-31T10:13:58Z</time>
      </trkpt>
      <trkpt lat="43.64135" lon="2.37535">
        <ele>605.77</ele>
        <time>2013-08-31T10:13:59Z</time>
      </trkpt>
      <trkpt lat="43.64136" lon="2.37528">
        <ele>604.81</ele>
        <time>2013-08-31T10:14:00Z</time>
      </trkpt>
      <trkpt lat="43.64136" lon="2.3752">
        <ele>604.33</ele>
        <time>2013-08-31T10:14:01Z</time>
      </trkpt>
      <trkpt lat="43.64134" lon="2.37511">
        <ele>603.36</ele>
        <time>2013-08-31T10:14:02Z</time>
      </trkpt>
      <trkpt lat="43.64131" lon="2.37502">
        <ele>602.88</ele>
        <time>2013-08-31T10:14:03Z</time>
      </trkpt>
      <trkpt lat="43.64127" lon="2.37493">
        <ele>602.88</ele>
        <time>2013-08-31T10:14:04Z</time>
      </trkpt>
      <trkpt lat="43.64123" lon="2.37486">
        <ele>603.36</ele>
        <time>2013-08-31T10:14:05Z</time>
      </trkpt>
      <trkpt lat="43.6412" lon="2.37479">
        <ele>603.85</ele>
        <time>2013-08-31T10:14:06Z</time>
      </trkpt>
      <trkpt lat="43.64118" lon="2.37473">
        <ele>604.33</ele>
        <time>2013-08-31T10:14:07Z</time>
      </trkpt>
      <trkpt lat="43.64103" lon="2.37401">
        <ele>606.25</ele>
        <time>2013-08-31T10:14:21Z</time>
      </trkpt>
      <trkpt lat="43.64089" lon="2.37329">
        <ele>605.77</ele>
        <time>2013-08-31T10:14:34Z</time>
      </trkpt>
      <trkpt lat="43.64087" lon="2.37323">
        <ele>605.29</ele>
        <time>2013-08-31T10:14:35Z</time>
      </trkpt>
      <trkpt lat="43.64084" lon="2.37317">
        <ele>605.29</ele>
        <time>2013-08-31T10:14:36Z</time>
      </trkpt>
      <trkpt lat="43.6408" lon="2.37312">
        <ele>604.33</ele>
        <time>2013-08-31T10:14:37Z</time>
      </trkpt>
      <trkpt lat="43.64075" lon="2.37308">
        <ele>603.85</ele>
        <time>2013-08-31T10:14:38Z</time>
      </trkpt>
      <trkpt lat="43.6407" lon="2.37304">
        <ele>603.36</ele>
        <time>2013-08-31T10:14:39Z</time>
      </trkpt>
      <trkpt lat="43.64064" lon="2.37301">
        <ele>603.36</ele>
        <time>2013-08-31T10:14:40Z</time>
      </trkpt>
      <trkpt lat="43.64058" lon="2.37298">
        <ele>602.4</ele>
        <time>2013-08-31T10:14:41Z</time>
      </trkpt>
      <trkpt lat="43.64052" lon="2.37296">
        <ele>602.4</ele>
        <time>2013-08-31T10:14:42Z</time>
      </trkpt>
      <trkpt lat="43.64041" lon="2.37293">
        <ele>602.4</ele>
        <time>2013-08-31T10:14:44Z</time>
      </trkpt>
      <trkpt lat="43.64016" lon="2.3729">
        <ele>601.92</ele>
        <time>2013-08-31T10:14:53Z</time>
      </trkpt>
      <trkpt lat="43.64014" lon="2.37284">
        <ele>601.92</ele>
        <time>2013-08-31T10:14:58Z</time>
      </trkpt>
      <trkpt lat="43.64014" lon="2.37282">
        <ele>601.92</ele>
        <time>2013-08-31T10:14:59Z</time>
      </trkpt>
      <trkpt lat="43.64014" lon="2.3728">
        <ele>601.92</ele>
        <time>2013-08-31T10:15:00Z</time>
      </trkpt>
      <trkpt lat="43.64015" lon="2.37277">
        <ele>602.4</ele>
        <time>2013-08-31T10:15:01Z</time>
      </trkpt>
      <trkpt lat="43.64016" lon="2.37275">
        <ele>602.4</ele>
        <time>2013-08-31T10:15:02Z</time>
      </trkpt>
      <trkpt lat="43.64015" lon="2.37249">
        <ele>603.85</ele>
        <time>2013-08-31T10:15:13Z</time>
      </trkpt>
      <trkpt lat="43.64016" lon="2.37243">
        <ele>603.85</ele>
        <time>2013-08-31T10:15:15Z</time>
      </trkpt>
      <trkpt lat="43.64015" lon="2.3724">
        <ele>603.85</ele>
        <time>2013-08-31T10:15:16Z</time>
      </trkpt>
      <trkpt lat="43.64013" lon="2.37238">
        <ele>604.33</ele>
        <time>2013-08-31T10:15:17Z</time>
      </trkpt>
      <trkpt lat="43.64011" lon="2.37237">
        <ele>604.33</ele>
        <time>2013-08-31T10:15:18Z</time>
      </trkpt>
      <trkpt lat="43.64009" lon="2.37235">
        <ele>604.33</ele>
        <time>2013-08-31T10:15:19Z</time>
      </trkpt>
      <trkpt lat="43.64008" lon="2.37233">
        <ele>603.85</ele>
        <time>2013-08-31T10:15:20Z</time>
      </trkpt>
      <trkpt lat="43.64006" lon="2.37231">
        <ele>604.33</ele>
        <time>2013-08-31T10:15:21Z</time>
      </trkpt>
      <trkpt lat="43.64002" lon="2.37206">
        <ele>604.81</ele>
        <time>2013-08-31T10:15:29Z</time>
      </trkpt>
      <trkpt lat="43.64004" lon="2.3716">
        <ele>606.73</ele>
        <time>2013-08-31T10:15:42Z</time>
      </trkpt>
      <trkpt lat="43.63993" lon="2.37133">
        <ele>607.21</ele>
        <time>2013-08-31T10:15:50Z</time>
      </trkpt>
      <trkpt lat="43.6399" lon="2.37123">
        <ele>607.21</ele>
        <time>2013-08-31T10:15:54Z</time>
      </trkpt>
      <trkpt lat="43.63987" lon="2.37117">
        <ele>608.17</ele>
        <time>2013-08-31T10:15:57Z</time>
      </trkpt>
      <trkpt lat="43.63985" lon="2.37095">
        <ele>609.61</ele>
        <time>2013-08-31T10:16:06Z</time>
      </trkpt>
      <trkpt lat="43.63986" lon="2.37088">
        <ele>610.09</ele>
        <time>2013-08-31T10:16:09Z</time>
      </trkpt>
      <trkpt lat="43.63986" lon="2.3708">
        <ele>610.09</ele>
        <time>2013-08-31T10:16:14Z</time>
      </trkpt>
      <trkpt lat="43.63993" lon="2.37034">
        <ele>608.17</ele>
        <time>2013-08-31T10:16:24Z</time>
      </trkpt>
      <trkpt lat="43.63995" lon="2.36989">
        <ele>607.69</ele>
        <time>2013-08-31T10:16:33Z</time>
      </trkpt>
      <trkpt lat="43.63997" lon="2.36985">
        <ele>608.17</ele>
        <time>2013-08-31T10:16:34Z</time>
      </trkpt>
      <trkpt lat="43.64007" lon="2.36938">
        <ele>607.21</ele>
        <time>2013-08-31T10:16:48Z</time>
      </trkpt>
      <trkpt lat="43.64015" lon="2.36881">
        <ele>605.29</ele>
        <time>2013-08-31T10:16:58Z</time>
      </trkpt>
      <trkpt lat="43.64018" lon="2.36875">
        <ele>604.81</ele>
        <time>2013-08-31T10:16:59Z</time>
      </trkpt>
      <trkpt lat="43.6402" lon="2.36871">
        <ele>604.33</ele>
        <time>2013-08-31T10:17:00Z</time>
      </trkpt>
      <trkpt lat="43.64037" lon="2.36848">
        <ele>601.92</ele>
        <time>2013-08-31T10:17:07Z</time>
      </trkpt>
      <trkpt lat="43.64046" lon="2.36831">
        <ele>600</ele>
        <time>2013-08-31T10:17:12Z</time>
      </trkpt>
      <trkpt lat="43.64049" lon="2.36815">
        <ele>599.52</ele>
        <time>2013-08-31T10:17:16Z</time>
      </trkpt>
      <trkpt lat="43.64048" lon="2.36809">
        <ele>600</ele>
        <time>2013-08-31T10:17:17Z</time>
      </trkpt>
      <trkpt lat="43.64046" lon="2.36804">
        <ele>600</ele>
        <time>2013-08-31T10:17:18Z</time>
      </trkpt>
      <trkpt lat="43.64044" lon="2.368">
        <ele>600</ele>
        <time>2013-08-31T10:17:19Z</time>
      </trkpt>
      <trkpt lat="43.64042" lon="2.36796">
        <ele>599.52</ele>
        <time>2013-08-31T10:17:20Z</time>
      </trkpt>
      <trkpt lat="43.6404" lon="2.36794">
        <ele>599.52</ele>
        <time>2013-08-31T10:17:21Z</time>
      </trkpt>
      <trkpt lat="43.64017" lon="2.36777">
        <ele>598.56</ele>
        <time>2013-08-31T10:17:29Z</time>
      </trkpt>
      <trkpt lat="43.63991" lon="2.36787">
        <ele>594.71</ele>
        <time>2013-08-31T10:17:37Z</time>
      </trkpt>
      <trkpt lat="43.63986" lon="2.36787">
        <ele>593.75</ele>
        <time>2013-08-31T10:17:38Z</time>
      </trkpt>
      <trkpt lat="43.63981" lon="2.36787">
        <ele>593.27</ele>
        <time>2013-08-31T10:17:39Z</time>
      </trkpt>
      <trkpt lat="43.63971" lon="2.36785">
        <ele>591.35</ele>
        <time>2013-08-31T10:17:41Z</time>
      </trkpt>
      <trkpt lat="43.63953" lon="2.36777">
        <ele>587.98</ele>
        <time>2013-08-31T10:17:45Z</time>
      </trkpt>
      <trkpt lat="43.63938" lon="2.36766">
        <ele>585.1</ele>
        <time>2013-08-31T10:17:50Z</time>
      </trkpt>
      <trkpt lat="43.63927" lon="2.36759">
        <ele>581.73</ele>
        <time>2013-08-31T10:17:55Z</time>
      </trkpt>
      <trkpt lat="43.63919" lon="2.36746">
        <ele>579.81</ele>
        <time>2013-08-31T10:17:59Z</time>
      </trkpt>
      <trkpt lat="43.63918" lon="2.36741">
        <ele>579.33</ele>
        <time>2013-08-31T10:18:00Z</time>
      </trkpt>
      <trkpt lat="43.63919" lon="2.36735">
        <ele>578.37</ele>
        <time>2013-08-31T10:18:01Z</time>
      </trkpt>
      <trkpt lat="43.6392" lon="2.3673">
        <ele>578.37</ele>
        <time>2013-08-31T10:18:02Z</time>
      </trkpt>
      <trkpt lat="43.63929" lon="2.367">
        <ele>577.41</ele>
        <time>2013-08-31T10:18:11Z</time>
      </trkpt>
      <trkpt lat="43.63956" lon="2.36684">
        <ele>575.97</ele>
        <time>2013-08-31T10:18:24Z</time>
      </trkpt>
      <trkpt lat="43.63969" lon="2.36672">
        <ele>572.6</ele>
        <time>2013-08-31T10:18:28Z</time>
      </trkpt>
      <trkpt lat="43.63973" lon="2.36669">
        <ele>572.6</ele>
        <time>2013-08-31T10:18:29Z</time>
      </trkpt>
      <trkpt lat="43.63977" lon="2.36665">
        <ele>572.12</ele>
        <time>2013-08-31T10:18:30Z</time>
      </trkpt>
      <trkpt lat="43.6398" lon="2.36662">
        <ele>571.64</ele>
        <time>2013-08-31T10:18:31Z</time>
      </trkpt>
      <trkpt lat="43.63982" lon="2.36658">
        <ele>572.12</ele>
        <time>2013-08-31T10:18:32Z</time>
      </trkpt>
      <trkpt lat="43.63983" lon="2.36654">
        <ele>572.12</ele>
        <time>2013-08-31T10:18:33Z</time>
      </trkpt>
      <trkpt lat="43.63984" lon="2.36651">
        <ele>572.6</ele>
        <time>2013-08-31T10:18:34Z</time>
      </trkpt>
      <trkpt lat="43.63986" lon="2.36648">
        <ele>572.12</ele>
        <time>2013-08-31T10:18:35Z</time>
      </trkpt>
      <trkpt lat="43.63988" lon="2.36645">
        <ele>571.64</ele>
        <time>2013-08-31T10:18:36Z</time>
      </trkpt>
      <trkpt lat="43.6399" lon="2.36642">
        <ele>572.12</ele>
        <time>2013-08-31T10:18:37Z</time>
      </trkpt>
      <trkpt lat="43.63992" lon="2.36639">
        <ele>571.64</ele>
        <time>2013-08-31T10:18:38Z</time>
      </trkpt>
      <trkpt lat="43.64006" lon="2.3661">
        <ele>570.68</ele>
        <time>2013-08-31T10:18:47Z</time>
      </trkpt>
      <trkpt lat="43.64008" lon="2.36587">
        <ele>569.72</ele>
        <time>2013-08-31T10:18:52Z</time>
      </trkpt>
      <trkpt lat="43.64006" lon="2.36581">
        <ele>569.72</ele>
        <time>2013-08-31T10:18:53Z</time>
      </trkpt>
      <trkpt lat="43.64003" lon="2.36576">
        <ele>569.24</ele>
        <time>2013-08-31T10:18:54Z</time>
      </trkpt>
      <trkpt lat="43.64" lon="2.3657">
        <ele>568.76</ele>
        <time>2013-08-31T10:18:55Z</time>
      </trkpt>
      <trkpt lat="43.63998" lon="2.36565">
        <ele>568.76</ele>
        <time>2013-08-31T10:18:56Z</time>
      </trkpt>
      <trkpt lat="43.63994" lon="2.36551">
        <ele>568.28</ele>
        <time>2013-08-31T10:18:59Z</time>
      </trkpt>
      <trkpt lat="43.63994" lon="2.36547">
        <ele>568.28</ele>
        <time>2013-08-31T10:19:00Z</time>
      </trkpt>
      <trkpt lat="43.63995" lon="2.36543">
        <ele>567.8</ele>
        <time>2013-08-31T10:19:01Z</time>
      </trkpt>
      <trkpt lat="43.63997" lon="2.36539">
        <ele>566.83</ele>
        <time>2013-08-31T10:19:02Z</time>
      </trkpt>
      <trkpt lat="43.63997" lon="2.36535">
        <ele>566.35</ele>
        <time>2013-08-31T10:19:03Z</time>
      </trkpt>
      <trkpt lat="43.63998" lon="2.36531">
        <ele>566.35</ele>
        <time>2013-08-31T10:19:04Z</time>
      </trkpt>
      <trkpt lat="43.63999" lon="2.36527">
        <ele>565.87</ele>
        <time>2013-08-31T10:19:05Z</time>
      </trkpt>
      <trkpt lat="43.64001" lon="2.36522">
        <ele>565.39</ele>
        <time>2013-08-31T10:19:06Z</time>
      </trkpt>
      <trkpt lat="43.64002" lon="2.36518">
        <ele>565.39</ele>
        <time>2013-08-31T10:19:07Z</time>
      </trkpt>
      <trkpt lat="43.64003" lon="2.36514">
        <ele>565.39</ele>
        <time>2013-08-31T10:19:08Z</time>
      </trkpt>
      <trkpt lat="43.6401" lon="2.36483">
        <ele>565.87</ele>
        <time>2013-08-31T10:19:18Z</time>
      </trkpt>
      <trkpt lat="43.64012" lon="2.36482">
        <ele>565.87</ele>
        <time>2013-08-31T10:19:19Z</time>
      </trkpt>
      <trkpt lat="43.64014" lon="2.36482">
        <ele>565.39</ele>
        <time>2013-08-31T10:19:20Z</time>
      </trkpt>
      <trkpt lat="43.64037" lon="2.36484">
        <ele>567.32</ele>
        <time>2013-08-31T10:19:30Z</time>
      </trkpt>
      <trkpt lat="43.64052" lon="2.3647">
        <ele>566.35</ele>
        <time>2013-08-31T10:19:36Z</time>
      </trkpt>
      <trkpt lat="43.64061" lon="2.36461">
        <ele>565.39</ele>
        <time>2013-08-31T10:19:39Z</time>
      </trkpt>
      <trkpt lat="43.64065" lon="2.36459">
        <ele>565.39</ele>
        <time>2013-08-31T10:19:40Z</time>
      </trkpt>
      <trkpt lat="43.64069" lon="2.36458">
        <ele>564.91</ele>
        <time>2013-08-31T10:19:41Z</time>
      </trkpt>
      <trkpt lat="43.64073" lon="2.36458">
        <ele>564.91</ele>
        <time>2013-08-31T10:19:42Z</time>
      </trkpt>
      <trkpt lat="43.64077" lon="2.36458">
        <ele>564.91</ele>
        <time>2013-08-31T10:19:43Z</time>
      </trkpt>
      <trkpt lat="43.64081" lon="2.36459">
        <ele>564.43</ele>
        <time>2013-08-31T10:19:44Z</time>
      </trkpt>
      <trkpt lat="43.64086" lon="2.36461">
        <ele>564.43</ele>
        <time>2013-08-31T10:19:45Z</time>
      </trkpt>
      <trkpt lat="43.64123" lon="2.36478">
        <ele>564.91</ele>
        <time>2013-08-31T10:19:56Z</time>
      </trkpt>
      <trkpt lat="43.64131" lon="2.36482">
        <ele>565.39</ele>
        <time>2013-08-31T10:19:59Z</time>
      </trkpt>
      <trkpt lat="43.64137" lon="2.36485">
        <ele>566.83</ele>
        <time>2013-08-31T10:20:02Z</time>
      </trkpt>
      <trkpt lat="43.6414" lon="2.36485">
        <ele>566.83</ele>
        <time>2013-08-31T10:20:03Z</time>
      </trkpt>
      <trkpt lat="43.64142" lon="2.36485">
        <ele>566.83</ele>
        <time>2013-08-31T10:20:04Z</time>
      </trkpt>
      <trkpt lat="43.64144" lon="2.36485">
        <ele>567.32</ele>
        <time>2013-08-31T10:20:05Z</time>
      </trkpt>
      <trkpt lat="43.64146" lon="2.36484">
        <ele>567.8</ele>
        <time>2013-08-31T10:20:06Z</time>
      </trkpt>
      <trkpt lat="43.64148" lon="2.36483">
        <ele>567.8</ele>
        <time>2013-08-31T10:20:07Z</time>
      </trkpt>
      <trkpt lat="43.64185" lon="2.36472">
        <ele>568.28</ele>
        <time>2013-08-31T10:20:20Z</time>
      </trkpt>
      <trkpt lat="43.64196" lon="2.36469">
        <ele>567.8</ele>
        <time>2013-08-31T10:20:27Z</time>
      </trkpt>
      <trkpt lat="43.64219" lon="2.36475">
        <ele>568.28</ele>
        <time>2013-08-31T10:20:36Z</time>
      </trkpt>
      <trkpt lat="43.64222" lon="2.36475">
        <ele>568.28</ele>
        <time>2013-08-31T10:20:37Z</time>
      </trkpt>
      <trkpt lat="43.64241" lon="2.36471">
        <ele>569.72</ele>
        <time>2013-08-31T10:20:48Z</time>
      </trkpt>
      <trkpt lat="43.64244" lon="2.36473">
        <ele>570.2</ele>
        <time>2013-08-31T10:20:52Z</time>
      </trkpt>
      <trkpt lat="43.64246" lon="2.36473">
        <ele>569.72</ele>
        <time>2013-08-31T10:20:53Z</time>
      </trkpt>
      <trkpt lat="43.64248" lon="2.36474">
        <ele>568.76</ele>
        <time>2013-08-31T10:20:54Z</time>
      </trkpt>
      <trkpt lat="43.6425" lon="2.36475">
        <ele>569.72</ele>
        <time>2013-08-31T10:20:56Z</time>
      </trkpt>
      <trkpt lat="43.64252" lon="2.36476">
        <ele>569.72</ele>
        <time>2013-08-31T10:20:57Z</time>
      </trkpt>
      <trkpt lat="43.64253" lon="2.36477">
        <ele>569.24</ele>
        <time>2013-08-31T10:20:58Z</time>
      </trkpt>
      <trkpt lat="43.64254" lon="2.36481">
        <ele>569.72</ele>
        <time>2013-08-31T10:21:01Z</time>
      </trkpt>
      <trkpt lat="43.64255" lon="2.36483">
        <ele>570.2</ele>
        <time>2013-08-31T10:21:02Z</time>
      </trkpt>
      <trkpt lat="43.64257" lon="2.36484">
        <ele>570.2</ele>
        <time>2013-08-31T10:21:03Z</time>
      </trkpt>
      <trkpt lat="43.64259" lon="2.36484">
        <ele>570.2</ele>
        <time>2013-08-31T10:21:04Z</time>
      </trkpt>
      <trkpt lat="43.64264" lon="2.36484">
        <ele>571.16</ele>
        <time>2013-08-31T10:21:07Z</time>
      </trkpt>
      <trkpt lat="43.64265" lon="2.36484">
        <ele>571.16</ele>
        <time>2013-08-31T10:21:08Z</time>
      </trkpt>
      <trkpt lat="43.64269" lon="2.36484">
        <ele>571.64</ele>
        <time>2013-08-31T10:21:10Z</time>
      </trkpt>
      <trkpt lat="43.6427" lon="2.36487">
        <ele>572.12</ele>
        <time>2013-08-31T10:21:18Z</time>
      </trkpt>
      <trkpt lat="43.64272" lon="2.36485">
        <ele>572.12</ele>
        <time>2013-08-31T10:21:21Z</time>
      </trkpt>
      <trkpt lat="43.64284" lon="2.36484">
        <ele>573.08</ele>
        <time>2013-08-31T10:21:28Z</time>
      </trkpt>
      <trkpt lat="43.64286" lon="2.36485">
        <ele>572.6</ele>
        <time>2013-08-31T10:21:29Z</time>
      </trkpt>
      <trkpt lat="43.64288" lon="2.36485">
        <ele>573.08</ele>
        <time>2013-08-31T10:21:30Z</time>
      </trkpt>
      <trkpt lat="43.64299" lon="2.36489">
        <ele>573.08</ele>
        <time>2013-08-31T10:21:37Z</time>
      </trkpt>
      <trkpt lat="43.64297" lon="2.3651">
        <ele>574.53</ele>
        <time>2013-08-31T10:21:46Z</time>
      </trkpt>
      <trkpt lat="43.64296" lon="2.36513">
        <ele>575.49</ele>
        <time>2013-08-31T10:21:48Z</time>
      </trkpt>
      <trkpt lat="43.64294" lon="2.36519">
        <ele>575.97</ele>
        <time>2013-08-31T10:21:53Z</time>
      </trkpt>
      <trkpt lat="43.64291" lon="2.36529">
        <ele>577.41</ele>
        <time>2013-08-31T10:21:59Z</time>
      </trkpt>
      <trkpt lat="43.6429" lon="2.36541">
        <ele>578.85</ele>
        <time>2013-08-31T10:22:05Z</time>
      </trkpt>
      <trkpt lat="43.64285" lon="2.36552">
        <ele>579.81</ele>
        <time>2013-08-31T10:22:11Z</time>
      </trkpt>
      <trkpt lat="43.64284" lon="2.36558">
        <ele>580.77</ele>
        <time>2013-08-31T10:22:14Z</time>
      </trkpt>
      <trkpt lat="43.64284" lon="2.36579">
        <ele>582.22</ele>
        <time>2013-08-31T10:22:23Z</time>
      </trkpt>
      <trkpt lat="43.64284" lon="2.36587">
        <ele>582.22</ele>
        <time>2013-08-31T10:22:27Z</time>
      </trkpt>
      <trkpt lat="43.64285" lon="2.36596">
        <ele>583.18</ele>
        <time>2013-08-31T10:22:30Z</time>
      </trkpt>
      <trkpt lat="43.64284" lon="2.36602">
        <ele>583.18</ele>
        <time>2013-08-31T10:22:33Z</time>
      </trkpt>
      <trkpt lat="43.64283" lon="2.36609">
        <ele>583.66</ele>
        <time>2013-08-31T10:22:36Z</time>
      </trkpt>
      <trkpt lat="43.64286" lon="2.3662">
        <ele>584.14</ele>
        <time>2013-08-31T10:22:41Z</time>
      </trkpt>
      <trkpt lat="43.64286" lon="2.36628">
        <ele>584.62</ele>
        <time>2013-08-31T10:22:44Z</time>
      </trkpt>
      <trkpt lat="43.64284" lon="2.3664">
        <ele>585.58</ele>
        <time>2013-08-31T10:22:50Z</time>
      </trkpt>
      <trkpt lat="43.64285" lon="2.36643">
        <ele>585.58</ele>
        <time>2013-08-31T10:22:52Z</time>
      </trkpt>
      <trkpt lat="43.643" lon="2.36657">
        <ele>587.02</ele>
        <time>2013-08-31T10:23:02Z</time>
      </trkpt>
      <trkpt lat="43.64311" lon="2.36671">
        <ele>588.95</ele>
        <time>2013-08-31T10:23:12Z</time>
      </trkpt>
      <trkpt lat="43.64312" lon="2.36671">
        <ele>588.95</ele>
        <time>2013-08-31T10:23:13Z</time>
      </trkpt>
      <trkpt lat="43.64315" lon="2.36674">
        <ele>589.91</ele>
        <time>2013-08-31T10:23:15Z</time>
      </trkpt>
      <trkpt lat="43.64323" lon="2.36698">
        <ele>591.35</ele>
        <time>2013-08-31T10:23:27Z</time>
      </trkpt>
      <trkpt lat="43.64323" lon="2.367">
        <ele>591.35</ele>
        <time>2013-08-31T10:23:28Z</time>
      </trkpt>
      <trkpt lat="43.64337" lon="2.36724">
        <ele>592.79</ele>
        <time>2013-08-31T10:23:41Z</time>
      </trkpt>
      <trkpt lat="43.64329" lon="2.36731">
        <ele>593.27</ele>
        <time>2013-08-31T10:23:52Z</time>
      </trkpt>
      <trkpt lat="43.64319" lon="2.36764">
        <ele>593.27</ele>
        <time>2013-08-31T10:24:05Z</time>
      </trkpt>
      <trkpt lat="43.6433" lon="2.36785">
        <ele>594.23</ele>
        <time>2013-08-31T10:24:14Z</time>
      </trkpt>
      <trkpt lat="43.64333" lon="2.36803">
        <ele>595.19</ele>
        <time>2013-08-31T10:24:21Z</time>
      </trkpt>
      <trkpt lat="43.64339" lon="2.36811">
        <ele>595.67</ele>
        <time>2013-08-31T10:24:27Z</time>
      </trkpt>
      <trkpt lat="43.6434" lon="2.36811">
        <ele>596.15</ele>
        <time>2013-08-31T10:24:29Z</time>
      </trkpt>
      <trkpt lat="43.64351" lon="2.3682">
        <ele>598.08</ele>
        <time>2013-08-31T10:24:36Z</time>
      </trkpt>
      <trkpt lat="43.64354" lon="2.36821">
        <ele>598.56</ele>
        <time>2013-08-31T10:24:38Z</time>
      </trkpt>
      <trkpt lat="43.64358" lon="2.3682">
        <ele>599.04</ele>
        <time>2013-08-31T10:24:40Z</time>
      </trkpt>
      <trkpt lat="43.64363" lon="2.36817">
        <ele>599.52</ele>
        <time>2013-08-31T10:24:44Z</time>
      </trkpt>
      <trkpt lat="43.64365" lon="2.36816">
        <ele>600</ele>
        <time>2013-08-31T10:24:46Z</time>
      </trkpt>
      <trkpt lat="43.64367" lon="2.36815">
        <ele>600.48</ele>
        <time>2013-08-31T10:24:48Z</time>
      </trkpt>
      <trkpt lat="43.64377" lon="2.36802">
        <ele>602.4</ele>
        <time>2013-08-31T10:24:58Z</time>
      </trkpt>
      <trkpt lat="43.64393" lon="2.36785">
        <ele>603.36</ele>
        <time>2013-08-31T10:25:09Z</time>
      </trkpt>
      <trkpt lat="43.64394" lon="2.36784">
        <ele>603.85</ele>
        <time>2013-08-31T10:25:10Z</time>
      </trkpt>
      <trkpt lat="43.64398" lon="2.36784">
        <ele>604.33</ele>
        <time>2013-08-31T10:25:13Z</time>
      </trkpt>
      <trkpt lat="43.644" lon="2.36785">
        <ele>604.33</ele>
        <time>2013-08-31T10:25:15Z</time>
      </trkpt>
      <trkpt lat="43.64403" lon="2.36793">
        <ele>604.81</ele>
        <time>2013-08-31T10:25:20Z</time>
      </trkpt>
      <trkpt lat="43.64409" lon="2.36801">
        <ele>604.81</ele>
        <time>2013-08-31T10:25:25Z</time>
      </trkpt>
      <trkpt lat="43.64419" lon="2.36821">
        <ele>606.73</ele>
        <time>2013-08-31T10:25:35Z</time>
      </trkpt>
      <trkpt lat="43.64425" lon="2.36832">
        <ele>606.25</ele>
        <time>2013-08-31T10:25:40Z</time>
      </trkpt>
      <trkpt lat="43.64424" lon="2.36837">
        <ele>606.25</ele>
        <time>2013-08-31T10:25:42Z</time>
      </trkpt>
      <trkpt lat="43.64423" lon="2.36847">
        <ele>606.73</ele>
        <time>2013-08-31T10:25:46Z</time>
      </trkpt>
      <trkpt lat="43.64424" lon="2.36851">
        <ele>607.21</ele>
        <time>2013-08-31T10:25:48Z</time>
      </trkpt>
      <trkpt lat="43.64427" lon="2.36869">
        <ele>607.69</ele>
        <time>2013-08-31T10:25:54Z</time>
      </trkpt>
      <trkpt lat="43.64425" lon="2.36876">
        <ele>607.69</ele>
        <time>2013-08-31T10:25:58Z</time>
      </trkpt>
      <trkpt lat="43.64425" lon="2.36883">
        <ele>608.65</ele>
        <time>2013-08-31T10:26:01Z</time>
      </trkpt>
      <trkpt lat="43.64427" lon="2.36894">
        <ele>608.65</ele>
        <time>2013-08-31T10:26:04Z</time>
      </trkpt>
      <trkpt lat="43.64424" lon="2.36899">
        <ele>609.13</ele>
        <time>2013-08-31T10:26:07Z</time>
      </trkpt>
      <trkpt lat="43.64425" lon="2.36904">
        <ele>610.57</ele>
        <time>2013-08-31T10:26:11Z</time>
      </trkpt>
      <trkpt lat="43.64428" lon="2.36905">
        <ele>611.54</ele>
        <time>2013-08-31T10:26:15Z</time>
      </trkpt>
      <trkpt lat="43.64431" lon="2.36905">
        <ele>612.02</ele>
        <time>2013-08-31T10:26:19Z</time>
      </trkpt>
      <trkpt lat="43.64438" lon="2.36903">
        <ele>611.54</ele>
        <time>2013-08-31T10:26:24Z</time>
      </trkpt>
      <trkpt lat="43.64445" lon="2.36898">
        <ele>611.54</ele>
        <time>2013-08-31T10:26:28Z</time>
      </trkpt>
      <trkpt lat="43.64447" lon="2.36897">
        <ele>611.06</ele>
        <time>2013-08-31T10:26:29Z</time>
      </trkpt>
      <trkpt lat="43.64451" lon="2.36893">
        <ele>610.57</ele>
        <time>2013-08-31T10:26:31Z</time>
      </trkpt>
      <trkpt lat="43.64488" lon="2.36895">
        <ele>611.54</ele>
        <time>2013-08-31T10:26:42Z</time>
      </trkpt>
      <trkpt lat="43.64508" lon="2.36898">
        <ele>612.02</ele>
        <time>2013-08-31T10:26:50Z</time>
      </trkpt>
      <trkpt lat="43.64511" lon="2.369">
        <ele>612.5</ele>
        <time>2013-08-31T10:26:51Z</time>
      </trkpt>
      <trkpt lat="43.64525" lon="2.36904">
        <ele>612.02</ele>
        <time>2013-08-31T10:26:54Z</time>
      </trkpt>
      <trkpt lat="43.64532" lon="2.36901">
        <ele>611.54</ele>
        <time>2013-08-31T10:26:57Z</time>
      </trkpt>
      <trkpt lat="43.6454" lon="2.36883">
        <ele>610.09</ele>
        <time>2013-08-31T10:27:03Z</time>
      </trkpt>
      <trkpt lat="43.64543" lon="2.36863">
        <ele>609.13</ele>
        <time>2013-08-31T10:27:08Z</time>
      </trkpt>
      <trkpt lat="43.6455" lon="2.36833">
        <ele>605.77</ele>
        <time>2013-08-31T10:27:16Z</time>
      </trkpt>
      <trkpt lat="43.64552" lon="2.36828">
        <ele>605.77</ele>
        <time>2013-08-31T10:27:17Z</time>
      </trkpt>
      <trkpt lat="43.6456" lon="2.36809">
        <ele>603.85</ele>
        <time>2013-08-31T10:27:21Z</time>
      </trkpt>
      <trkpt lat="43.64562" lon="2.36804">
        <ele>602.4</ele>
        <time>2013-08-31T10:27:22Z</time>
      </trkpt>
      <trkpt lat="43.6457" lon="2.36756">
        <ele>600</ele>
        <time>2013-08-31T10:27:30Z</time>
      </trkpt>
      <trkpt lat="43.64583" lon="2.3672">
        <ele>596.64</ele>
        <time>2013-08-31T10:27:39Z</time>
      </trkpt>
      <trkpt lat="43.64597" lon="2.36691">
        <ele>593.27</ele>
        <time>2013-08-31T10:27:47Z</time>
      </trkpt>
      <trkpt lat="43.64603" lon="2.3667">
        <ele>589.91</ele>
        <time>2013-08-31T10:27:55Z</time>
      </trkpt>
      <trkpt lat="43.64628" lon="2.36643">
        <ele>589.91</ele>
        <time>2013-08-31T10:28:08Z</time>
      </trkpt>
      <trkpt lat="43.64641" lon="2.36631">
        <ele>589.43</ele>
        <time>2013-08-31T10:28:19Z</time>
      </trkpt>
      <trkpt lat="43.64643" lon="2.36629">
        <ele>589.43</ele>
        <time>2013-08-31T10:28:20Z</time>
      </trkpt>
      <trkpt lat="43.64643" lon="2.36627">
        <ele>589.43</ele>
        <time>2013-08-31T10:28:21Z</time>
      </trkpt>
      <trkpt lat="43.64656" lon="2.36611">
        <ele>588.46</ele>
        <time>2013-08-31T10:28:30Z</time>
      </trkpt>
      <trkpt lat="43.64657" lon="2.36609">
        <ele>588.46</ele>
        <time>2013-08-31T10:28:31Z</time>
      </trkpt>
      <trkpt lat="43.64667" lon="2.36587">
        <ele>587.5</ele>
        <time>2013-08-31T10:28:42Z</time>
      </trkpt>
      <trkpt lat="43.64673" lon="2.36574">
        <ele>587.5</ele>
        <time>2013-08-31T10:28:49Z</time>
      </trkpt>
      <trkpt lat="43.64683" lon="2.36556">
        <ele>587.5</ele>
        <time>2013-08-31T10:28:55Z</time>
      </trkpt>
      <trkpt lat="43.64682" lon="2.36554">
        <ele>587.5</ele>
        <time>2013-08-31T10:28:56Z</time>
      </trkpt>
      <trkpt lat="43.64684" lon="2.3655">
        <ele>587.5</ele>
        <time>2013-08-31T10:28:57Z</time>
      </trkpt>
      <trkpt lat="43.64686" lon="2.36547">
        <ele>587.02</ele>
        <time>2013-08-31T10:28:58Z</time>
      </trkpt>
      <trkpt lat="43.64709" lon="2.36518">
        <ele>587.98</ele>
        <time>2013-08-31T10:29:06Z</time>
      </trkpt>
      <trkpt lat="43.64734" lon="2.36497">
        <ele>588.95</ele>
        <time>2013-08-31T10:29:16Z</time>
      </trkpt>
      <trkpt lat="43.64733" lon="2.36497">
        <ele>588.46</ele>
        <time>2013-08-31T10:29:30Z</time>
      </trkpt>
      <trkpt lat="43.64726" lon="2.36506">
        <ele>587.98</ele>
        <time>2013-08-31T10:29:41Z</time>
      </trkpt>
      <trkpt lat="43.64725" lon="2.36508">
        <ele>587.5</ele>
        <time>2013-08-31T10:29:42Z</time>
      </trkpt>
      <trkpt lat="43.64723" lon="2.3651">
        <ele>587.98</ele>
        <time>2013-08-31T10:29:43Z</time>
      </trkpt>
      <trkpt lat="43.64721" lon="2.36512">
        <ele>587.98</ele>
        <time>2013-08-31T10:29:44Z</time>
      </trkpt>
      <trkpt lat="43.6472" lon="2.36515">
        <ele>587.98</ele>
        <time>2013-08-31T10:29:45Z</time>
      </trkpt>
      <trkpt lat="43.6472" lon="2.36518">
        <ele>587.5</ele>
        <time>2013-08-31T10:29:46Z</time>
      </trkpt>
      <trkpt lat="43.64719" lon="2.36521">
        <ele>587.5</ele>
        <time>2013-08-31T10:29:47Z</time>
      </trkpt>
      <trkpt lat="43.64718" lon="2.36525">
        <ele>587.5</ele>
        <time>2013-08-31T10:29:48Z</time>
      </trkpt>
      <trkpt lat="43.64717" lon="2.3653">
        <ele>587.5</ele>
        <time>2013-08-31T10:29:49Z</time>
      </trkpt>
      <trkpt lat="43.64715" lon="2.36534">
        <ele>587.02</ele>
        <time>2013-08-31T10:29:50Z</time>
      </trkpt>
      <trkpt lat="43.64714" lon="2.36538">
        <ele>587.5</ele>
        <time>2013-08-31T10:29:51Z</time>
      </trkpt>
      <trkpt lat="43.64712" lon="2.36542">
        <ele>587.5</ele>
        <time>2013-08-31T10:29:52Z</time>
      </trkpt>
      <trkpt lat="43.64711" lon="2.36545">
        <ele>587.5</ele>
        <time>2013-08-31T10:29:53Z</time>
      </trkpt>
      <trkpt lat="43.64709" lon="2.36548">
        <ele>587.5</ele>
        <time>2013-08-31T10:29:54Z</time>
      </trkpt>
      <trkpt lat="43.64708" lon="2.3655">
        <ele>587.5</ele>
        <time>2013-08-31T10:29:55Z</time>
      </trkpt>
      <trkpt lat="43.64707" lon="2.36552">
        <ele>587.5</ele>
        <time>2013-08-31T10:29:56Z</time>
      </trkpt>
      <trkpt lat="43.64706" lon="2.36553">
        <ele>587.5</ele>
        <time>2013-08-31T10:29:57Z</time>
      </trkpt>
      <trkpt lat="43.64705" lon="2.36554">
        <ele>587.5</ele>
        <time>2013-08-31T10:29:58Z</time>
      </trkpt>
      <trkpt lat="43.64699" lon="2.36562">
        <ele>587.5</ele>
        <time>2013-08-31T10:30:11Z</time>
      </trkpt>
      <trkpt lat="43.64699" lon="2.36563">
        <ele>587.98</ele>
        <time>2013-08-31T10:30:18Z</time>
      </trkpt>
      <trkpt lat="43.64699" lon="2.36565">
        <ele>587.98</ele>
        <time>2013-08-31T10:30:21Z</time>
      </trkpt>
      <trkpt lat="43.647" lon="2.36569">
        <ele>587.5</ele>
        <time>2013-08-31T10:30:30Z</time>
      </trkpt>
      <trkpt lat="43.64698" lon="2.3658">
        <ele>586.06</ele>
        <time>2013-08-31T10:30:41Z</time>
      </trkpt>
      <trkpt lat="43.64698" lon="2.36582">
        <ele>586.06</ele>
        <time>2013-08-31T10:30:42Z</time>
      </trkpt>
      <trkpt lat="43.64699" lon="2.36584">
        <ele>585.58</ele>
        <time>2013-08-31T10:30:43Z</time>
      </trkpt>
      <trkpt lat="43.647" lon="2.36586">
        <ele>585.1</ele>
        <time>2013-08-31T10:30:44Z</time>
      </trkpt>
      <trkpt lat="43.647" lon="2.3659">
        <ele>585.1</ele>
        <time>2013-08-31T10:30:45Z</time>
      </trkpt>
      <trkpt lat="43.647" lon="2.36593">
        <ele>584.62</ele>
        <time>2013-08-31T10:30:46Z</time>
      </trkpt>
      <trkpt lat="43.64692" lon="2.36642">
        <ele>583.18</ele>
        <time>2013-08-31T10:30:58Z</time>
      </trkpt>
      <trkpt lat="43.64685" lon="2.36658">
        <ele>582.22</ele>
        <time>2013-08-31T10:31:08Z</time>
      </trkpt>
      <trkpt lat="43.64684" lon="2.3666">
        <ele>581.73</ele>
        <time>2013-08-31T10:31:23Z</time>
      </trkpt>
      <trkpt lat="43.64685" lon="2.36663">
        <ele>581.73</ele>
        <time>2013-08-31T10:31:38Z</time>
      </trkpt>
      <trkpt lat="43.64686" lon="2.36665">
        <ele>581.73</ele>
        <time>2013-08-31T10:31:39Z</time>
      </trkpt>
      <trkpt lat="43.64688" lon="2.36668">
        <ele>581.73</ele>
        <time>2013-08-31T10:31:41Z</time>
      </trkpt>
      <trkpt lat="43.64688" lon="2.36676">
        <ele>581.25</ele>
        <time>2013-08-31T10:31:44Z</time>
      </trkpt>
      <trkpt lat="43.64688" lon="2.36682">
        <ele>581.73</ele>
        <time>2013-08-31T10:31:46Z</time>
      </trkpt>
      <trkpt lat="43.64688" lon="2.36685">
        <ele>581.73</ele>
        <time>2013-08-31T10:31:47Z</time>
      </trkpt>
      <trkpt lat="43.64687" lon="2.36688">
        <ele>581.73</ele>
        <time>2013-08-31T10:31:48Z</time>
      </trkpt>
      <trkpt lat="43.64685" lon="2.36692">
        <ele>581.25</ele>
        <time>2013-08-31T10:31:49Z</time>
      </trkpt>
      <trkpt lat="43.64685" lon="2.36695">
        <ele>581.73</ele>
        <time>2013-08-31T10:31:50Z</time>
      </trkpt>
      <trkpt lat="43.64684" lon="2.36701">
        <ele>582.22</ele>
        <time>2013-08-31T10:31:52Z</time>
      </trkpt>
      <trkpt lat="43.64685" lon="2.36704">
        <ele>581.73</ele>
        <time>2013-08-31T10:31:53Z</time>
      </trkpt>
      <trkpt lat="43.64686" lon="2.36707">
        <ele>582.22</ele>
        <time>2013-08-31T10:31:54Z</time>
      </trkpt>
      <trkpt lat="43.64687" lon="2.36711">
        <ele>582.22</ele>
        <time>2013-08-31T10:31:55Z</time>
      </trkpt>
      <trkpt lat="43.64687" lon="2.36715">
        <ele>582.22</ele>
        <time>2013-08-31T10:31:56Z</time>
      </trkpt>
      <trkpt lat="43.64689" lon="2.36719">
        <ele>582.22</ele>
        <time>2013-08-31T10:31:57Z</time>
      </trkpt>
      <trkpt lat="43.6469" lon="2.36726">
        <ele>582.22</ele>
        <time>2013-08-31T10:31:59Z</time>
      </trkpt>
      <trkpt lat="43.64692" lon="2.36729">
        <ele>582.7</ele>
        <time>2013-08-31T10:32:00Z</time>
      </trkpt>
      <trkpt lat="43.64694" lon="2.36732">
        <ele>583.18</ele>
        <time>2013-08-31T10:32:01Z</time>
      </trkpt>
      <trkpt lat="43.64697" lon="2.36735">
        <ele>583.18</ele>
        <time>2013-08-31T10:32:02Z</time>
      </trkpt>
      <trkpt lat="43.647" lon="2.36737">
        <ele>583.18</ele>
        <time>2013-08-31T10:32:03Z</time>
      </trkpt>
      <trkpt lat="43.64713" lon="2.36768">
        <ele>584.14</ele>
        <time>2013-08-31T10:32:12Z</time>
      </trkpt>
      <trkpt lat="43.64719" lon="2.36805">
        <ele>585.58</ele>
        <time>2013-08-31T10:32:21Z</time>
      </trkpt>
      <trkpt lat="43.64717" lon="2.36816">
        <ele>585.58</ele>
        <time>2013-08-31T10:32:25Z</time>
      </trkpt>
      <trkpt lat="43.64718" lon="2.36818">
        <ele>585.58</ele>
        <time>2013-08-31T10:32:26Z</time>
      </trkpt>
      <trkpt lat="43.64723" lon="2.36827">
        <ele>586.54</ele>
        <time>2013-08-31T10:32:31Z</time>
      </trkpt>
      <trkpt lat="43.64727" lon="2.36831">
        <ele>586.06</ele>
        <time>2013-08-31T10:32:34Z</time>
      </trkpt>
      <trkpt lat="43.64762" lon="2.36853">
        <ele>586.06</ele>
        <time>2013-08-31T10:32:42Z</time>
      </trkpt>
      <trkpt lat="43.64765" lon="2.36854">
        <ele>586.54</ele>
        <time>2013-08-31T10:32:43Z</time>
      </trkpt>
      <trkpt lat="43.64767" lon="2.36856">
        <ele>586.54</ele>
        <time>2013-08-31T10:32:44Z</time>
      </trkpt>
      <trkpt lat="43.64769" lon="2.36857">
        <ele>587.02</ele>
        <time>2013-08-31T10:32:45Z</time>
      </trkpt>
      <trkpt lat="43.64771" lon="2.36859">
        <ele>587.02</ele>
        <time>2013-08-31T10:32:46Z</time>
      </trkpt>
      <trkpt lat="43.64786" lon="2.36877">
        <ele>587.5</ele>
        <time>2013-08-31T10:32:55Z</time>
      </trkpt>
      <trkpt lat="43.64793" lon="2.36915">
        <ele>590.39</ele>
        <time>2013-08-31T10:33:08Z</time>
      </trkpt>
      <trkpt lat="43.64793" lon="2.36927">
        <ele>591.83</ele>
        <time>2013-08-31T10:33:13Z</time>
      </trkpt>
      <trkpt lat="43.6479" lon="2.36929">
        <ele>591.35</ele>
        <time>2013-08-31T10:33:14Z</time>
      </trkpt>
      <trkpt lat="43.64789" lon="2.36931">
        <ele>591.83</ele>
        <time>2013-08-31T10:33:15Z</time>
      </trkpt>
      <trkpt lat="43.64788" lon="2.36933">
        <ele>592.31</ele>
        <time>2013-08-31T10:33:16Z</time>
      </trkpt>
      <trkpt lat="43.64787" lon="2.36935">
        <ele>592.79</ele>
        <time>2013-08-31T10:33:17Z</time>
      </trkpt>
      <trkpt lat="43.64787" lon="2.36938">
        <ele>592.79</ele>
        <time>2013-08-31T10:33:18Z</time>
      </trkpt>
      <trkpt lat="43.64785" lon="2.36952">
        <ele>595.19</ele>
        <time>2013-08-31T10:33:25Z</time>
      </trkpt>
      <trkpt lat="43.64786" lon="2.36955">
        <ele>595.19</ele>
        <time>2013-08-31T10:33:26Z</time>
      </trkpt>
      <trkpt lat="43.64786" lon="2.36957">
        <ele>595.67</ele>
        <time>2013-08-31T10:33:27Z</time>
      </trkpt>
      <trkpt lat="43.64785" lon="2.36958">
        <ele>595.67</ele>
        <time>2013-08-31T10:33:28Z</time>
      </trkpt>
      <trkpt lat="43.64784" lon="2.3696">
        <ele>596.15</ele>
        <time>2013-08-31T10:33:29Z</time>
      </trkpt>
      <trkpt lat="43.64776" lon="2.36976">
        <ele>596.15</ele>
        <time>2013-08-31T10:33:36Z</time>
      </trkpt>
      <trkpt lat="43.64776" lon="2.36979">
        <ele>596.64</ele>
        <time>2013-08-31T10:33:37Z</time>
      </trkpt>
      <trkpt lat="43.64775" lon="2.36981">
        <ele>596.64</ele>
        <time>2013-08-31T10:33:38Z</time>
      </trkpt>
      <trkpt lat="43.64777" lon="2.36989">
        <ele>596.64</ele>
        <time>2013-08-31T10:33:42Z</time>
      </trkpt>
      <trkpt lat="43.64778" lon="2.36992">
        <ele>597.12</ele>
        <time>2013-08-31T10:33:43Z</time>
      </trkpt>
      <trkpt lat="43.64779" lon="2.36995">
        <ele>597.12</ele>
        <time>2013-08-31T10:33:44Z</time>
      </trkpt>
      <trkpt lat="43.64789" lon="2.37013">
        <ele>598.08</ele>
        <time>2013-08-31T10:33:51Z</time>
      </trkpt>
      <trkpt lat="43.64788" lon="2.37015">
        <ele>598.08</ele>
        <time>2013-08-31T10:33:52Z</time>
      </trkpt>
      <trkpt lat="43.64778" lon="2.37034">
        <ele>600.48</ele>
        <time>2013-08-31T10:34:04Z</time>
      </trkpt>
      <trkpt lat="43.64777" lon="2.3704">
        <ele>600.96</ele>
        <time>2013-08-31T10:34:07Z</time>
      </trkpt>
      <trkpt lat="43.64776" lon="2.37042">
        <ele>601.44</ele>
        <time>2013-08-31T10:34:08Z</time>
      </trkpt>
      <trkpt lat="43.64773" lon="2.37054">
        <ele>602.88</ele>
        <time>2013-08-31T10:34:16Z</time>
      </trkpt>
      <trkpt lat="43.6477" lon="2.37055">
        <ele>603.36</ele>
        <time>2013-08-31T10:34:17Z</time>
      </trkpt>
      <trkpt lat="43.64768" lon="2.37057">
        <ele>603.36</ele>
        <time>2013-08-31T10:34:18Z</time>
      </trkpt>
      <trkpt lat="43.6475" lon="2.37078">
        <ele>604.81</ele>
        <time>2013-08-31T10:34:27Z</time>
      </trkpt>
      <trkpt lat="43.64753" lon="2.37082">
        <ele>605.29</ele>
        <time>2013-08-31T10:34:28Z</time>
      </trkpt>
      <trkpt lat="43.64758" lon="2.3709">
        <ele>605.77</ele>
        <time>2013-08-31T10:34:32Z</time>
      </trkpt>
      <trkpt lat="43.64758" lon="2.37093">
        <ele>605.77</ele>
        <time>2013-08-31T10:34:33Z</time>
      </trkpt>
      <trkpt lat="43.64758" lon="2.37097">
        <ele>606.25</ele>
        <time>2013-08-31T10:34:34Z</time>
      </trkpt>
      <trkpt lat="43.64758" lon="2.371">
        <ele>606.25</ele>
        <time>2013-08-31T10:34:35Z</time>
      </trkpt>
      <trkpt lat="43.64757" lon="2.37103">
        <ele>606.25</ele>
        <time>2013-08-31T10:34:36Z</time>
      </trkpt>
      <trkpt lat="43.64754" lon="2.37112">
        <ele>607.21</ele>
        <time>2013-08-31T10:34:40Z</time>
      </trkpt>
      <trkpt lat="43.64754" lon="2.37114">
        <ele>607.21</ele>
        <time>2013-08-31T10:34:41Z</time>
      </trkpt>
      <trkpt lat="43.64751" lon="2.37133">
        <ele>607.69</ele>
        <time>2013-08-31T10:34:49Z</time>
      </trkpt>
      <trkpt lat="43.64751" lon="2.37135">
        <ele>608.17</ele>
        <time>2013-08-31T10:34:50Z</time>
      </trkpt>
      <trkpt lat="43.64751" lon="2.37138">
        <ele>608.17</ele>
        <time>2013-08-31T10:34:51Z</time>
      </trkpt>
      <trkpt lat="43.64751" lon="2.37143">
        <ele>608.65</ele>
        <time>2013-08-31T10:34:53Z</time>
      </trkpt>
      <trkpt lat="43.64747" lon="2.37161">
        <ele>609.61</ele>
        <time>2013-08-31T10:35:01Z</time>
      </trkpt>
      <trkpt lat="43.64748" lon="2.37168">
        <ele>610.09</ele>
        <time>2013-08-31T10:35:04Z</time>
      </trkpt>
      <trkpt lat="43.64747" lon="2.37177">
        <ele>610.57</ele>
        <time>2013-08-31T10:35:07Z</time>
      </trkpt>
      <trkpt lat="43.64746" lon="2.3718">
        <ele>610.57</ele>
        <time>2013-08-31T10:35:08Z</time>
      </trkpt>
      <trkpt lat="43.64746" lon="2.37183">
        <ele>610.57</ele>
        <time>2013-08-31T10:35:09Z</time>
      </trkpt>
      <trkpt lat="43.64753" lon="2.37195">
        <ele>610.57</ele>
        <time>2013-08-31T10:35:15Z</time>
      </trkpt>
      <trkpt lat="43.6476" lon="2.37204">
        <ele>611.06</ele>
        <time>2013-08-31T10:35:24Z</time>
      </trkpt>
      <trkpt lat="43.64789" lon="2.37202">
        <ele>609.13</ele>
        <time>2013-08-31T10:35:36Z</time>
      </trkpt>
      <trkpt lat="43.64804" lon="2.37203">
        <ele>608.65</ele>
        <time>2013-08-31T10:35:42Z</time>
      </trkpt>
      <trkpt lat="43.64836" lon="2.37192">
        <ele>606.73</ele>
        <time>2013-08-31T10:35:49Z</time>
      </trkpt>
      <trkpt lat="43.64846" lon="2.37184">
        <ele>605.29</ele>
        <time>2013-08-31T10:35:52Z</time>
      </trkpt>
      <trkpt lat="43.64846" lon="2.37182">
        <ele>605.29</ele>
        <time>2013-08-31T10:35:53Z</time>
      </trkpt>
      <trkpt lat="43.64846" lon="2.37178">
        <ele>604.81</ele>
        <time>2013-08-31T10:35:54Z</time>
      </trkpt>
      <trkpt lat="43.64869" lon="2.37139">
        <ele>602.88</ele>
        <time>2013-08-31T10:36:03Z</time>
      </trkpt>
      <trkpt lat="43.64886" lon="2.37102">
        <ele>601.44</ele>
        <time>2013-08-31T10:36:13Z</time>
      </trkpt>
      <trkpt lat="43.64887" lon="2.37097">
        <ele>601.44</ele>
        <time>2013-08-31T10:36:14Z</time>
      </trkpt>
      <trkpt lat="43.649" lon="2.3707">
        <ele>599.52</ele>
        <time>2013-08-31T10:36:19Z</time>
      </trkpt>
      <trkpt lat="43.64916" lon="2.37044">
        <ele>595.19</ele>
        <time>2013-08-31T10:36:23Z</time>
      </trkpt>
      <trkpt lat="43.6492" lon="2.37019">
        <ele>594.23</ele>
        <time>2013-08-31T10:36:26Z</time>
      </trkpt>
      <trkpt lat="43.64921" lon="2.37014">
        <ele>592.31</ele>
        <time>2013-08-31T10:36:27Z</time>
      </trkpt>
      <trkpt lat="43.649" lon="2.36981">
        <ele>593.27</ele>
        <time>2013-08-31T10:36:35Z</time>
      </trkpt>
      <trkpt lat="43.64881" lon="2.36953">
        <ele>593.27</ele>
        <time>2013-08-31T10:36:42Z</time>
      </trkpt>
      <trkpt lat="43.64878" lon="2.36948">
        <ele>592.79</ele>
        <time>2013-08-31T10:36:44Z</time>
      </trkpt>
      <trkpt lat="43.64875" lon="2.36938">
        <ele>591.35</ele>
        <time>2013-08-31T10:36:47Z</time>
      </trkpt>
      <trkpt lat="43.64876" lon="2.36913">
        <ele>587.5</ele>
        <time>2013-08-31T10:36:52Z</time>
      </trkpt>
      <trkpt lat="43.64879" lon="2.3688">
        <ele>583.66</ele>
        <time>2013-08-31T10:36:58Z</time>
      </trkpt>
      <trkpt lat="43.64883" lon="2.36867">
        <ele>580.29</ele>
        <time>2013-08-31T10:37:00Z</time>
      </trkpt>
      <trkpt lat="43.64887" lon="2.36852">
        <ele>577.89</ele>
        <time>2013-08-31T10:37:02Z</time>
      </trkpt>
      <trkpt lat="43.64886" lon="2.36815">
        <ele>573.08</ele>
        <time>2013-08-31T10:37:06Z</time>
      </trkpt>
      <trkpt lat="43.64885" lon="2.36805">
        <ele>572.6</ele>
        <time>2013-08-31T10:37:07Z</time>
      </trkpt>
      <trkpt lat="43.64874" lon="2.36785">
        <ele>572.12</ele>
        <time>2013-08-31T10:37:11Z</time>
      </trkpt>
      <trkpt lat="43.6487" lon="2.36728">
        <ele>569.72</ele>
        <time>2013-08-31T10:37:21Z</time>
      </trkpt>
      <trkpt lat="43.64874" lon="2.36683">
        <ele>569.24</ele>
        <time>2013-08-31T10:37:29Z</time>
      </trkpt>
      <trkpt lat="43.64876" lon="2.36677">
        <ele>569.24</ele>
        <time>2013-08-31T10:37:30Z</time>
      </trkpt>
      <trkpt lat="43.64895" lon="2.36621">
        <ele>569.24</ele>
        <time>2013-08-31T10:37:41Z</time>
      </trkpt>
      <trkpt lat="43.64895" lon="2.36585">
        <ele>568.76</ele>
        <time>2013-08-31T10:37:50Z</time>
      </trkpt>
      <trkpt lat="43.64895" lon="2.36583">
        <ele>568.28</ele>
        <time>2013-08-31T10:37:52Z</time>
      </trkpt>
      <trkpt lat="43.64895" lon="2.3658">
        <ele>568.76</ele>
        <time>2013-08-31T10:37:53Z</time>
      </trkpt>
      <trkpt lat="43.64896" lon="2.36578">
        <ele>568.76</ele>
        <time>2013-08-31T10:37:54Z</time>
      </trkpt>
      <trkpt lat="43.64898" lon="2.36575">
        <ele>567.8</ele>
        <time>2013-08-31T10:37:55Z</time>
      </trkpt>
      <trkpt lat="43.649" lon="2.36572">
        <ele>568.28</ele>
        <time>2013-08-31T10:37:56Z</time>
      </trkpt>
      <trkpt lat="43.64902" lon="2.36569">
        <ele>568.28</ele>
        <time>2013-08-31T10:37:57Z</time>
      </trkpt>
      <trkpt lat="43.64908" lon="2.36558">
        <ele>566.83</ele>
        <time>2013-08-31T10:38:05Z</time>
      </trkpt>
      <trkpt lat="43.64909" lon="2.36556">
        <ele>566.83</ele>
        <time>2013-08-31T10:38:20Z</time>
      </trkpt>
      <trkpt lat="43.64913" lon="2.36554">
        <ele>566.35</ele>
        <time>2013-08-31T10:38:25Z</time>
      </trkpt>
      <trkpt lat="43.64915" lon="2.36551">
        <ele>566.35</ele>
        <time>2013-08-31T10:38:26Z</time>
      </trkpt>
      <trkpt lat="43.64916" lon="2.36548">
        <ele>566.35</ele>
        <time>2013-08-31T10:38:27Z</time>
      </trkpt>
      <trkpt lat="43.64938" lon="2.36519">
        <ele>567.8</ele>
        <time>2013-08-31T10:38:39Z</time>
      </trkpt>
      <trkpt lat="43.64954" lon="2.365">
        <ele>569.24</ele>
        <time>2013-08-31T10:38:45Z</time>
      </trkpt>
      <trkpt lat="43.64958" lon="2.36497">
        <ele>569.24</ele>
        <time>2013-08-31T10:38:46Z</time>
      </trkpt>
      <trkpt lat="43.6497" lon="2.36478">
        <ele>570.2</ele>
        <time>2013-08-31T10:38:52Z</time>
      </trkpt>
      <trkpt lat="43.64951" lon="2.36445">
        <ele>571.64</ele>
        <time>2013-08-31T10:39:01Z</time>
      </trkpt>
      <trkpt lat="43.6496" lon="2.36415">
        <ele>573.08</ele>
        <time>2013-08-31T10:39:14Z</time>
      </trkpt>
      <trkpt lat="43.64961" lon="2.36407">
        <ele>573.56</ele>
        <time>2013-08-31T10:39:18Z</time>
      </trkpt>
      <trkpt lat="43.64964" lon="2.36386">
        <ele>574.53</ele>
        <time>2013-08-31T10:39:27Z</time>
      </trkpt>
      <trkpt lat="43.64961" lon="2.36373">
        <ele>575.01</ele>
        <time>2013-08-31T10:39:31Z</time>
      </trkpt>
      <trkpt lat="43.64961" lon="2.3637">
        <ele>574.53</ele>
        <time>2013-08-31T10:39:32Z</time>
      </trkpt>
      <trkpt lat="43.6496" lon="2.36368">
        <ele>575.01</ele>
        <time>2013-08-31T10:39:33Z</time>
      </trkpt>
      <trkpt lat="43.6496" lon="2.36365">
        <ele>575.01</ele>
        <time>2013-08-31T10:39:34Z</time>
      </trkpt>
      <trkpt lat="43.64959" lon="2.36361">
        <ele>575.01</ele>
        <time>2013-08-31T10:39:35Z</time>
      </trkpt>
      <trkpt lat="43.64958" lon="2.36357">
        <ele>575.01</ele>
        <time>2013-08-31T10:39:36Z</time>
      </trkpt>
      <trkpt lat="43.64959" lon="2.36351">
        <ele>574.53</ele>
        <time>2013-08-31T10:39:38Z</time>
      </trkpt>
      <trkpt lat="43.64961" lon="2.36349">
        <ele>574.53</ele>
        <time>2013-08-31T10:39:39Z</time>
      </trkpt>
      <trkpt lat="43.64962" lon="2.36347">
        <ele>574.53</ele>
        <time>2013-08-31T10:39:40Z</time>
      </trkpt>
      <trkpt lat="43.64964" lon="2.36345">
        <ele>574.53</ele>
        <time>2013-08-31T10:39:41Z</time>
      </trkpt>
      <trkpt lat="43.64966" lon="2.36343">
        <ele>574.53</ele>
        <time>2013-08-31T10:39:42Z</time>
      </trkpt>
      <trkpt lat="43.64968" lon="2.36341">
        <ele>574.53</ele>
        <time>2013-08-31T10:39:43Z</time>
      </trkpt>
      <trkpt lat="43.64971" lon="2.36339">
        <ele>574.53</ele>
        <time>2013-08-31T10:39:44Z</time>
      </trkpt>
      <trkpt lat="43.65008" lon="2.36313">
        <ele>573.56</ele>
        <time>2013-08-31T10:39:57Z</time>
      </trkpt>
      <trkpt lat="43.65035" lon="2.3629">
        <ele>574.04</ele>
        <time>2013-08-31T10:40:08Z</time>
      </trkpt>
      <trkpt lat="43.6505" lon="2.36271">
        <ele>575.49</ele>
        <time>2013-08-31T10:40:19Z</time>
      </trkpt>
      <trkpt lat="43.65063" lon="2.36253">
        <ele>576.93</ele>
        <time>2013-08-31T10:40:29Z</time>
      </trkpt>
      <trkpt lat="43.65068" lon="2.36251">
        <ele>576.45</ele>
        <time>2013-08-31T10:40:33Z</time>
      </trkpt>
      <trkpt lat="43.65073" lon="2.36244">
        <ele>576.45</ele>
        <time>2013-08-31T10:40:39Z</time>
      </trkpt>
      <trkpt lat="43.65077" lon="2.36234">
        <ele>576.93</ele>
        <time>2013-08-31T10:40:43Z</time>
      </trkpt>
      <trkpt lat="43.65084" lon="2.36207">
        <ele>579.33</ele>
        <time>2013-08-31T10:40:54Z</time>
      </trkpt>
      <trkpt lat="43.65103" lon="2.36185">
        <ele>579.81</ele>
        <time>2013-08-31T10:41:03Z</time>
      </trkpt>
      <trkpt lat="43.65116" lon="2.36156">
        <ele>580.29</ele>
        <time>2013-08-31T10:41:13Z</time>
      </trkpt>
      <trkpt lat="43.6514" lon="2.36128">
        <ele>579.33</ele>
        <time>2013-08-31T10:41:24Z</time>
      </trkpt>
      <trkpt lat="43.65147" lon="2.36124">
        <ele>577.89</ele>
        <time>2013-08-31T10:41:26Z</time>
      </trkpt>
      <trkpt lat="43.65162" lon="2.36115">
        <ele>576.45</ele>
        <time>2013-08-31T10:41:29Z</time>
      </trkpt>
      <trkpt lat="43.65181" lon="2.36091">
        <ele>576.93</ele>
        <time>2013-08-31T10:41:38Z</time>
      </trkpt>
      <trkpt lat="43.65189" lon="2.36059">
        <ele>576.45</ele>
        <time>2013-08-31T10:41:48Z</time>
      </trkpt>
      <trkpt lat="43.65195" lon="2.36023">
        <ele>575.01</ele>
        <time>2013-08-31T10:41:55Z</time>
      </trkpt>
      <trkpt lat="43.65217" lon="2.35985">
        <ele>573.08</ele>
        <time>2013-08-31T10:42:02Z</time>
      </trkpt>
      <trkpt lat="43.65254" lon="2.35925">
        <ele>572.6</ele>
        <time>2013-08-31T10:42:15Z</time>
      </trkpt>
      <trkpt lat="43.65261" lon="2.35912">
        <ele>570.68</ele>
        <time>2013-08-31T10:42:19Z</time>
      </trkpt>
      <trkpt lat="43.65287" lon="2.35866">
        <ele>568.76</ele>
        <time>2013-08-31T10:42:31Z</time>
      </trkpt>
      <trkpt lat="43.65301" lon="2.35832">
        <ele>568.28</ele>
        <time>2013-08-31T10:42:39Z</time>
      </trkpt>
      <trkpt lat="43.65323" lon="2.35796">
        <ele>566.83</ele>
        <time>2013-08-31T10:42:47Z</time>
      </trkpt>
      <trkpt lat="43.65326" lon="2.35765">
        <ele>564.43</ele>
        <time>2013-08-31T10:42:55Z</time>
      </trkpt>
      <trkpt lat="43.65328" lon="2.3575">
        <ele>562.99</ele>
        <time>2013-08-31T10:42:59Z</time>
      </trkpt>
      <trkpt lat="43.65328" lon="2.35709">
        <ele>560.59</ele>
        <time>2013-08-31T10:43:08Z</time>
      </trkpt>
      <trkpt lat="43.6533" lon="2.35696">
        <ele>561.07</ele>
        <time>2013-08-31T10:43:12Z</time>
      </trkpt>
      <trkpt lat="43.65338" lon="2.35695">
        <ele>561.55</ele>
        <time>2013-08-31T10:43:19Z</time>
      </trkpt>
      <trkpt lat="43.6535" lon="2.35734">
        <ele>559.14</ele>
        <time>2013-08-31T10:43:30Z</time>
      </trkpt>
      <trkpt lat="43.65351" lon="2.35739">
        <ele>559.14</ele>
        <time>2013-08-31T10:43:31Z</time>
      </trkpt>
      <trkpt lat="43.65381" lon="2.35752">
        <ele>558.18</ele>
        <time>2013-08-31T10:43:34Z</time>
      </trkpt>
      <trkpt lat="43.65402" lon="2.35774">
        <ele>557.7</ele>
        <time>2013-08-31T10:43:40Z</time>
      </trkpt>
      <trkpt lat="43.65406" lon="2.35787">
        <ele>556.26</ele>
        <time>2013-08-31T10:43:43Z</time>
      </trkpt>
      <trkpt lat="43.65408" lon="2.35827">
        <ele>553.86</ele>
        <time>2013-08-31T10:43:52Z</time>
      </trkpt>
      <trkpt lat="43.65405" lon="2.3587">
        <ele>550.01</ele>
        <time>2013-08-31T10:43:58Z</time>
      </trkpt>
      <trkpt lat="43.65404" lon="2.35904">
        <ele>548.09</ele>
        <time>2013-08-31T10:44:04Z</time>
      </trkpt>
      <trkpt lat="43.65416" lon="2.3593">
        <ele>542.8</ele>
        <time>2013-08-31T10:44:10Z</time>
      </trkpt>
      <trkpt lat="43.65421" lon="2.35938">
        <ele>541.84</ele>
        <time>2013-08-31T10:44:12Z</time>
      </trkpt>
      <trkpt lat="43.65428" lon="2.35958">
        <ele>539.92</ele>
        <time>2013-08-31T10:44:15Z</time>
      </trkpt>
      <trkpt lat="43.6544" lon="2.35979">
        <ele>538.96</ele>
        <time>2013-08-31T10:44:22Z</time>
      </trkpt>
      <trkpt lat="43.65447" lon="2.36017">
        <ele>538.48</ele>
        <time>2013-08-31T10:44:33Z</time>
      </trkpt>
      <trkpt lat="43.6545" lon="2.36067">
        <ele>536.55</ele>
        <time>2013-08-31T10:44:44Z</time>
      </trkpt>
      <trkpt lat="43.65456" lon="2.36113">
        <ele>534.63</ele>
        <time>2013-08-31T10:44:56Z</time>
      </trkpt>
      <trkpt lat="43.65457" lon="2.36116">
        <ele>534.15</ele>
        <time>2013-08-31T10:44:57Z</time>
      </trkpt>
      <trkpt lat="43.65481" lon="2.36143">
        <ele>530.79</ele>
        <time>2013-08-31T10:45:07Z</time>
      </trkpt>
      <trkpt lat="43.65492" lon="2.36155">
        <ele>529.82</ele>
        <time>2013-08-31T10:45:12Z</time>
      </trkpt>
      <trkpt lat="43.65521" lon="2.36155">
        <ele>529.82</ele>
        <time>2013-08-31T10:45:15Z</time>
      </trkpt>
      <trkpt lat="43.65532" lon="2.36152">
        <ele>529.34</ele>
        <time>2013-08-31T10:45:17Z</time>
      </trkpt>
      <trkpt lat="43.6556" lon="2.36123">
        <ele>526.94</ele>
        <time>2013-08-31T10:45:27Z</time>
      </trkpt>
      <trkpt lat="43.65572" lon="2.3613">
        <ele>526.94</ele>
        <time>2013-08-31T10:45:41Z</time>
      </trkpt>
      <trkpt lat="43.65578" lon="2.36133">
        <ele>526.94</ele>
        <time>2013-08-31T10:45:58Z</time>
      </trkpt>
      <trkpt lat="43.65595" lon="2.36135">
        <ele>527.42</ele>
        <time>2013-08-31T10:46:07Z</time>
      </trkpt>
      <trkpt lat="43.65603" lon="2.36134">
        <ele>527.42</ele>
        <time>2013-08-31T10:46:11Z</time>
      </trkpt>
      <trkpt lat="43.65781" lon="2.36037">
        <ele>505.79</ele>
        <time>2013-08-31T10:47:36Z</time>
      </trkpt>
      <trkpt lat="43.65775" lon="2.36035">
        <ele>506.27</ele>
        <time>2013-08-31T10:47:47Z</time>
      </trkpt>
      <trkpt lat="43.65781" lon="2.36036">
        <ele>504.35</ele>
        <time>2013-08-31T10:47:58Z</time>
      </trkpt>
      <trkpt lat="43.6578" lon="2.36035">
        <ele>509.64</ele>
        <time>2013-08-31T10:47:59Z</time>
      </trkpt>
      <trkpt lat="43.6578" lon="2.36035">
        <ele>507.23</ele>
        <time>2013-08-31T10:48:00Z</time>
      </trkpt>
      <trkpt lat="43.65777" lon="2.36035">
        <ele>500.98</ele>
        <time>2013-08-31T10:48:09Z</time>
      </trkpt>
      <trkpt lat="43.65777" lon="2.36035">
        <ele>511.08</ele>
        <time>2013-08-31T10:48:10Z</time>
      </trkpt>
      <trkpt lat="43.65777" lon="2.36035">
        <ele>507.23</ele>
        <time>2013-08-31T10:48:11Z</time>
      </trkpt>
      <trkpt lat="43.65776" lon="2.36035">
        <ele>500.98</ele>
        <time>2013-08-31T10:48:12Z</time>
      </trkpt>
      <trkpt lat="43.65776" lon="2.36036">
        <ele>507.71</ele>
        <time>2013-08-31T10:48:13Z</time>
      </trkpt>
      <trkpt lat="43.65777" lon="2.36036">
        <ele>506.27</ele>
        <time>2013-08-31T10:48:25Z</time>
      </trkpt>
      <trkpt lat="43.65777" lon="2.36034">
        <ele>506.27</ele>
        <time>2013-08-31T10:48:37Z</time>
      </trkpt>
      <trkpt lat="43.65776" lon="2.36035">
        <ele>505.79</ele>
        <time>2013-08-31T10:48:41Z</time>
      </trkpt>
      <trkpt lat="43.65777" lon="2.3604">
        <ele>506.27</ele>
        <time>2013-08-31T10:48:43Z</time>
      </trkpt>
      <trkpt lat="43.65776" lon="2.36047">
        <ele>507.23</ele>
        <time>2013-08-31T10:48:47Z</time>
      </trkpt>
      <trkpt lat="43.65778" lon="2.36048">
        <ele>507.71</ele>
        <time>2013-08-31T10:48:48Z</time>
      </trkpt>
      <trkpt lat="43.658" lon="2.36065">
        <ele>510.6</ele>
        <time>2013-08-31T10:48:59Z</time>
      </trkpt>
      <trkpt lat="43.65799" lon="2.36061">
        <ele>511.08</ele>
        <time>2013-08-31T10:49:05Z</time>
      </trkpt>
      <trkpt lat="43.65798" lon="2.36049">
        <ele>511.56</ele>
        <time>2013-08-31T10:49:15Z</time>
      </trkpt>
      <trkpt lat="43.65801" lon="2.36022">
        <ele>512.52</ele>
        <time>2013-08-31T10:49:27Z</time>
      </trkpt>
      <trkpt lat="43.6581" lon="2.35999">
        <ele>514.44</ele>
        <time>2013-08-31T10:49:37Z</time>
      </trkpt>
      <trkpt lat="43.65827" lon="2.35944">
        <ele>516.37</ele>
        <time>2013-08-31T10:49:51Z</time>
      </trkpt>
      <trkpt lat="43.6583" lon="2.35924">
        <ele>517.81</ele>
        <time>2013-08-31T10:50:00Z</time>
      </trkpt>
      <trkpt lat="43.65825" lon="2.35907">
        <ele>522.13</ele>
        <time>2013-08-31T10:50:10Z</time>
      </trkpt>
      <trkpt lat="43.65826" lon="2.35901">
        <ele>524.06</ele>
        <time>2013-08-31T10:50:13Z</time>
      </trkpt>
      <trkpt lat="43.65839" lon="2.35876">
        <ele>527.42</ele>
        <time>2013-08-31T10:50:23Z</time>
      </trkpt>
      <trkpt lat="43.65847" lon="2.35851">
        <ele>530.3</ele>
        <time>2013-08-31T10:50:33Z</time>
      </trkpt>
      <trkpt lat="43.65855" lon="2.35811">
        <ele>533.19</ele>
        <time>2013-08-31T10:50:45Z</time>
      </trkpt>
      <trkpt lat="43.65861" lon="2.3578">
        <ele>536.55</ele>
        <time>2013-08-31T10:50:55Z</time>
      </trkpt>
      <trkpt lat="43.65866" lon="2.35747">
        <ele>538.96</ele>
        <time>2013-08-31T10:51:07Z</time>
      </trkpt>
      <trkpt lat="43.65864" lon="2.3573">
        <ele>539.92</ele>
        <time>2013-08-31T10:51:12Z</time>
      </trkpt>
      <trkpt lat="43.65849" lon="2.35695">
        <ele>541.36</ele>
        <time>2013-08-31T10:51:24Z</time>
      </trkpt>
      <trkpt lat="43.65827" lon="2.35671">
        <ele>543.28</ele>
        <time>2013-08-31T10:51:36Z</time>
      </trkpt>
      <trkpt lat="43.65832" lon="2.35635">
        <ele>543.76</ele>
        <time>2013-08-31T10:51:47Z</time>
      </trkpt>
      <trkpt lat="43.65847" lon="2.35606">
        <ele>546.17</ele>
        <time>2013-08-31T10:51:56Z</time>
      </trkpt>
      <trkpt lat="43.65857" lon="2.35583">
        <ele>538.96</ele>
        <time>2013-08-31T10:52:03Z</time>
      </trkpt>
      <trkpt lat="43.65859" lon="2.35578">
        <ele>551.45</ele>
        <time>2013-08-31T10:52:04Z</time>
      </trkpt>
      <trkpt lat="43.6586" lon="2.35575">
        <ele>549.53</ele>
        <time>2013-08-31T10:52:05Z</time>
      </trkpt>
      <trkpt lat="43.65862" lon="2.35566">
        <ele>546.65</ele>
        <time>2013-08-31T10:52:07Z</time>
      </trkpt>
      <trkpt lat="43.65876" lon="2.35517">
        <ele>545.69</ele>
        <time>2013-08-31T10:52:18Z</time>
      </trkpt>
      <trkpt lat="43.65901" lon="2.35482">
        <ele>544.72</ele>
        <time>2013-08-31T10:52:28Z</time>
      </trkpt>
      <trkpt lat="43.65939" lon="2.35474">
        <ele>543.28</ele>
        <time>2013-08-31T10:52:38Z</time>
      </trkpt>
      <trkpt lat="43.6597" lon="2.35444">
        <ele>544.24</ele>
        <time>2013-08-31T10:52:50Z</time>
      </trkpt>
      <trkpt lat="43.6597" lon="2.35386">
        <ele>543.28</ele>
        <time>2013-08-31T10:53:03Z</time>
      </trkpt>
      <trkpt lat="43.65971" lon="2.3537">
        <ele>536.07</ele>
        <time>2013-08-31T10:53:12Z</time>
      </trkpt>
      <trkpt lat="43.65971" lon="2.3537">
        <ele>539.44</ele>
        <time>2013-08-31T10:53:13Z</time>
      </trkpt>
      <trkpt lat="43.65971" lon="2.3537">
        <ele>547.13</ele>
        <time>2013-08-31T10:53:14Z</time>
      </trkpt>
      <trkpt lat="43.65971" lon="2.3537">
        <ele>539.44</ele>
        <time>2013-08-31T10:53:15Z</time>
      </trkpt>
      <trkpt lat="43.65971" lon="2.3537">
        <ele>547.13</ele>
        <time>2013-08-31T10:53:16Z</time>
      </trkpt>
      <trkpt lat="43.65971" lon="2.3537">
        <ele>543.28</ele>
        <time>2013-08-31T10:53:17Z</time>
      </trkpt>
      <trkpt lat="43.65971" lon="2.3537">
        <ele>539.92</ele>
        <time>2013-08-31T10:53:19Z</time>
      </trkpt>
      <trkpt lat="43.65971" lon="2.3537">
        <ele>545.69</ele>
        <time>2013-08-31T10:53:20Z</time>
      </trkpt>
      <trkpt lat="43.65971" lon="2.3537">
        <ele>539.92</ele>
        <time>2013-08-31T10:53:24Z</time>
      </trkpt>
      <trkpt lat="43.65971" lon="2.3537">
        <ele>541.84</ele>
        <time>2013-08-31T10:53:25Z</time>
      </trkpt>
      <trkpt lat="43.65971" lon="2.3537">
        <ele>547.61</ele>
        <time>2013-08-31T10:53:28Z</time>
      </trkpt>
      <trkpt lat="43.65971" lon="2.3537">
        <ele>543.28</ele>
        <time>2013-08-31T10:53:29Z</time>
      </trkpt>
      <trkpt lat="43.6597" lon="2.35369">
        <ele>542.8</ele>
        <time>2013-08-31T10:53:32Z</time>
      </trkpt>
      <trkpt lat="43.65968" lon="2.35362">
        <ele>543.28</ele>
        <time>2013-08-31T10:53:35Z</time>
      </trkpt>
      <trkpt lat="43.65968" lon="2.35359">
        <ele>542.32</ele>
        <time>2013-08-31T10:53:36Z</time>
      </trkpt>
      <trkpt lat="43.65968" lon="2.35355">
        <ele>542.8</ele>
        <time>2013-08-31T10:53:37Z</time>
      </trkpt>
      <trkpt lat="43.65965" lon="2.35296">
        <ele>542.32</ele>
        <time>2013-08-31T10:53:49Z</time>
      </trkpt>
      <trkpt lat="43.65963" lon="2.35274">
        <ele>541.84</ele>
        <time>2013-08-31T10:53:53Z</time>
      </trkpt>
      <trkpt lat="43.65963" lon="2.35262">
        <ele>542.32</ele>
        <time>2013-08-31T10:53:55Z</time>
      </trkpt>
      <trkpt lat="43.6596" lon="2.35185">
        <ele>539.44</ele>
        <time>2013-08-31T10:54:07Z</time>
      </trkpt>
      <trkpt lat="43.65959" lon="2.35106">
        <ele>536.07</ele>
        <time>2013-08-31T10:54:17Z</time>
      </trkpt>
      <trkpt lat="43.65959" lon="2.35069">
        <ele>534.15</ele>
        <time>2013-08-31T10:54:21Z</time>
      </trkpt>
      <trkpt lat="43.65962" lon="2.34998">
        <ele>530.79</ele>
        <time>2013-08-31T10:54:28Z</time>
      </trkpt>
      <trkpt lat="43.65967" lon="2.34969">
        <ele>528.38</ele>
        <time>2013-08-31T10:54:31Z</time>
      </trkpt>
      <trkpt lat="43.6597" lon="2.34959">
        <ele>527.42</ele>
        <time>2013-08-31T10:54:32Z</time>
      </trkpt>
      <trkpt lat="43.65986" lon="2.34928">
        <ele>524.54</ele>
        <time>2013-08-31T10:54:35Z</time>
      </trkpt>
      <trkpt lat="43.66003" lon="2.34892">
        <ele>519.73</ele>
        <time>2013-08-31T10:54:38Z</time>
      </trkpt>
      <trkpt lat="43.66016" lon="2.34866">
        <ele>515.4</ele>
        <time>2013-08-31T10:54:40Z</time>
      </trkpt>
      <trkpt lat="43.66037" lon="2.34825">
        <ele>512.52</ele>
        <time>2013-08-31T10:54:43Z</time>
      </trkpt>
      <trkpt lat="43.66075" lon="2.34761">
        <ele>509.64</ele>
        <time>2013-08-31T10:54:48Z</time>
      </trkpt>
      <trkpt lat="43.66087" lon="2.34741">
        <ele>509.64</ele>
        <time>2013-08-31T10:54:50Z</time>
      </trkpt>
      <trkpt lat="43.66094" lon="2.34736">
        <ele>510.12</ele>
        <time>2013-08-31T10:54:51Z</time>
      </trkpt>
      <trkpt lat="43.661" lon="2.34733">
        <ele>510.12</ele>
        <time>2013-08-31T10:54:52Z</time>
      </trkpt>
      <trkpt lat="43.66107" lon="2.34734">
        <ele>509.64</ele>
        <time>2013-08-31T10:54:53Z</time>
      </trkpt>
      <trkpt lat="43.66113" lon="2.34737">
        <ele>509.16</ele>
        <time>2013-08-31T10:54:54Z</time>
      </trkpt>
      <trkpt lat="43.66119" lon="2.34742">
        <ele>508.19</ele>
        <time>2013-08-31T10:54:55Z</time>
      </trkpt>
      <trkpt lat="43.66139" lon="2.34762">
        <ele>505.31</ele>
        <time>2013-08-31T10:54:58Z</time>
      </trkpt>
      <trkpt lat="43.66146" lon="2.34771">
        <ele>504.35</ele>
        <time>2013-08-31T10:54:59Z</time>
      </trkpt>
      <trkpt lat="43.66151" lon="2.34782">
        <ele>504.35</ele>
        <time>2013-08-31T10:55:00Z</time>
      </trkpt>
      <trkpt lat="43.66165" lon="2.34817">
        <ele>500.5</ele>
        <time>2013-08-31T10:55:03Z</time>
      </trkpt>
      <trkpt lat="43.66173" lon="2.34843">
        <ele>498.1</ele>
        <time>2013-08-31T10:55:05Z</time>
      </trkpt>
      <trkpt lat="43.66184" lon="2.34886">
        <ele>494.26</ele>
        <time>2013-08-31T10:55:08Z</time>
      </trkpt>
      <trkpt lat="43.66189" lon="2.34919">
        <ele>492.33</ele>
        <time>2013-08-31T10:55:10Z</time>
      </trkpt>
      <trkpt lat="43.66192" lon="2.34948">
        <ele>490.89</ele>
        <time>2013-08-31T10:55:12Z</time>
      </trkpt>
      <trkpt lat="43.66195" lon="2.3496">
        <ele>489.93</ele>
        <time>2013-08-31T10:55:13Z</time>
      </trkpt>
      <trkpt lat="43.662" lon="2.34969">
        <ele>488.49</ele>
        <time>2013-08-31T10:55:14Z</time>
      </trkpt>
      <trkpt lat="43.66206" lon="2.34973">
        <ele>488.49</ele>
        <time>2013-08-31T10:55:15Z</time>
      </trkpt>
      <trkpt lat="43.66215" lon="2.34975">
        <ele>488.01</ele>
        <time>2013-08-31T10:55:16Z</time>
      </trkpt>
      <trkpt lat="43.66224" lon="2.34974">
        <ele>488.49</ele>
        <time>2013-08-31T10:55:17Z</time>
      </trkpt>
      <trkpt lat="43.66233" lon="2.34972">
        <ele>488.97</ele>
        <time>2013-08-31T10:55:18Z</time>
      </trkpt>
      <trkpt lat="43.66239" lon="2.34969">
        <ele>489.93</ele>
        <time>2013-08-31T10:55:19Z</time>
      </trkpt>
      <trkpt lat="43.66277" lon="2.34952">
        <ele>493.29</ele>
        <time>2013-08-31T10:55:26Z</time>
      </trkpt>
      <trkpt lat="43.66299" lon="2.34931">
        <ele>494.26</ele>
        <time>2013-08-31T10:55:33Z</time>
      </trkpt>
      <trkpt lat="43.66303" lon="2.34923">
        <ele>495.22</ele>
        <time>2013-08-31T10:55:37Z</time>
      </trkpt>
      <trkpt lat="43.66331" lon="2.34926">
        <ele>497.14</ele>
        <time>2013-08-31T10:55:46Z</time>
      </trkpt>
      <trkpt lat="43.6635" lon="2.34955">
        <ele>497.62</ele>
        <time>2013-08-31T10:55:57Z</time>
      </trkpt>
      <trkpt lat="43.66354" lon="2.34964">
        <ele>497.62</ele>
        <time>2013-08-31T10:56:03Z</time>
      </trkpt>
      <trkpt lat="43.66352" lon="2.34969">
        <ele>497.62</ele>
        <time>2013-08-31T10:56:07Z</time>
      </trkpt>
      <trkpt lat="43.66353" lon="2.34972">
        <ele>497.62</ele>
        <time>2013-08-31T10:56:09Z</time>
      </trkpt>
      <trkpt lat="43.66354" lon="2.34973">
        <ele>497.14</ele>
        <time>2013-08-31T10:56:10Z</time>
      </trkpt>
      <trkpt lat="43.66357" lon="2.34978">
        <ele>497.62</ele>
        <time>2013-08-31T10:56:20Z</time>
      </trkpt>
      <trkpt lat="43.66357" lon="2.34979">
        <ele>497.62</ele>
        <time>2013-08-31T10:56:38Z</time>
      </trkpt>
      <trkpt lat="43.6636" lon="2.34978">
        <ele>497.62</ele>
        <time>2013-08-31T10:56:54Z</time>
      </trkpt>
      <trkpt lat="43.6636" lon="2.34978">
        <ele>498.1</ele>
        <time>2013-08-31T10:57:19Z</time>
      </trkpt>
      <trkpt lat="43.6636" lon="2.34978">
        <ele>491.85</ele>
        <time>2013-08-31T10:57:30Z</time>
      </trkpt>
      <trkpt lat="43.6636" lon="2.34978">
        <ele>502.43</ele>
        <time>2013-08-31T10:57:31Z</time>
      </trkpt>
      <trkpt lat="43.6636" lon="2.34978">
        <ele>498.58</ele>
        <time>2013-08-31T10:57:32Z</time>
      </trkpt>
      <trkpt lat="43.6636" lon="2.34977">
        <ele>492.81</ele>
        <time>2013-08-31T10:57:38Z</time>
      </trkpt>
      <trkpt lat="43.6636" lon="2.34977">
        <ele>499.06</ele>
        <time>2013-08-31T10:57:39Z</time>
      </trkpt>
      <trkpt lat="43.66361" lon="2.34978">
        <ele>498.58</ele>
        <time>2013-08-31T10:58:07Z</time>
      </trkpt>
      <trkpt lat="43.66361" lon="2.34978">
        <ele>492.33</ele>
        <time>2013-08-31T10:58:11Z</time>
      </trkpt>
      <trkpt lat="43.66361" lon="2.34978">
        <ele>499.06</ele>
        <time>2013-08-31T10:58:12Z</time>
      </trkpt>
      <trkpt lat="43.66361" lon="2.34978">
        <ele>494.74</ele>
        <time>2013-08-31T10:58:13Z</time>
      </trkpt>
      <trkpt lat="43.66361" lon="2.34978">
        <ele>500.02</ele>
        <time>2013-08-31T10:58:14Z</time>
      </trkpt>
    </trkseg>
  </trk>
</gpx>